<?xml version="1.0" encoding="UTF-8"?>
<gpx version="1.0" creator="Trackator" xmlns:xsi="http://www.w3.org/2001/XMLSchema-instance" xmlns="http://www.topografix.com/GPX/1/0" xmlns:topografix="http://www.topografix.com/GPX/Private/TopoGrafix/0/1" xsi:schemaLocation="http://www.topografix.com/GPX/1/0 http://www.topografix.com/GPX/1/0/gpx.xsd http://www.topografix.com/GPX/Private/TopoGrafix/0/1 http://www.topografix.com/GPX/Private/TopoGrafix/0/1/topografix.xsd">
<metadata>
<link href="http://www.trackator.com">
<text>Trackator</text>
</link>
</metadata>
<time>2015-05-27T:05:37Z</time>
<trk>
<name>Track: </name>
<desc>Paragliding</desc>
<trkseg>
<trkpt lat="36.8985367" lon="-5.3932925">
<ele>1029</ele>
<time>2015-05-27T:05:37Z</time>
</trkpt>
<trkpt lat="36.8977637" lon="-5.3927821">
<ele>1036</ele>
<time>2015-05-27T10:20:00Z</time>
</trkpt>
<trkpt lat="36.8971338" lon="-5.3927733">
<ele>1029</ele>
<time>2015-05-27T10:20:13Z</time>
</trkpt>
<trkpt lat="36.8970921" lon="-5.3915945">
<ele>1018</ele>
<time>2015-05-27T10:20:29Z</time>
</trkpt>
<trkpt lat="36.8964735" lon="-5.3910603">
<ele>1024</ele>
<time>2015-05-27T10:20:42Z</time>
</trkpt>
<trkpt lat="36.8965109" lon="-5.3915315">
<ele>1045</ele>
<time>2015-05-27T10:20:57Z</time>
</trkpt>
<trkpt lat="36.8965238" lon="-5.3923534">
<ele>1071</ele>
<time>2015-05-27T10:21:12Z</time>
</trkpt>
<trkpt lat="36.8969337" lon="-5.3924974">
<ele>1117</ele>
<time>2015-05-27T10:21:33Z</time>
</trkpt>
<trkpt lat="36.896657" lon="-5.3928145">
<ele>1145</ele>
<time>2015-05-27T10:21:50Z</time>
</trkpt>
<trkpt lat="36.8970641" lon="-5.3937233">
<ele>1165</ele>
<time>2015-05-27T10:22:05Z</time>
</trkpt>
<trkpt lat="36.8967032" lon="-5.3932076">
<ele>1183</ele>
<time>2015-05-27T10:22:22Z</time>
</trkpt>
<trkpt lat="36.8968585" lon="-5.3945486">
<ele>1207</ele>
<time>2015-05-27T10:22:35Z</time>
</trkpt>
<trkpt lat="36.8973568" lon="-5.3941363">
<ele>1216</ele>
<time>2015-05-27T10:22:51Z</time>
</trkpt>
<trkpt lat="36.8980058" lon="-5.3954474">
<ele>1210</ele>
<time>2015-05-27T10:23:03Z</time>
</trkpt>
<trkpt lat="36.8978827" lon="-5.3965972">
<ele>1199</ele>
<time>2015-05-27T10:23:12Z</time>
</trkpt>
<trkpt lat="36.8972148" lon="-5.3959245">
<ele>1208</ele>
<time>2015-05-27T10:23:24Z</time>
</trkpt>
<trkpt lat="36.8965301" lon="-5.3963768">
<ele>1218</ele>
<time>2015-05-27T10:23:36Z</time>
</trkpt>
<trkpt lat="36.8972824" lon="-5.3967817">
<ele>1232</ele>
<time>2015-05-27T10:23:47Z</time>
</trkpt>
<trkpt lat="36.8973064" lon="-5.3955749">
<ele>1250</ele>
<time>2015-05-27T10:24:00Z</time>
</trkpt>
<trkpt lat="36.8965568" lon="-5.3955988">
<ele>1242</ele>
<time>2015-05-27T10:24:08Z</time>
</trkpt>
<trkpt lat="36.8968154" lon="-5.3967291">
<ele>1232</ele>
<time>2015-05-27T10:24:17Z</time>
</trkpt>
<trkpt lat="36.8978794" lon="-5.3969071">
<ele>1251</ele>
<time>2015-05-27T10:24:30Z</time>
</trkpt>
<trkpt lat="36.8984168" lon="-5.3960959">
<ele>1264</ele>
<time>2015-05-27T10:24:45Z</time>
</trkpt>
<trkpt lat="36.8981365" lon="-5.3970843">
<ele>1279</ele>
<time>2015-05-27T10:24:58Z</time>
</trkpt>
<trkpt lat="36.8984715" lon="-5.3961653">
<ele>1286</ele>
<time>2015-05-27T10:25:13Z</time>
</trkpt>
<trkpt lat="36.8989918" lon="-5.3974491">
<ele>1291</ele>
<time>2015-05-27T10:25:26Z</time>
</trkpt>
<trkpt lat="36.8987512" lon="-5.3967578">
<ele>1301</ele>
<time>2015-05-27T10:25:42Z</time>
</trkpt>
<trkpt lat="36.8997822" lon="-5.39576">
<ele>1305</ele>
<time>2015-05-27T10:25:59Z</time>
</trkpt>
<trkpt lat="36.9004858" lon="-5.3945908">
<ele>1318</ele>
<time>2015-05-27T10:26:13Z</time>
</trkpt>
<trkpt lat="36.9005756" lon="-5.3953688">
<ele>1332</ele>
<time>2015-05-27T10:26:27Z</time>
</trkpt>
<trkpt lat="36.9009476" lon="-5.3941518">
<ele>1378</ele>
<time>2015-05-27T10:26:45Z</time>
</trkpt>
<trkpt lat="36.9012607" lon="-5.3949655">
<ele>1403</ele>
<time>2015-05-27T10:26:56Z</time>
</trkpt>
<trkpt lat="36.9020108" lon="-5.3943764">
<ele>1425</ele>
<time>2015-05-27T10:27:05Z</time>
</trkpt>
<trkpt lat="36.9022599" lon="-5.3951963">
<ele>1451</ele>
<time>2015-05-27T10:27:20Z</time>
</trkpt>
<trkpt lat="36.9026355" lon="-5.3945216">
<ele>1481</ele>
<time>2015-05-27T10:27:34Z</time>
</trkpt>
<trkpt lat="36.9029804" lon="-5.3958968">
<ele>1517</ele>
<time>2015-05-27T10:27:49Z</time>
</trkpt>
<trkpt lat="36.9036222" lon="-5.3950608">
<ele>1530</ele>
<time>2015-05-27T10:27:58Z</time>
</trkpt>
<trkpt lat="36.9029931" lon="-5.3947631">
<ele>1544</ele>
<time>2015-05-27T10:28:11Z</time>
</trkpt>
<trkpt lat="36.9028874" lon="-5.3958035">
<ele>1567</ele>
<time>2015-05-27T10:28:22Z</time>
</trkpt>
<trkpt lat="36.9031803" lon="-5.3952337">
<ele>1588</ele>
<time>2015-05-27T10:28:31Z</time>
</trkpt>
<trkpt lat="36.9035108" lon="-5.3962257">
<ele>1625</ele>
<time>2015-05-27T10:28:48Z</time>
</trkpt>
<trkpt lat="36.9033655" lon="-5.3949933">
<ele>1650</ele>
<time>2015-05-27T10:29:03Z</time>
</trkpt>
<trkpt lat="36.9030435" lon="-5.3961176">
<ele>1686</ele>
<time>2015-05-27T10:29:16Z</time>
</trkpt>
<trkpt lat="36.9038406" lon="-5.3955664">
<ele>1719</ele>
<time>2015-05-27T10:29:27Z</time>
</trkpt>
<trkpt lat="36.9030966" lon="-5.3953526">
<ele>1739</ele>
<time>2015-05-27T10:29:38Z</time>
</trkpt>
<trkpt lat="36.9037698" lon="-5.3968173">
<ele>1780</ele>
<time>2015-05-27T10:29:54Z</time>
</trkpt>
<trkpt lat="36.9037591" lon="-5.3958917">
<ele>1816</ele>
<time>2015-05-27T10:30:09Z</time>
</trkpt>
<trkpt lat="36.9036328" lon="-5.3969957">
<ele>1845</ele>
<time>2015-05-27T10:30:21Z</time>
</trkpt>
<trkpt lat="36.9044602" lon="-5.3967249">
<ele>1879</ele>
<time>2015-05-27T10:30:36Z</time>
</trkpt>
<trkpt lat="36.9039765" lon="-5.3976395">
<ele>1908</ele>
<time>2015-05-27T10:30:48Z</time>
</trkpt>
<trkpt lat="36.9048147" lon="-5.3983627">
<ele>1928</ele>
<time>2015-05-27T10:30:59Z</time>
</trkpt>
<trkpt lat="36.9052665" lon="-5.3976546">
<ele>1943</ele>
<time>2015-05-27T10:31:09Z</time>
</trkpt>
<trkpt lat="36.904327" lon="-5.3975305">
<ele>1970</ele>
<time>2015-05-27T10:31:23Z</time>
</trkpt>
<trkpt lat="36.9041232" lon="-5.3984073">
<ele>1986</ele>
<time>2015-05-27T10:31:32Z</time>
</trkpt>
<trkpt lat="36.9051172" lon="-5.3986395">
<ele>2011</ele>
<time>2015-05-27T10:31:46Z</time>
</trkpt>
<trkpt lat="36.9048471" lon="-5.3975162">
<ele>2045</ele>
<time>2015-05-27T10:32:02Z</time>
</trkpt>
<trkpt lat="36.9041326" lon="-5.3977353">
<ele>2067</ele>
<time>2015-05-27T10:32:13Z</time>
</trkpt>
<trkpt lat="36.9041677" lon="-5.3988743">
<ele>2077</ele>
<time>2015-05-27T10:32:23Z</time>
</trkpt>
<trkpt lat="36.9052152" lon="-5.3989973">
<ele>2089</ele>
<time>2015-05-27T10:32:34Z</time>
</trkpt>
<trkpt lat="36.904851" lon="-5.3981949">
<ele>2103</ele>
<time>2015-05-27T10:32:46Z</time>
</trkpt>
<trkpt lat="36.9042921" lon="-5.3985041">
<ele>2114</ele>
<time>2015-05-27T10:32:54Z</time>
</trkpt>
<trkpt lat="36.9042731" lon="-5.3996846">
<ele>2121</ele>
<time>2015-05-27T10:33:04Z</time>
</trkpt>
<trkpt lat="36.9052205" lon="-5.4002346">
<ele>2121</ele>
<time>2015-05-27T10:33:13Z</time>
</trkpt>
<trkpt lat="36.9059976" lon="-5.4007375">
<ele>2119</ele>
<time>2015-05-27T10:33:24Z</time>
</trkpt>
<trkpt lat="36.9050003" lon="-5.400814">
<ele>2118</ele>
<time>2015-05-27T10:33:37Z</time>
</trkpt>
<trkpt lat="36.9055107" lon="-5.3997263">
<ele>2122</ele>
<time>2015-05-27T10:33:49Z</time>
</trkpt>
<trkpt lat="36.9062499" lon="-5.4004233">
<ele>2117</ele>
<time>2015-05-27T10:33:57Z</time>
</trkpt>
<trkpt lat="36.9061648" lon="-5.4016331">
<ele>2114</ele>
<time>2015-05-27T10:34:06Z</time>
</trkpt>
<trkpt lat="36.9054051" lon="-5.4027363">
<ele>2111</ele>
<time>2015-05-27T10:34:15Z</time>
</trkpt>
<trkpt lat="36.9055267" lon="-5.4039138">
<ele>2134</ele>
<time>2015-05-27T10:34:24Z</time>
</trkpt>
<trkpt lat="36.9059944" lon="-5.4034056">
<ele>2152</ele>
<time>2015-05-27T10:34:34Z</time>
</trkpt>
<trkpt lat="36.9047976" lon="-5.4033514">
<ele>2222</ele>
<time>2015-05-27T10:34:48Z</time>
</trkpt>
<trkpt lat="36.9046108" lon="-5.4044434">
<ele>2235</ele>
<time>2015-05-27T10:34:56Z</time>
</trkpt>
<trkpt lat="36.9053598" lon="-5.4039064">
<ele>2249</ele>
<time>2015-05-27T10:35:09Z</time>
</trkpt>
<trkpt lat="36.9047287" lon="-5.4048339">
<ele>2268</ele>
<time>2015-05-27T10:35:22Z</time>
</trkpt>
<trkpt lat="36.9058655" lon="-5.4052422">
<ele>2280</ele>
<time>2015-05-27T10:35:35Z</time>
</trkpt>
<trkpt lat="36.905474" lon="-5.4046407">
<ele>2294</ele>
<time>2015-05-27T10:35:50Z</time>
</trkpt>
<trkpt lat="36.9048927" lon="-5.405546">
<ele>2303</ele>
<time>2015-05-27T10:35:59Z</time>
</trkpt>
<trkpt lat="36.9048804" lon="-5.4066785">
<ele>2295</ele>
<time>2015-05-27T10:36:07Z</time>
</trkpt>
<trkpt lat="36.9055438" lon="-5.407442">
<ele>2295</ele>
<time>2015-05-27T10:36:15Z</time>
</trkpt>
<trkpt lat="36.906375" lon="-5.4072735">
<ele>2290</ele>
<time>2015-05-27T10:36:24Z</time>
</trkpt>
<trkpt lat="36.9070176" lon="-5.4067425">
<ele>2300</ele>
<time>2015-05-27T10:36:34Z</time>
</trkpt>
<trkpt lat="36.9071235" lon="-5.4057439">
<ele>2304</ele>
<time>2015-05-27T10:36:50Z</time>
</trkpt>
<trkpt lat="36.9061813" lon="-5.4064581">
<ele>2297</ele>
<time>2015-05-27T10:37:02Z</time>
</trkpt>
<trkpt lat="36.9061108" lon="-5.4075448">
<ele>2298</ele>
<time>2015-05-27T10:37:10Z</time>
</trkpt>
<trkpt lat="36.9067062" lon="-5.4083534">
<ele>2293</ele>
<time>2015-05-27T10:37:18Z</time>
</trkpt>
<trkpt lat="36.9077506" lon="-5.4087298">
<ele>2290</ele>
<time>2015-05-27T10:37:28Z</time>
</trkpt>
<trkpt lat="36.9086471" lon="-5.4084378">
<ele>2290</ele>
<time>2015-05-27T10:37:39Z</time>
</trkpt>
<trkpt lat="36.9088517" lon="-5.40753">
<ele>2283</ele>
<time>2015-05-27T10:37:49Z</time>
</trkpt>
<trkpt lat="36.9082369" lon="-5.4068833">
<ele>2275</ele>
<time>2015-05-27T10:37:59Z</time>
</trkpt>
<trkpt lat="36.907757" lon="-5.4058565">
<ele>2268</ele>
<time>2015-05-27T10:38:11Z</time>
</trkpt>
<trkpt lat="36.907657" lon="-5.4048495">
<ele>2268</ele>
<time>2015-05-27T10:38:20Z</time>
</trkpt>
<trkpt lat="36.9077571" lon="-5.4037295">
<ele>2279</ele>
<time>2015-05-27T10:38:31Z</time>
</trkpt>
<trkpt lat="36.9079255" lon="-5.4029016">
<ele>2288</ele>
<time>2015-05-27T10:38:39Z</time>
</trkpt>
<trkpt lat="36.9081528" lon="-5.4020922">
<ele>2304</ele>
<time>2015-05-27T10:38:48Z</time>
</trkpt>
<trkpt lat="36.9075528" lon="-5.4013323">
<ele>2345</ele>
<time>2015-05-27T10:39:04Z</time>
</trkpt>
<trkpt lat="36.9077026" lon="-5.4020971">
<ele>2367</ele>
<time>2015-05-27T10:39:14Z</time>
</trkpt>
<trkpt lat="36.90721" lon="-5.401629">
<ele>2404</ele>
<time>2015-05-27T10:39:29Z</time>
</trkpt>
<trkpt lat="36.9075011" lon="-5.4024601">
<ele>2421</ele>
<time>2015-05-27T10:39:38Z</time>
</trkpt>
<trkpt lat="36.9076799" lon="-5.401843">
<ele>2453</ele>
<time>2015-05-27T10:39:50Z</time>
</trkpt>
<trkpt lat="36.906945" lon="-5.4027497">
<ele>2477</ele>
<time>2015-05-27T10:40:01Z</time>
</trkpt>
<trkpt lat="36.9075933" lon="-5.4036043">
<ele>2492</ele>
<time>2015-05-27T10:40:12Z</time>
</trkpt>
<trkpt lat="36.9070646" lon="-5.4030549">
<ele>2525</ele>
<time>2015-05-27T10:40:26Z</time>
</trkpt>
<trkpt lat="36.9069037" lon="-5.4042701">
<ele>2536</ele>
<time>2015-05-27T10:40:35Z</time>
</trkpt>
<trkpt lat="36.9075099" lon="-5.4049217">
<ele>2544</ele>
<time>2015-05-27T10:40:44Z</time>
</trkpt>
<trkpt lat="36.9074261" lon="-5.4048883">
<ele>2543</ele>
<time>2015-05-27T10:40:43Z</time>
</trkpt>
<trkpt lat="36.9082759" lon="-5.4048538">
<ele>2549</ele>
<time>2015-05-27T10:40:53Z</time>
</trkpt>
<trkpt lat="36.9088012" lon="-5.4040509">
<ele>2578</ele>
<time>2015-05-27T10:41:06Z</time>
</trkpt>
<trkpt lat="36.9080517" lon="-5.4048044">
<ele>2595</ele>
<time>2015-05-27T10:41:16Z</time>
</trkpt>
<trkpt lat="36.9088324" lon="-5.4052703">
<ele>2610</ele>
<time>2015-05-27T10:41:26Z</time>
</trkpt>
<trkpt lat="36.908847" lon="-5.4040434">
<ele>2626</ele>
<time>2015-05-27T10:41:42Z</time>
</trkpt>
<trkpt lat="36.9090856" lon="-5.4029013">
<ele>2608</ele>
<time>2015-05-27T10:41:57Z</time>
</trkpt>
<trkpt lat="36.9091282" lon="-5.4019681">
<ele>2598</ele>
<time>2015-05-27T10:42:07Z</time>
</trkpt>
<trkpt lat="36.9093371" lon="-5.4010414">
<ele>2576</ele>
<time>2015-05-27T10:42:17Z</time>
</trkpt>
<trkpt lat="36.9095081" lon="-5.3999709">
<ele>2553</ele>
<time>2015-05-27T10:42:27Z</time>
</trkpt>
<trkpt lat="36.9098893" lon="-5.3991223">
<ele>2574</ele>
<time>2015-05-27T10:42:43Z</time>
</trkpt>
<trkpt lat="36.9101987" lon="-5.3981824">
<ele>2563</ele>
<time>2015-05-27T10:42:55Z</time>
</trkpt>
<trkpt lat="36.9103982" lon="-5.3969426">
<ele>2592</ele>
<time>2015-05-27T10:43:08Z</time>
</trkpt>
<trkpt lat="36.9105333" lon="-5.3973651">
<ele>2635</ele>
<time>2015-05-27T10:43:22Z</time>
</trkpt>
<trkpt lat="36.9111432" lon="-5.3971805">
<ele>2667</ele>
<time>2015-05-27T10:43:35Z</time>
</trkpt>
<trkpt lat="36.9113511" lon="-5.3972212">
<ele>2706</ele>
<time>2015-05-27T10:43:50Z</time>
</trkpt>
<trkpt lat="36.9112005" lon="-5.3972676">
<ele>2742</ele>
<time>2015-05-27T10:44:04Z</time>
</trkpt>
<trkpt lat="36.911203" lon="-5.3982617">
<ele>2765</ele>
<time>2015-05-27T10:44:14Z</time>
</trkpt>
<trkpt lat="36.9109369" lon="-5.3969609">
<ele>2809</ele>
<time>2015-05-27T10:44:29Z</time>
</trkpt>
<trkpt lat="36.9112906" lon="-5.3960006">
<ele>2847</ele>
<time>2015-05-27T10:44:39Z</time>
</trkpt>
<trkpt lat="36.9118512" lon="-5.3950618">
<ele>2889</ele>
<time>2015-05-27T10:44:48Z</time>
</trkpt>
<trkpt lat="36.9124881" lon="-5.3939728">
<ele>2940</ele>
<time>2015-05-27T10:44:57Z</time>
</trkpt>
<trkpt lat="36.9140949" lon="-5.3941379">
<ele>2976</ele>
<time>2015-05-27T10:45:10Z</time>
</trkpt>
<trkpt lat="36.9150917" lon="-5.3941687">
<ele>2996</ele>
<time>2015-05-27T10:45:18Z</time>
</trkpt>
<trkpt lat="36.916106" lon="-5.393992">
<ele>3013</ele>
<time>2015-05-27T10:45:26Z</time>
</trkpt>
<trkpt lat="36.9170862" lon="-5.3936264">
<ele>3015</ele>
<time>2015-05-27T10:45:34Z</time>
</trkpt>
<trkpt lat="36.9180994" lon="-5.3930149">
<ele>3013</ele>
<time>2015-05-27T10:45:42Z</time>
</trkpt>
<trkpt lat="36.9189918" lon="-5.3922789">
<ele>2995</ele>
<time>2015-05-27T10:45:50Z</time>
</trkpt>
<trkpt lat="36.9196685" lon="-5.3912345">
<ele>2968</ele>
<time>2015-05-27T10:46:00Z</time>
</trkpt>
<trkpt lat="36.9202638" lon="-5.3902342">
<ele>2947</ele>
<time>2015-05-27T10:46:10Z</time>
</trkpt>
<trkpt lat="36.9204682" lon="-5.3894279">
<ele>2935</ele>
<time>2015-05-27T10:46:18Z</time>
</trkpt>
<trkpt lat="36.920679" lon="-5.3885975">
<ele>2925</ele>
<time>2015-05-27T10:46:26Z</time>
</trkpt>
<trkpt lat="36.9209088" lon="-5.3877911">
<ele>2918</ele>
<time>2015-05-27T10:46:34Z</time>
</trkpt>
<trkpt lat="36.9211349" lon="-5.386979">
<ele>2910</ele>
<time>2015-05-27T10:46:42Z</time>
</trkpt>
<trkpt lat="36.9213735" lon="-5.3861724">
<ele>2904</ele>
<time>2015-05-27T10:46:50Z</time>
</trkpt>
<trkpt lat="36.9215661" lon="-5.3853699">
<ele>2899</ele>
<time>2015-05-27T10:46:58Z</time>
</trkpt>
<trkpt lat="36.9217703" lon="-5.3845368">
<ele>2895</ele>
<time>2015-05-27T10:47:06Z</time>
</trkpt>
<trkpt lat="36.9221413" lon="-5.3834937">
<ele>2888</ele>
<time>2015-05-27T10:47:16Z</time>
</trkpt>
<trkpt lat="36.9225224" lon="-5.3825493">
<ele>2880</ele>
<time>2015-05-27T10:47:25Z</time>
</trkpt>
<trkpt lat="36.9228025" lon="-5.3817051">
<ele>2873</ele>
<time>2015-05-27T10:47:33Z</time>
</trkpt>
<trkpt lat="36.9230501" lon="-5.3808406">
<ele>2867</ele>
<time>2015-05-27T10:47:41Z</time>
</trkpt>
<trkpt lat="36.9233493" lon="-5.3795591">
<ele>2856</ele>
<time>2015-05-27T10:47:53Z</time>
</trkpt>
<trkpt lat="36.9235263" lon="-5.3786941">
<ele>2848</ele>
<time>2015-05-27T10:48:01Z</time>
</trkpt>
<trkpt lat="36.9237439" lon="-5.3777087">
<ele>2840</ele>
<time>2015-05-27T10:48:10Z</time>
</trkpt>
<trkpt lat="36.923863" lon="-5.3766201">
<ele>2829</ele>
<time>2015-05-27T10:48:20Z</time>
</trkpt>
<trkpt lat="36.9240608" lon="-5.3756339">
<ele>2819</ele>
<time>2015-05-27T10:48:29Z</time>
</trkpt>
<trkpt lat="36.9243945" lon="-5.3745444">
<ele>2807</ele>
<time>2015-05-27T10:48:39Z</time>
</trkpt>
<trkpt lat="36.9246161" lon="-5.3732062">
<ele>2787</ele>
<time>2015-05-27T10:48:51Z</time>
</trkpt>
<trkpt lat="36.9245037" lon="-5.3714725">
<ele>2767</ele>
<time>2015-05-27T10:49:07Z</time>
</trkpt>
<trkpt lat="36.9247285" lon="-5.3697999">
<ele>2747</ele>
<time>2015-05-27T10:49:23Z</time>
</trkpt>
<trkpt lat="36.9248697" lon="-5.3686457">
<ele>2731</ele>
<time>2015-05-27T10:49:34Z</time>
</trkpt>
<trkpt lat="36.9249381" lon="-5.3673272">
<ele>2715</ele>
<time>2015-05-27T10:49:46Z</time>
</trkpt>
<trkpt lat="36.9251666" lon="-5.3657482">
<ele>2696</ele>
<time>2015-05-27T10:50:01Z</time>
</trkpt>
<trkpt lat="36.9252667" lon="-5.3643154">
<ele>2676</ele>
<time>2015-05-27T10:50:15Z</time>
</trkpt>
<trkpt lat="36.9253247" lon="-5.3632904">
<ele>2662</ele>
<time>2015-05-27T10:50:24Z</time>
</trkpt>
<trkpt lat="36.9253018" lon="-5.3621274">
<ele>2654</ele>
<time>2015-05-27T10:50:35Z</time>
</trkpt>
<trkpt lat="36.9253852" lon="-5.3603977">
<ele>2647</ele>
<time>2015-05-27T10:50:50Z</time>
</trkpt>
<trkpt lat="36.9252577" lon="-5.358971">
<ele>2636</ele>
<time>2015-05-27T10:51:03Z</time>
</trkpt>
<trkpt lat="36.9247745" lon="-5.3574846">
<ele>2619</ele>
<time>2015-05-27T10:51:19Z</time>
</trkpt>
<trkpt lat="36.9244296" lon="-5.3560937">
<ele>2604</ele>
<time>2015-05-27T10:51:33Z</time>
</trkpt>
<trkpt lat="36.9241734" lon="-5.354346">
<ele>2586</ele>
<time>2015-05-27T10:51:49Z</time>
</trkpt>
<trkpt lat="36.9240986" lon="-5.3527959">
<ele>2568</ele>
<time>2015-05-27T10:52:05Z</time>
</trkpt>
<trkpt lat="36.9239435" lon="-5.3510924">
<ele>2528</ele>
<time>2015-05-27T10:52:21Z</time>
</trkpt>
<trkpt lat="36.9238853" lon="-5.3499681">
<ele>2508</ele>
<time>2015-05-27T10:52:32Z</time>
</trkpt>
<trkpt lat="36.9235497" lon="-5.3488557">
<ele>2506</ele>
<time>2015-05-27T10:52:44Z</time>
</trkpt>
<trkpt lat="36.9232743" lon="-5.3478313">
<ele>2499</ele>
<time>2015-05-27T10:52:54Z</time>
</trkpt>
<trkpt lat="36.9225317" lon="-5.3463649">
<ele>2469</ele>
<time>2015-05-27T10:53:09Z</time>
</trkpt>
<trkpt lat="36.9211374" lon="-5.3455341">
<ele>2448</ele>
<time>2015-05-27T10:53:24Z</time>
</trkpt>
<trkpt lat="36.9200861" lon="-5.3454024">
<ele>2440</ele>
<time>2015-05-27T10:53:34Z</time>
</trkpt>
<trkpt lat="36.9192457" lon="-5.3453823">
<ele>2425</ele>
<time>2015-05-27T10:53:42Z</time>
</trkpt>
<trkpt lat="36.9181139" lon="-5.3451685">
<ele>2405</ele>
<time>2015-05-27T10:53:52Z</time>
</trkpt>
<trkpt lat="36.9170996" lon="-5.3445271">
<ele>2378</ele>
<time>2015-05-27T10:54:04Z</time>
</trkpt>
<trkpt lat="36.9161399" lon="-5.3443348">
<ele>2361</ele>
<time>2015-05-27T10:54:13Z</time>
</trkpt>
<trkpt lat="36.9153133" lon="-5.3441916">
<ele>2358</ele>
<time>2015-05-27T10:54:21Z</time>
</trkpt>
<trkpt lat="36.9144328" lon="-5.3440423">
<ele>2354</ele>
<time>2015-05-27T10:54:29Z</time>
</trkpt>
<trkpt lat="36.9135652" lon="-5.343928">
<ele>2361</ele>
<time>2015-05-27T10:54:37Z</time>
</trkpt>
<trkpt lat="36.9127868" lon="-5.3437613">
<ele>2378</ele>
<time>2015-05-27T10:54:45Z</time>
</trkpt>
<trkpt lat="36.912515" lon="-5.3431883">
<ele>2415</ele>
<time>2015-05-27T10:54:55Z</time>
</trkpt>
<trkpt lat="36.9125014" lon="-5.3440753">
<ele>2453</ele>
<time>2015-05-27T10:55:07Z</time>
</trkpt>
<trkpt lat="36.9129747" lon="-5.3444267">
<ele>2497</ele>
<time>2015-05-27T10:55:21Z</time>
</trkpt>
<trkpt lat="36.9120385" lon="-5.3443044">
<ele>2532</ele>
<time>2015-05-27T10:55:34Z</time>
</trkpt>
<trkpt lat="36.9131586" lon="-5.3443608">
<ele>2564</ele>
<time>2015-05-27T10:55:50Z</time>
</trkpt>
<trkpt lat="36.9125693" lon="-5.3446912">
<ele>2602</ele>
<time>2015-05-27T10:56:05Z</time>
</trkpt>
<trkpt lat="36.913221" lon="-5.3455232">
<ele>2640</ele>
<time>2015-05-27T10:56:18Z</time>
</trkpt>
<trkpt lat="36.9124696" lon="-5.3454545">
<ele>2666</ele>
<time>2015-05-27T10:56:32Z</time>
</trkpt>
<trkpt lat="36.9135052" lon="-5.3461837">
<ele>2699</ele>
<time>2015-05-27T10:56:46Z</time>
</trkpt>
<trkpt lat="36.9128378" lon="-5.3470966">
<ele>2703</ele>
<time>2015-05-27T10:56:55Z</time>
</trkpt>
<trkpt lat="36.9122265" lon="-5.3461839">
<ele>2722</ele>
<time>2015-05-27T10:57:10Z</time>
</trkpt>
<trkpt lat="36.9133431" lon="-5.3456941">
<ele>2724</ele>
<time>2015-05-27T10:57:23Z</time>
</trkpt>
<trkpt lat="36.9144641" lon="-5.3455991">
<ele>2738</ele>
<time>2015-05-27T10:57:35Z</time>
</trkpt>
<trkpt lat="36.914675" lon="-5.346606">
<ele>2747</ele>
<time>2015-05-27T10:57:45Z</time>
</trkpt>
<trkpt lat="36.9149028" lon="-5.3457045">
<ele>2764</ele>
<time>2015-05-27T10:58:00Z</time>
</trkpt>
<trkpt lat="36.9158382" lon="-5.3460674">
<ele>2768</ele>
<time>2015-05-27T10:58:09Z</time>
</trkpt>
<trkpt lat="36.9160866" lon="-5.3473075">
<ele>2769</ele>
<time>2015-05-27T10:58:17Z</time>
</trkpt>
<trkpt lat="36.9152879" lon="-5.3473867">
<ele>2781</ele>
<time>2015-05-27T10:58:30Z</time>
</trkpt>
<trkpt lat="36.9159878" lon="-5.3473119">
<ele>2790</ele>
<time>2015-05-27T10:58:40Z</time>
</trkpt>
<trkpt lat="36.9154964" lon="-5.3482271">
<ele>2796</ele>
<time>2015-05-27T10:58:52Z</time>
</trkpt>
<trkpt lat="36.9158142" lon="-5.3472096">
<ele>2799</ele>
<time>2015-05-27T10:59:06Z</time>
</trkpt>
<trkpt lat="36.916582" lon="-5.3463866">
<ele>2794</ele>
<time>2015-05-27T10:59:18Z</time>
</trkpt>
<trkpt lat="36.9168732" lon="-5.3453548">
<ele>2786</ele>
<time>2015-05-27T10:59:28Z</time>
</trkpt>
<trkpt lat="36.9173449" lon="-5.3438384">
<ele>2770</ele>
<time>2015-05-27T10:59:41Z</time>
</trkpt>
<trkpt lat="36.9178936" lon="-5.3423341">
<ele>2753</ele>
<time>2015-05-27T10:59:54Z</time>
</trkpt>
<trkpt lat="36.9183773" lon="-5.3410621">
<ele>2731</ele>
<time>2015-05-27T11:00:05Z</time>
</trkpt>
<trkpt lat="36.9187048" lon="-5.3395716">
<ele>2721</ele>
<time>2015-05-27T11:00:17Z</time>
</trkpt>
<trkpt lat="36.9187839" lon="-5.3379916">
<ele>2716</ele>
<time>2015-05-27T11:00:31Z</time>
</trkpt>
<trkpt lat="36.9188372" lon="-5.336787">
<ele>2735</ele>
<time>2015-05-27T11:00:45Z</time>
</trkpt>
<trkpt lat="36.9188777" lon="-5.3356318">
<ele>2754</ele>
<time>2015-05-27T11:00:58Z</time>
</trkpt>
<trkpt lat="36.9193225" lon="-5.3346015">
<ele>2766</ele>
<time>2015-05-27T11:01:11Z</time>
</trkpt>
<trkpt lat="36.9198293" lon="-5.333869">
<ele>2770</ele>
<time>2015-05-27T11:01:19Z</time>
</trkpt>
<trkpt lat="36.9204636" lon="-5.3331583">
<ele>2793</ele>
<time>2015-05-27T11:01:29Z</time>
</trkpt>
<trkpt lat="36.9206336" lon="-5.3320339">
<ele>2770</ele>
<time>2015-05-27T11:01:41Z</time>
</trkpt>
<trkpt lat="36.9209466" lon="-5.3313643">
<ele>2763</ele>
<time>2015-05-27T11:01:49Z</time>
</trkpt>
<trkpt lat="36.9204432" lon="-5.3308382">
<ele>2759</ele>
<time>2015-05-27T11:02:04Z</time>
</trkpt>
<trkpt lat="36.9209334" lon="-5.3299646">
<ele>2772</ele>
<time>2015-05-27T11:02:15Z</time>
</trkpt>
<trkpt lat="36.9217459" lon="-5.3295749">
<ele>2794</ele>
<time>2015-05-27T11:02:25Z</time>
</trkpt>
<trkpt lat="36.9218892" lon="-5.3309369">
<ele>2818</ele>
<time>2015-05-27T11:02:36Z</time>
</trkpt>
<trkpt lat="36.9223883" lon="-5.3305219">
<ele>2851</ele>
<time>2015-05-27T11:02:50Z</time>
</trkpt>
<trkpt lat="36.9219706" lon="-5.3309945">
<ele>2875</ele>
<time>2015-05-27T11:03:03Z</time>
</trkpt>
<trkpt lat="36.9230187" lon="-5.3307566">
<ele>2897</ele>
<time>2015-05-27T11:03:15Z</time>
</trkpt>
<trkpt lat="36.9228602" lon="-5.3318911">
<ele>2908</ele>
<time>2015-05-27T11:03:25Z</time>
</trkpt>
<trkpt lat="36.9230919" lon="-5.3306898">
<ele>2937</ele>
<time>2015-05-27T11:03:40Z</time>
</trkpt>
<trkpt lat="36.9239332" lon="-5.3296786">
<ele>2950</ele>
<time>2015-05-27T11:03:50Z</time>
</trkpt>
<trkpt lat="36.9245886" lon="-5.328232">
<ele>2958</ele>
<time>2015-05-27T11:04:04Z</time>
</trkpt>
<trkpt lat="36.9249854" lon="-5.327221">
<ele>2945</ele>
<time>2015-05-27T11:04:15Z</time>
</trkpt>
<trkpt lat="36.9252578" lon="-5.3263258">
<ele>2939</ele>
<time>2015-05-27T11:04:23Z</time>
</trkpt>
<trkpt lat="36.9256787" lon="-5.3249559">
<ele>2929</ele>
<time>2015-05-27T11:04:34Z</time>
</trkpt>
<trkpt lat="36.9261684" lon="-5.3237427">
<ele>2926</ele>
<time>2015-05-27T11:04:44Z</time>
</trkpt>
<trkpt lat="36.9262916" lon="-5.3224965">
<ele>2929</ele>
<time>2015-05-27T11:04:55Z</time>
</trkpt>
<trkpt lat="36.9265535" lon="-5.3206609">
<ele>2927</ele>
<time>2015-05-27T11:05:10Z</time>
</trkpt>
<trkpt lat="36.9264008" lon="-5.3194218">
<ele>2928</ele>
<time>2015-05-27T11:05:21Z</time>
</trkpt>
<trkpt lat="36.9262885" lon="-5.3185839">
<ele>2924</ele>
<time>2015-05-27T11:05:29Z</time>
</trkpt>
<trkpt lat="36.9261773" lon="-5.3177171">
<ele>2919</ele>
<time>2015-05-27T11:05:37Z</time>
</trkpt>
<trkpt lat="36.9260661" lon="-5.3168541">
<ele>2912</ele>
<time>2015-05-27T11:05:45Z</time>
</trkpt>
<trkpt lat="36.9262352" lon="-5.3159697">
<ele>2900</ele>
<time>2015-05-27T11:05:53Z</time>
</trkpt>
<trkpt lat="36.9267183" lon="-5.3150645">
<ele>2887</ele>
<time>2015-05-27T11:06:01Z</time>
</trkpt>
<trkpt lat="36.9273203" lon="-5.3142805">
<ele>2879</ele>
<time>2015-05-27T11:06:09Z</time>
</trkpt>
<trkpt lat="36.9280685" lon="-5.3130148">
<ele>2864</ele>
<time>2015-05-27T11:06:23Z</time>
</trkpt>
<trkpt lat="36.9290498" lon="-5.3117584">
<ele>2847</ele>
<time>2015-05-27T11:06:37Z</time>
</trkpt>
<trkpt lat="36.9298104" lon="-5.3110707">
<ele>2838</ele>
<time>2015-05-27T11:06:46Z</time>
</trkpt>
<trkpt lat="36.9309222" lon="-5.3106699">
<ele>2828</ele>
<time>2015-05-27T11:06:55Z</time>
</trkpt>
<trkpt lat="36.9319367" lon="-5.3103919">
<ele>2818</ele>
<time>2015-05-27T11:07:03Z</time>
</trkpt>
<trkpt lat="36.9329873" lon="-5.3101739">
<ele>2804</ele>
<time>2015-05-27T11:07:11Z</time>
</trkpt>
<trkpt lat="36.9340857" lon="-5.3100065">
<ele>2794</ele>
<time>2015-05-27T11:07:19Z</time>
</trkpt>
<trkpt lat="36.9350633" lon="-5.3097205">
<ele>2785</ele>
<time>2015-05-27T11:07:27Z</time>
</trkpt>
<trkpt lat="36.9360305" lon="-5.3094519">
<ele>2775</ele>
<time>2015-05-27T11:07:35Z</time>
</trkpt>
<trkpt lat="36.9371178" lon="-5.309208">
<ele>2755</ele>
<time>2015-05-27T11:07:44Z</time>
</trkpt>
<trkpt lat="36.9380648" lon="-5.3089844">
<ele>2740</ele>
<time>2015-05-27T11:07:52Z</time>
</trkpt>
<trkpt lat="36.9390517" lon="-5.3088632">
<ele>2727</ele>
<time>2015-05-27T11:08:00Z</time>
</trkpt>
<trkpt lat="36.9400796" lon="-5.308711">
<ele>2713</ele>
<time>2015-05-27T11:08:08Z</time>
</trkpt>
<trkpt lat="36.9410039" lon="-5.3083065">
<ele>2699</ele>
<time>2015-05-27T11:08:16Z</time>
</trkpt>
<trkpt lat="36.941896" lon="-5.3079922">
<ele>2685</ele>
<time>2015-05-27T11:08:24Z</time>
</trkpt>
<trkpt lat="36.9428609" lon="-5.3078239">
<ele>2671</ele>
<time>2015-05-27T11:08:32Z</time>
</trkpt>
<trkpt lat="36.9438659" lon="-5.3077169">
<ele>2659</ele>
<time>2015-05-27T11:08:40Z</time>
</trkpt>
<trkpt lat="36.9448457" lon="-5.307554">
<ele>2647</ele>
<time>2015-05-27T11:08:48Z</time>
</trkpt>
<trkpt lat="36.9458362" lon="-5.307349">
<ele>2637</ele>
<time>2015-05-27T11:08:56Z</time>
</trkpt>
<trkpt lat="36.9468446" lon="-5.3072464">
<ele>2629</ele>
<time>2015-05-27T11:09:04Z</time>
</trkpt>
<trkpt lat="36.9478742" lon="-5.3072453">
<ele>2620</ele>
<time>2015-05-27T11:09:12Z</time>
</trkpt>
<trkpt lat="36.9488564" lon="-5.3071872">
<ele>2609</ele>
<time>2015-05-27T11:09:20Z</time>
</trkpt>
<trkpt lat="36.9498401" lon="-5.3070508">
<ele>2601</ele>
<time>2015-05-27T11:09:28Z</time>
</trkpt>
<trkpt lat="36.9507755" lon="-5.3069311">
<ele>2591</ele>
<time>2015-05-27T11:09:36Z</time>
</trkpt>
<trkpt lat="36.9517477" lon="-5.3067999">
<ele>2578</ele>
<time>2015-05-27T11:09:44Z</time>
</trkpt>
<trkpt lat="36.9527112" lon="-5.3065865">
<ele>2565</ele>
<time>2015-05-27T11:09:52Z</time>
</trkpt>
<trkpt lat="36.9536084" lon="-5.3062138">
<ele>2552</ele>
<time>2015-05-27T11:10:00Z</time>
</trkpt>
<trkpt lat="36.9544418" lon="-5.3056915">
<ele>2538</ele>
<time>2015-05-27T11:10:08Z</time>
</trkpt>
<trkpt lat="36.9552865" lon="-5.3052177">
<ele>2527</ele>
<time>2015-05-27T11:10:16Z</time>
</trkpt>
<trkpt lat="36.9561153" lon="-5.3047996">
<ele>2517</ele>
<time>2015-05-27T11:10:24Z</time>
</trkpt>
<trkpt lat="36.9569951" lon="-5.304283">
<ele>2506</ele>
<time>2015-05-27T11:10:33Z</time>
</trkpt>
<trkpt lat="36.9580958" lon="-5.3035135">
<ele>2492</ele>
<time>2015-05-27T11:10:45Z</time>
</trkpt>
<trkpt lat="36.9593045" lon="-5.3026989">
<ele>2480</ele>
<time>2015-05-27T11:10:59Z</time>
</trkpt>
<trkpt lat="36.9602494" lon="-5.3019662">
<ele>2475</ele>
<time>2015-05-27T11:11:13Z</time>
</trkpt>
<trkpt lat="36.9615247" lon="-5.3016523">
<ele>2474</ele>
<time>2015-05-27T11:11:29Z</time>
</trkpt>
<trkpt lat="36.9621559" lon="-5.3013394">
<ele>2469</ele>
<time>2015-05-27T11:11:37Z</time>
</trkpt>
<trkpt lat="36.9629652" lon="-5.301042">
<ele>2455</ele>
<time>2015-05-27T11:11:46Z</time>
</trkpt>
<trkpt lat="36.9637487" lon="-5.3006457">
<ele>2444</ele>
<time>2015-05-27T11:11:55Z</time>
</trkpt>
<trkpt lat="36.9647586" lon="-5.3001469">
<ele>2425</ele>
<time>2015-05-27T11:12:07Z</time>
</trkpt>
<trkpt lat="36.9657192" lon="-5.2993425">
<ele>2403</ele>
<time>2015-05-27T11:12:19Z</time>
</trkpt>
<trkpt lat="36.9663413" lon="-5.2988676">
<ele>2394</ele>
<time>2015-05-27T11:12:27Z</time>
</trkpt>
<trkpt lat="36.9674602" lon="-5.298272">
<ele>2378</ele>
<time>2015-05-27T11:12:40Z</time>
</trkpt>
<trkpt lat="36.9683359" lon="-5.2977769">
<ele>2361</ele>
<time>2015-05-27T11:12:52Z</time>
</trkpt>
<trkpt lat="36.9692132" lon="-5.2971665">
<ele>2348</ele>
<time>2015-05-27T11:13:05Z</time>
</trkpt>
<trkpt lat="36.9700253" lon="-5.2963374">
<ele>2338</ele>
<time>2015-05-27T11:13:20Z</time>
</trkpt>
<trkpt lat="36.9703313" lon="-5.2949628">
<ele>2333</ele>
<time>2015-05-27T11:13:34Z</time>
</trkpt>
<trkpt lat="36.9703542" lon="-5.2941189">
<ele>2327</ele>
<time>2015-05-27T11:13:43Z</time>
</trkpt>
<trkpt lat="36.9706182" lon="-5.2931413">
<ele>2314</ele>
<time>2015-05-27T11:13:55Z</time>
</trkpt>
<trkpt lat="36.9710149" lon="-5.2922221">
<ele>2294</ele>
<time>2015-05-27T11:14:07Z</time>
</trkpt>
<trkpt lat="36.9712833" lon="-5.2914677">
<ele>2281</ele>
<time>2015-05-27T11:14:15Z</time>
</trkpt>
<trkpt lat="36.9718888" lon="-5.2904697">
<ele>2259</ele>
<time>2015-05-27T11:14:27Z</time>
</trkpt>
<trkpt lat="36.9724634" lon="-5.2894944">
<ele>2232</ele>
<time>2015-05-27T11:14:39Z</time>
</trkpt>
<trkpt lat="36.9732825" lon="-5.2889596">
<ele>2209</ele>
<time>2015-05-27T11:14:50Z</time>
</trkpt>
<trkpt lat="36.9740369" lon="-5.2885242">
<ele>2189</ele>
<time>2015-05-27T11:15:00Z</time>
</trkpt>
<trkpt lat="36.9749248" lon="-5.2877431">
<ele>2158</ele>
<time>2015-05-27T11:15:13Z</time>
</trkpt>
<trkpt lat="36.9754559" lon="-5.2871347">
<ele>2147</ele>
<time>2015-05-27T11:15:22Z</time>
</trkpt>
<trkpt lat="36.9762436" lon="-5.2866015">
<ele>2117</ele>
<time>2015-05-27T11:15:33Z</time>
</trkpt>
<trkpt lat="36.977077" lon="-5.2858175">
<ele>2101</ele>
<time>2015-05-27T11:15:47Z</time>
</trkpt>
<trkpt lat="36.977273" lon="-5.2848122">
<ele>2100</ele>
<time>2015-05-27T11:16:01Z</time>
</trkpt>
<trkpt lat="36.9775634" lon="-5.2837941">
<ele>2097</ele>
<time>2015-05-27T11:16:17Z</time>
</trkpt>
<trkpt lat="36.9774372" lon="-5.2827433">
<ele>2094</ele>
<time>2015-05-27T11:16:32Z</time>
</trkpt>
<trkpt lat="36.9770981" lon="-5.281817">
<ele>2096</ele>
<time>2015-05-27T11:16:44Z</time>
</trkpt>
<trkpt lat="36.9778132" lon="-5.2811975">
<ele>2076</ele>
<time>2015-05-27T11:16:56Z</time>
</trkpt>
<trkpt lat="36.9782971" lon="-5.2801884">
<ele>2076</ele>
<time>2015-05-27T11:17:07Z</time>
</trkpt>
<trkpt lat="36.978337" lon="-5.2788437">
<ele>2086</ele>
<time>2015-05-27T11:17:22Z</time>
</trkpt>
<trkpt lat="36.978423" lon="-5.2797751">
<ele>2088</ele>
<time>2015-05-27T11:17:35Z</time>
</trkpt>
<trkpt lat="36.9774945" lon="-5.279562">
<ele>2093</ele>
<time>2015-05-27T11:17:45Z</time>
</trkpt>
<trkpt lat="36.9772267" lon="-5.2786307">
<ele>2108</ele>
<time>2015-05-27T11:17:54Z</time>
</trkpt>
<trkpt lat="36.9765326" lon="-5.2787177">
<ele>2104</ele>
<time>2015-05-27T11:18:03Z</time>
</trkpt>
<trkpt lat="36.9771003" lon="-5.2794885">
<ele>2104</ele>
<time>2015-05-27T11:18:11Z</time>
</trkpt>
<trkpt lat="36.9777345" lon="-5.279266">
<ele>2124</ele>
<time>2015-05-27T11:18:24Z</time>
</trkpt>
<trkpt lat="36.9769572" lon="-5.279217">
<ele>2137</ele>
<time>2015-05-27T11:18:35Z</time>
</trkpt>
<trkpt lat="36.977046" lon="-5.2800898">
<ele>2146</ele>
<time>2015-05-27T11:18:43Z</time>
</trkpt>
<trkpt lat="36.9778056" lon="-5.2801621">
<ele>2153</ele>
<time>2015-05-27T11:18:52Z</time>
</trkpt>
<trkpt lat="36.9782331" lon="-5.2792358">
<ele>2180</ele>
<time>2015-05-27T11:19:04Z</time>
</trkpt>
<trkpt lat="36.9775388" lon="-5.279497">
<ele>2190</ele>
<time>2015-05-27T11:19:15Z</time>
</trkpt>
<trkpt lat="36.9783255" lon="-5.2799146">
<ele>2209</ele>
<time>2015-05-27T11:19:27Z</time>
</trkpt>
<trkpt lat="36.9778819" lon="-5.2794005">
<ele>2217</ele>
<time>2015-05-27T11:19:37Z</time>
</trkpt>
<trkpt lat="36.9779204" lon="-5.2801513">
<ele>2228</ele>
<time>2015-05-27T11:19:45Z</time>
</trkpt>
<trkpt lat="36.978362" lon="-5.2795125">
<ele>2236</ele>
<time>2015-05-27T11:19:56Z</time>
</trkpt>
<trkpt lat="36.9777875" lon="-5.2798192">
<ele>2236</ele>
<time>2015-05-27T11:20:05Z</time>
</trkpt>
<trkpt lat="36.9777452" lon="-5.2810212">
<ele>2249</ele>
<time>2015-05-27T11:20:14Z</time>
</trkpt>
<trkpt lat="36.9782958" lon="-5.2816843">
<ele>2264</ele>
<time>2015-05-27T11:20:22Z</time>
</trkpt>
<trkpt lat="36.9788247" lon="-5.2808164">
<ele>2283</ele>
<time>2015-05-27T11:20:34Z</time>
</trkpt>
<trkpt lat="36.9780695" lon="-5.2810541">
<ele>2287</ele>
<time>2015-05-27T11:20:47Z</time>
</trkpt>
<trkpt lat="36.9788338" lon="-5.2818118">
<ele>2304</ele>
<time>2015-05-27T11:20:58Z</time>
</trkpt>
<trkpt lat="36.9784055" lon="-5.2813005">
<ele>2311</ele>
<time>2015-05-27T11:21:11Z</time>
</trkpt>
<trkpt lat="36.9780267" lon="-5.2825253">
<ele>2329</ele>
<time>2015-05-27T11:21:22Z</time>
</trkpt>
<trkpt lat="36.978747" lon="-5.2826149">
<ele>2329</ele>
<time>2015-05-27T11:21:31Z</time>
</trkpt>
<trkpt lat="36.9786595" lon="-5.2816688">
<ele>2338</ele>
<time>2015-05-27T11:21:41Z</time>
</trkpt>
<trkpt lat="36.977991" lon="-5.2811036">
<ele>2331</ele>
<time>2015-05-27T11:21:52Z</time>
</trkpt>
<trkpt lat="36.9772114" lon="-5.281367">
<ele>2340</ele>
<time>2015-05-27T11:22:00Z</time>
</trkpt>
<trkpt lat="36.9768648" lon="-5.2825491">
<ele>2353</ele>
<time>2015-05-27T11:22:11Z</time>
</trkpt>
<trkpt lat="36.9774906" lon="-5.2823275">
<ele>2359</ele>
<time>2015-05-27T11:22:19Z</time>
</trkpt>
<trkpt lat="36.9769545" lon="-5.2814721">
<ele>2374</ele>
<time>2015-05-27T11:22:30Z</time>
</trkpt>
<trkpt lat="36.97629" lon="-5.2817306">
<ele>2394</ele>
<time>2015-05-27T11:22:40Z</time>
</trkpt>
<trkpt lat="36.9768021" lon="-5.2822206">
<ele>2408</ele>
<time>2015-05-27T11:22:50Z</time>
</trkpt>
<trkpt lat="36.9767138" lon="-5.2810977">
<ele>2415</ele>
<time>2015-05-27T11:23:05Z</time>
</trkpt>
<trkpt lat="36.9761555" lon="-5.2816722">
<ele>2433</ele>
<time>2015-05-27T11:23:18Z</time>
</trkpt>
<trkpt lat="36.9767922" lon="-5.2815956">
<ele>2447</ele>
<time>2015-05-27T11:23:27Z</time>
</trkpt>
<trkpt lat="36.9759618" lon="-5.2817247">
<ele>2451</ele>
<time>2015-05-27T11:23:38Z</time>
</trkpt>
<trkpt lat="36.9761896" lon="-5.2827113">
<ele>2465</ele>
<time>2015-05-27T11:23:47Z</time>
</trkpt>
<trkpt lat="36.9768214" lon="-5.2824297">
<ele>2482</ele>
<time>2015-05-27T11:23:55Z</time>
</trkpt>
<trkpt lat="36.9767269" lon="-5.2813816">
<ele>2489</ele>
<time>2015-05-27T11:24:06Z</time>
</trkpt>
<trkpt lat="36.9761427" lon="-5.2820692">
<ele>2482</ele>
<time>2015-05-27T11:24:15Z</time>
</trkpt>
<trkpt lat="36.9763243" lon="-5.2833935">
<ele>2505</ele>
<time>2015-05-27T11:24:27Z</time>
</trkpt>
<trkpt lat="36.9768793" lon="-5.2829142">
<ele>2531</ele>
<time>2015-05-27T11:24:36Z</time>
</trkpt>
<trkpt lat="36.9764191" lon="-5.2835783">
<ele>2556</ele>
<time>2015-05-27T11:24:47Z</time>
</trkpt>
<trkpt lat="36.9771205" lon="-5.2834251">
<ele>2577</ele>
<time>2015-05-27T11:24:56Z</time>
</trkpt>
<trkpt lat="36.9763991" lon="-5.2837362">
<ele>2605</ele>
<time>2015-05-27T11:25:11Z</time>
</trkpt>
<trkpt lat="36.977161" lon="-5.2838979">
<ele>2620</ele>
<time>2015-05-27T11:25:20Z</time>
</trkpt>
<trkpt lat="36.9767484" lon="-5.2840355">
<ele>2640</ele>
<time>2015-05-27T11:25:32Z</time>
</trkpt>
<trkpt lat="36.9773606" lon="-5.2847952">
<ele>2648</ele>
<time>2015-05-27T11:25:41Z</time>
</trkpt>
<trkpt lat="36.9781274" lon="-5.284719">
<ele>2642</ele>
<time>2015-05-27T11:25:49Z</time>
</trkpt>
<trkpt lat="36.9788873" lon="-5.2842623">
<ele>2635</ele>
<time>2015-05-27T11:25:58Z</time>
</trkpt>
<trkpt lat="36.9795688" lon="-5.2837146">
<ele>2625</ele>
<time>2015-05-27T11:26:06Z</time>
</trkpt>
<trkpt lat="36.9805665" lon="-5.2830977">
<ele>2608</ele>
<time>2015-05-27T11:26:17Z</time>
</trkpt>
<trkpt lat="36.9816252" lon="-5.2824447">
<ele>2598</ele>
<time>2015-05-27T11:26:29Z</time>
</trkpt>
<trkpt lat="36.9828534" lon="-5.2817791">
<ele>2583</ele>
<time>2015-05-27T11:26:42Z</time>
</trkpt>
<trkpt lat="36.9839707" lon="-5.2806752">
<ele>2559</ele>
<time>2015-05-27T11:26:58Z</time>
</trkpt>
<trkpt lat="36.9850157" lon="-5.2795301">
<ele>2537</ele>
<time>2015-05-27T11:27:13Z</time>
</trkpt>
<trkpt lat="36.9859139" lon="-5.2785676">
<ele>2517</ele>
<time>2015-05-27T11:27:25Z</time>
</trkpt>
<trkpt lat="36.9869341" lon="-5.2773476">
<ele>2506</ele>
<time>2015-05-27T11:27:39Z</time>
</trkpt>
<trkpt lat="36.9877267" lon="-5.2765562">
<ele>2498</ele>
<time>2015-05-27T11:27:49Z</time>
</trkpt>
<trkpt lat="36.9887379" lon="-5.2761884">
<ele>2508</ele>
<time>2015-05-27T11:27:59Z</time>
</trkpt>
<trkpt lat="36.9892054" lon="-5.2757063">
<ele>2522</ele>
<time>2015-05-27T11:28:07Z</time>
</trkpt>
<trkpt lat="36.9888077" lon="-5.2752469">
<ele>2536</ele>
<time>2015-05-27T11:28:18Z</time>
</trkpt>
<trkpt lat="36.9889178" lon="-5.2762049">
<ele>2555</ele>
<time>2015-05-27T11:28:26Z</time>
</trkpt>
<trkpt lat="36.9898032" lon="-5.2763545">
<ele>2569</ele>
<time>2015-05-27T11:28:35Z</time>
</trkpt>
<trkpt lat="36.9893746" lon="-5.2755262">
<ele>2582</ele>
<time>2015-05-27T11:28:51Z</time>
</trkpt>
<trkpt lat="36.9895477" lon="-5.2765138">
<ele>2583</ele>
<time>2015-05-27T11:29:00Z</time>
</trkpt>
<trkpt lat="36.9902775" lon="-5.2764813">
<ele>2584</ele>
<time>2015-05-27T11:29:09Z</time>
</trkpt>
<trkpt lat="36.9905446" lon="-5.2757502">
<ele>2579</ele>
<time>2015-05-27T11:29:17Z</time>
</trkpt>
<trkpt lat="36.9896108" lon="-5.2755322">
<ele>2573</ele>
<time>2015-05-27T11:29:27Z</time>
</trkpt>
<trkpt lat="36.9895383" lon="-5.2768532">
<ele>2571</ele>
<time>2015-05-27T11:29:37Z</time>
</trkpt>
<trkpt lat="36.9899182" lon="-5.2779487">
<ele>2564</ele>
<time>2015-05-27T11:29:45Z</time>
</trkpt>
<trkpt lat="36.9906662" lon="-5.2782261">
<ele>2560</ele>
<time>2015-05-27T11:29:53Z</time>
</trkpt>
<trkpt lat="36.991531" lon="-5.2782623">
<ele>2548</ele>
<time>2015-05-27T11:30:03Z</time>
</trkpt>
<trkpt lat="36.9922074" lon="-5.2783808">
<ele>2533</ele>
<time>2015-05-27T11:30:11Z</time>
</trkpt>
<trkpt lat="36.9932512" lon="-5.2786118">
<ele>2508</ele>
<time>2015-05-27T11:30:23Z</time>
</trkpt>
<trkpt lat="36.9941334" lon="-5.2790543">
<ele>2487</ele>
<time>2015-05-27T11:30:33Z</time>
</trkpt>
<trkpt lat="36.9948615" lon="-5.2793336">
<ele>2464</ele>
<time>2015-05-27T11:30:41Z</time>
</trkpt>
<trkpt lat="36.9955919" lon="-5.279577">
<ele>2449</ele>
<time>2015-05-27T11:30:49Z</time>
</trkpt>
<trkpt lat="36.9968924" lon="-5.280112">
<ele>2424</ele>
<time>2015-05-27T11:31:03Z</time>
</trkpt>
<trkpt lat="36.9976943" lon="-5.2804328">
<ele>2405</ele>
<time>2015-05-27T11:31:11Z</time>
</trkpt>
<trkpt lat="36.9985665" lon="-5.2806616">
<ele>2387</ele>
<time>2015-05-27T11:31:19Z</time>
</trkpt>
<trkpt lat="36.9994438" lon="-5.2809755">
<ele>2371</ele>
<time>2015-05-27T11:31:28Z</time>
</trkpt>
<trkpt lat="37.0002625" lon="-5.2813082">
<ele>2359</ele>
<time>2015-05-27T11:31:36Z</time>
</trkpt>
<trkpt lat="37.0010403" lon="-5.2814313">
<ele>2349</ele>
<time>2015-05-27T11:31:44Z</time>
</trkpt>
<trkpt lat="37.0018559" lon="-5.2815375">
<ele>2337</ele>
<time>2015-05-27T11:31:53Z</time>
</trkpt>
<trkpt lat="37.0025579" lon="-5.2815992">
<ele>2331</ele>
<time>2015-05-27T11:32:01Z</time>
</trkpt>
<trkpt lat="37.0032082" lon="-5.2818458">
<ele>2326</ele>
<time>2015-05-27T11:32:09Z</time>
</trkpt>
<trkpt lat="37.0038848" lon="-5.2821221">
<ele>2320</ele>
<time>2015-05-27T11:32:17Z</time>
</trkpt>
<trkpt lat="37.0045605" lon="-5.2821984">
<ele>2317</ele>
<time>2015-05-27T11:32:25Z</time>
</trkpt>
<trkpt lat="37.0053354" lon="-5.2822249">
<ele>2309</ele>
<time>2015-05-27T11:32:33Z</time>
</trkpt>
<trkpt lat="37.0061916" lon="-5.2825197">
<ele>2306</ele>
<time>2015-05-27T11:32:41Z</time>
</trkpt>
<trkpt lat="37.0068816" lon="-5.2829167">
<ele>2298</ele>
<time>2015-05-27T11:32:49Z</time>
</trkpt>
<trkpt lat="37.0076289" lon="-5.2834948">
<ele>2286</ele>
<time>2015-05-27T11:32:57Z</time>
</trkpt>
<trkpt lat="37.0086072" lon="-5.2838275">
<ele>2276</ele>
<time>2015-05-27T11:33:06Z</time>
</trkpt>
<trkpt lat="37.0095541" lon="-5.2842511">
<ele>2266</ele>
<time>2015-05-27T11:33:15Z</time>
</trkpt>
<trkpt lat="37.0102103" lon="-5.2841101">
<ele>2268</ele>
<time>2015-05-27T11:33:23Z</time>
</trkpt>
<trkpt lat="37.0110761" lon="-5.2838406">
<ele>2266</ele>
<time>2015-05-27T11:33:33Z</time>
</trkpt>
<trkpt lat="37.0116471" lon="-5.2846371">
<ele>2278</ele>
<time>2015-05-27T11:33:41Z</time>
</trkpt>
<trkpt lat="37.0109645" lon="-5.2849871">
<ele>2287</ele>
<time>2015-05-27T11:33:52Z</time>
</trkpt>
<trkpt lat="37.0111078" lon="-5.284278">
<ele>2292</ele>
<time>2015-05-27T11:34:00Z</time>
</trkpt>
<trkpt lat="37.0116857" lon="-5.2838058">
<ele>2293</ele>
<time>2015-05-27T11:34:08Z</time>
</trkpt>
<trkpt lat="37.0121278" lon="-5.2847351">
<ele>2288</ele>
<time>2015-05-27T11:34:16Z</time>
</trkpt>
<trkpt lat="37.0116558" lon="-5.2852787">
<ele>2296</ele>
<time>2015-05-27T11:34:25Z</time>
</trkpt>
<trkpt lat="37.0117766" lon="-5.2842958">
<ele>2299</ele>
<time>2015-05-27T11:34:37Z</time>
</trkpt>
<trkpt lat="37.0131425" lon="-5.2839105">
<ele>2286</ele>
<time>2015-05-27T11:34:51Z</time>
</trkpt>
<trkpt lat="37.0141325" lon="-5.2841368">
<ele>2275</ele>
<time>2015-05-27T11:34:59Z</time>
</trkpt>
<trkpt lat="37.0152381" lon="-5.2840693">
<ele>2265</ele>
<time>2015-05-27T11:35:09Z</time>
</trkpt>
<trkpt lat="37.0163781" lon="-5.2840476">
<ele>2247</ele>
<time>2015-05-27T11:35:19Z</time>
</trkpt>
<trkpt lat="37.0172803" lon="-5.2843202">
<ele>2239</ele>
<time>2015-05-27T11:35:27Z</time>
</trkpt>
<trkpt lat="37.0182152" lon="-5.2840566">
<ele>2235</ele>
<time>2015-05-27T11:35:37Z</time>
</trkpt>
<trkpt lat="37.0193865" lon="-5.2835408">
<ele>2221</ele>
<time>2015-05-27T11:35:49Z</time>
</trkpt>
<trkpt lat="37.0204548" lon="-5.2835697">
<ele>2209</ele>
<time>2015-05-27T11:35:58Z</time>
</trkpt>
<trkpt lat="37.0213814" lon="-5.2839441">
<ele>2192</ele>
<time>2015-05-27T11:36:06Z</time>
</trkpt>
<trkpt lat="37.0223263" lon="-5.2840949">
<ele>2173</ele>
<time>2015-05-27T11:36:14Z</time>
</trkpt>
<trkpt lat="37.0232823" lon="-5.2843831">
<ele>2154</ele>
<time>2015-05-27T11:36:22Z</time>
</trkpt>
<trkpt lat="37.0242602" lon="-5.2848592">
<ele>2136</ele>
<time>2015-05-27T11:36:30Z</time>
</trkpt>
<trkpt lat="37.0251063" lon="-5.2852191">
<ele>2125</ele>
<time>2015-05-27T11:36:38Z</time>
</trkpt>
<trkpt lat="37.0259888" lon="-5.2851267">
<ele>2101</ele>
<time>2015-05-27T11:36:46Z</time>
</trkpt>
<trkpt lat="37.0269065" lon="-5.2851481">
<ele>2087</ele>
<time>2015-05-27T11:36:54Z</time>
</trkpt>
<trkpt lat="37.0279111" lon="-5.2851362">
<ele>2067</ele>
<time>2015-05-27T11:37:03Z</time>
</trkpt>
<trkpt lat="37.0289297" lon="-5.2850274">
<ele>2049</ele>
<time>2015-05-27T11:37:13Z</time>
</trkpt>
<trkpt lat="37.0297308" lon="-5.2851154">
<ele>2032</ele>
<time>2015-05-27T11:37:21Z</time>
</trkpt>
<trkpt lat="37.0305467" lon="-5.2853986">
<ele>2016</ele>
<time>2015-05-27T11:37:29Z</time>
</trkpt>
<trkpt lat="37.0313534" lon="-5.2856815">
<ele>2003</ele>
<time>2015-05-27T11:37:37Z</time>
</trkpt>
<trkpt lat="37.0323089" lon="-5.2860486">
<ele>1981</ele>
<time>2015-05-27T11:37:46Z</time>
</trkpt>
<trkpt lat="37.0334642" lon="-5.286546">
<ele>1967</ele>
<time>2015-05-27T11:37:58Z</time>
</trkpt>
<trkpt lat="37.0342312" lon="-5.2871566">
<ele>1959</ele>
<time>2015-05-27T11:38:07Z</time>
</trkpt>
<trkpt lat="37.034953" lon="-5.2876723">
<ele>1946</ele>
<time>2015-05-27T11:38:15Z</time>
</trkpt>
<trkpt lat="37.035761" lon="-5.2880659">
<ele>1938</ele>
<time>2015-05-27T11:38:24Z</time>
</trkpt>
<trkpt lat="37.0369682" lon="-5.2881054">
<ele>1925</ele>
<time>2015-05-27T11:38:37Z</time>
</trkpt>
<trkpt lat="37.0378973" lon="-5.2880391">
<ele>1924</ele>
<time>2015-05-27T11:38:49Z</time>
</trkpt>
<trkpt lat="37.0386658" lon="-5.2874268">
<ele>1909</ele>
<time>2015-05-27T11:39:04Z</time>
</trkpt>
<trkpt lat="37.0395048" lon="-5.2870689">
<ele>1908</ele>
<time>2015-05-27T11:39:17Z</time>
</trkpt>
<trkpt lat="37.0395195" lon="-5.2859926">
<ele>1930</ele>
<time>2015-05-27T11:39:30Z</time>
</trkpt>
<trkpt lat="37.0400762" lon="-5.2855647">
<ele>1955</ele>
<time>2015-05-27T11:39:44Z</time>
</trkpt>
<trkpt lat="37.0404398" lon="-5.2865483">
<ele>1958</ele>
<time>2015-05-27T11:39:54Z</time>
</trkpt>
<trkpt lat="37.0398002" lon="-5.286663">
<ele>1973</ele>
<time>2015-05-27T11:40:06Z</time>
</trkpt>
<trkpt lat="37.0402742" lon="-5.2875069">
<ele>1984</ele>
<time>2015-05-27T11:40:16Z</time>
</trkpt>
<trkpt lat="37.039589" lon="-5.286874">
<ele>2006</ele>
<time>2015-05-27T11:40:32Z</time>
</trkpt>
<trkpt lat="37.0404062" lon="-5.2869156">
<ele>2014</ele>
<time>2015-05-27T11:40:45Z</time>
</trkpt>
<trkpt lat="37.0405274" lon="-5.2884297">
<ele>2016</ele>
<time>2015-05-27T11:40:57Z</time>
</trkpt>
<trkpt lat="37.0401929" lon="-5.2894837">
<ele>2016</ele>
<time>2015-05-27T11:41:06Z</time>
</trkpt>
<trkpt lat="37.0396088" lon="-5.2888272">
<ele>2024</ele>
<time>2015-05-27T11:41:20Z</time>
</trkpt>
<trkpt lat="37.0394344" lon="-5.2880236">
<ele>2037</ele>
<time>2015-05-27T11:41:36Z</time>
</trkpt>
<trkpt lat="37.0391067" lon="-5.2890502">
<ele>2051</ele>
<time>2015-05-27T11:41:45Z</time>
</trkpt>
<trkpt lat="37.0394787" lon="-5.2887688">
<ele>2053</ele>
<time>2015-05-27T11:41:56Z</time>
</trkpt>
<trkpt lat="37.0386228" lon="-5.289095">
<ele>2067</ele>
<time>2015-05-27T11:42:05Z</time>
</trkpt>
<trkpt lat="37.0389336" lon="-5.2898546">
<ele>2072</ele>
<time>2015-05-27T11:42:14Z</time>
</trkpt>
<trkpt lat="37.0391064" lon="-5.2889315">
<ele>2081</ele>
<time>2015-05-27T11:42:25Z</time>
</trkpt>
<trkpt lat="37.0384816" lon="-5.2884052">
<ele>2098</ele>
<time>2015-05-27T11:42:36Z</time>
</trkpt>
<trkpt lat="37.0384752" lon="-5.2895941">
<ele>2105</ele>
<time>2015-05-27T11:42:47Z</time>
</trkpt>
<trkpt lat="37.0387607" lon="-5.2892036">
<ele>2115</ele>
<time>2015-05-27T11:42:58Z</time>
</trkpt>
<trkpt lat="37.0379311" lon="-5.2897876">
<ele>2118</ele>
<time>2015-05-27T11:43:07Z</time>
</trkpt>
<trkpt lat="37.0383195" lon="-5.2906769">
<ele>2127</ele>
<time>2015-05-27T11:43:19Z</time>
</trkpt>
<trkpt lat="37.0378518" lon="-5.2898719">
<ele>2138</ele>
<time>2015-05-27T11:43:30Z</time>
</trkpt>
<trkpt lat="37.0373477" lon="-5.2909169">
<ele>2130</ele>
<time>2015-05-27T11:43:43Z</time>
</trkpt>
<trkpt lat="37.0380572" lon="-5.2915433">
<ele>2128</ele>
<time>2015-05-27T11:43:54Z</time>
</trkpt>
<trkpt lat="37.039021" lon="-5.2912593">
<ele>2136</ele>
<time>2015-05-27T11:44:10Z</time>
</trkpt>
<trkpt lat="37.0385691" lon="-5.2906549">
<ele>2125</ele>
<time>2015-05-27T11:44:20Z</time>
</trkpt>
<trkpt lat="37.0381842" lon="-5.2917566">
<ele>2117</ele>
<time>2015-05-27T11:44:28Z</time>
</trkpt>
<trkpt lat="37.0382664" lon="-5.2930446">
<ele>2119</ele>
<time>2015-05-27T11:44:38Z</time>
</trkpt>
<trkpt lat="37.0388061" lon="-5.2938552">
<ele>2112</ele>
<time>2015-05-27T11:44:47Z</time>
</trkpt>
<trkpt lat="37.0393841" lon="-5.2945614">
<ele>2100</ele>
<time>2015-05-27T11:44:55Z</time>
</trkpt>
<trkpt lat="37.0399924" lon="-5.295279">
<ele>2090</ele>
<time>2015-05-27T11:45:03Z</time>
</trkpt>
<trkpt lat="37.0405966" lon="-5.2960135">
<ele>2076</ele>
<time>2015-05-27T11:45:11Z</time>
</trkpt>
<trkpt lat="37.0412229" lon="-5.2967548">
<ele>2073</ele>
<time>2015-05-27T11:45:19Z</time>
</trkpt>
<trkpt lat="37.0420018" lon="-5.2971767">
<ele>2070</ele>
<time>2015-05-27T11:45:28Z</time>
</trkpt>
<trkpt lat="37.0427132" lon="-5.2968234">
<ele>2073</ele>
<time>2015-05-27T11:45:38Z</time>
</trkpt>
<trkpt lat="37.0418844" lon="-5.2966103">
<ele>2089</ele>
<time>2015-05-27T11:45:51Z</time>
</trkpt>
<trkpt lat="37.0422227" lon="-5.2975221">
<ele>2090</ele>
<time>2015-05-27T11:46:00Z</time>
</trkpt>
<trkpt lat="37.0417017" lon="-5.2972758">
<ele>2098</ele>
<time>2015-05-27T11:46:15Z</time>
</trkpt>
<trkpt lat="37.0422433" lon="-5.2982022">
<ele>2091</ele>
<time>2015-05-27T11:46:25Z</time>
</trkpt>
<trkpt lat="37.0428725" lon="-5.2976448">
<ele>2106</ele>
<time>2015-05-27T11:46:37Z</time>
</trkpt>
<trkpt lat="37.0434855" lon="-5.297214">
<ele>2141</ele>
<time>2015-05-27T11:46:49Z</time>
</trkpt>
<trkpt lat="37.0431693" lon="-5.2978856">
<ele>2165</ele>
<time>2015-05-27T11:47:02Z</time>
</trkpt>
<trkpt lat="37.0435578" lon="-5.2973378">
<ele>2193</ele>
<time>2015-05-27T11:47:16Z</time>
</trkpt>
<trkpt lat="37.0431272" lon="-5.298254">
<ele>2212</ele>
<time>2015-05-27T11:47:27Z</time>
</trkpt>
<trkpt lat="37.0431766" lon="-5.2976621">
<ele>2243</ele>
<time>2015-05-27T11:47:41Z</time>
</trkpt>
<trkpt lat="37.0435383" lon="-5.2987001">
<ele>2261</ele>
<time>2015-05-27T11:47:50Z</time>
</trkpt>
<trkpt lat="37.042854" lon="-5.2993002">
<ele>2282</ele>
<time>2015-05-27T11:48:00Z</time>
</trkpt>
<trkpt lat="37.0432269" lon="-5.2985289">
<ele>2318</ele>
<time>2015-05-27T11:48:16Z</time>
</trkpt>
<trkpt lat="37.0434832" lon="-5.299528">
<ele>2335</ele>
<time>2015-05-27T11:48:24Z</time>
</trkpt>
<trkpt lat="37.0427444" lon="-5.2998926">
<ele>2352</ele>
<time>2015-05-27T11:48:35Z</time>
</trkpt>
<trkpt lat="37.0433182" lon="-5.3001218">
<ele>2378</ele>
<time>2015-05-27T11:48:47Z</time>
</trkpt>
<trkpt lat="37.0425753" lon="-5.3004594">
<ele>2397</ele>
<time>2015-05-27T11:49:00Z</time>
</trkpt>
<trkpt lat="37.0432409" lon="-5.3008904">
<ele>2422</ele>
<time>2015-05-27T11:49:13Z</time>
</trkpt>
<trkpt lat="37.0424181" lon="-5.3009969">
<ele>2440</ele>
<time>2015-05-27T11:49:26Z</time>
</trkpt>
<trkpt lat="37.0432659" lon="-5.3011667">
<ele>2470</ele>
<time>2015-05-27T11:49:41Z</time>
</trkpt>
<trkpt lat="37.0431116" lon="-5.3022746">
<ele>2484</ele>
<time>2015-05-27T11:49:49Z</time>
</trkpt>
<trkpt lat="37.0428803" lon="-5.3017007">
<ele>2507</ele>
<time>2015-05-27T11:50:05Z</time>
</trkpt>
<trkpt lat="37.0432187" lon="-5.3026275">
<ele>2521</ele>
<time>2015-05-27T11:50:14Z</time>
</trkpt>
<trkpt lat="37.0423848" lon="-5.3028254">
<ele>2540</ele>
<time>2015-05-27T11:50:25Z</time>
</trkpt>
<trkpt lat="37.0428749" lon="-5.3021754">
<ele>2557</ele>
<time>2015-05-27T11:50:37Z</time>
</trkpt>
<trkpt lat="37.043089" lon="-5.3034849">
<ele>2576</ele>
<time>2015-05-27T11:50:47Z</time>
</trkpt>
<trkpt lat="37.0422428" lon="-5.3031654">
<ele>2592</ele>
<time>2015-05-27T11:51:00Z</time>
</trkpt>
<trkpt lat="37.0430655" lon="-5.3029677">
<ele>2609</ele>
<time>2015-05-27T11:51:13Z</time>
</trkpt>
<trkpt lat="37.0428006" lon="-5.3040814">
<ele>2628</ele>
<time>2015-05-27T11:51:23Z</time>
</trkpt>
<trkpt lat="37.0421835" lon="-5.3032804">
<ele>2644</ele>
<time>2015-05-27T11:51:37Z</time>
</trkpt>
<trkpt lat="37.0428041" lon="-5.3028416">
<ele>2648</ele>
<time>2015-05-27T11:51:47Z</time>
</trkpt>
<trkpt lat="37.0433674" lon="-5.3036231">
<ele>2650</ele>
<time>2015-05-27T11:51:55Z</time>
</trkpt>
<trkpt lat="37.0427" lon="-5.3045524">
<ele>2663</ele>
<time>2015-05-27T11:52:05Z</time>
</trkpt>
<trkpt lat="37.0422996" lon="-5.3036574">
<ele>2678</ele>
<time>2015-05-27T11:52:20Z</time>
</trkpt>
<trkpt lat="37.0431629" lon="-5.3034638">
<ele>2684</ele>
<time>2015-05-27T11:52:29Z</time>
</trkpt>
<trkpt lat="37.0435374" lon="-5.3048318">
<ele>2671</ele>
<time>2015-05-27T11:52:40Z</time>
</trkpt>
<trkpt lat="37.0428785" lon="-5.3040505">
<ele>2688</ele>
<time>2015-05-27T11:52:54Z</time>
</trkpt>
<trkpt lat="37.0439627" lon="-5.3039608">
<ele>2681</ele>
<time>2015-05-27T11:53:05Z</time>
</trkpt>
<trkpt lat="37.0446839" lon="-5.3047763">
<ele>2672</ele>
<time>2015-05-27T11:53:13Z</time>
</trkpt>
<trkpt lat="37.0436151" lon="-5.3045559">
<ele>2673</ele>
<time>2015-05-27T11:52:38Z</time>
</trkpt>
<trkpt lat="37.042799" lon="-5.3044973">
<ele>2683</ele>
<time>2015-05-27T11:52:50Z</time>
</trkpt>
<trkpt lat="37.0437319" lon="-5.3038554">
<ele>2684</ele>
<time>2015-05-27T11:53:03Z</time>
</trkpt>
<trkpt lat="37.0445425" lon="-5.3045285">
<ele>2676</ele>
<time>2015-05-27T11:53:11Z</time>
</trkpt>
<trkpt lat="37.0448781" lon="-5.3056463">
<ele>2674</ele>
<time>2015-05-27T11:53:19Z</time>
</trkpt>
<trkpt lat="37.0441563" lon="-5.3056416">
<ele>2672</ele>
<time>2015-05-27T11:53:33Z</time>
</trkpt>
<trkpt lat="37.0444654" lon="-5.3046887">
<ele>2661</ele>
<time>2015-05-27T11:53:42Z</time>
</trkpt>
<trkpt lat="37.0453656" lon="-5.3039612">
<ele>2657</ele>
<time>2015-05-27T11:53:52Z</time>
</trkpt>
<trkpt lat="37.0467015" lon="-5.3034426">
<ele>2659</ele>
<time>2015-05-27T11:54:05Z</time>
</trkpt>
<trkpt lat="37.0476092" lon="-5.3033064">
<ele>2661</ele>
<time>2015-05-27T11:54:13Z</time>
</trkpt>
<trkpt lat="37.0485162" lon="-5.3034916">
<ele>2664</ele>
<time>2015-05-27T11:54:21Z</time>
</trkpt>
<trkpt lat="37.0485357" lon="-5.3047243">
<ele>2665</ele>
<time>2015-05-27T11:54:30Z</time>
</trkpt>
<trkpt lat="37.0484944" lon="-5.3039105">
<ele>2665</ele>
<time>2015-05-27T11:54:44Z</time>
</trkpt>
<trkpt lat="37.049587" lon="-5.3035129">
<ele>2680</ele>
<time>2015-05-27T11:54:55Z</time>
</trkpt>
<trkpt lat="37.0499376" lon="-5.3029954">
<ele>2719</ele>
<time>2015-05-27T11:55:10Z</time>
</trkpt>
<trkpt lat="37.0506134" lon="-5.3039698">
<ele>2737</ele>
<time>2015-05-27T11:55:19Z</time>
</trkpt>
<trkpt lat="37.0509146" lon="-5.3032815">
<ele>2772</ele>
<time>2015-05-27T11:55:33Z</time>
</trkpt>
<trkpt lat="37.0515823" lon="-5.3042015">
<ele>2791</ele>
<time>2015-05-27T11:55:42Z</time>
</trkpt>
<trkpt lat="37.0524266" lon="-5.3034884">
<ele>2809</ele>
<time>2015-05-27T11:55:53Z</time>
</trkpt>
<trkpt lat="37.0524239" lon="-5.3043722">
<ele>2819</ele>
<time>2015-05-27T11:56:06Z</time>
</trkpt>
<trkpt lat="37.0534948" lon="-5.3042532">
<ele>2829</ele>
<time>2015-05-27T11:56:16Z</time>
</trkpt>
<trkpt lat="37.0531497" lon="-5.303408">
<ele>2830</ele>
<time>2015-05-27T11:56:31Z</time>
</trkpt>
<trkpt lat="37.0532733" lon="-5.3045427">
<ele>2835</ele>
<time>2015-05-27T11:56:41Z</time>
</trkpt>
<trkpt lat="37.0542809" lon="-5.3045864">
<ele>2839</ele>
<time>2015-05-27T11:56:51Z</time>
</trkpt>
<trkpt lat="37.054938" lon="-5.3035985">
<ele>2832</ele>
<time>2015-05-27T11:57:03Z</time>
</trkpt>
<trkpt lat="37.0544308" lon="-5.3024824">
<ele>2820</ele>
<time>2015-05-27T11:57:19Z</time>
</trkpt>
<trkpt lat="37.0532687" lon="-5.3030419">
<ele>2812</ele>
<time>2015-05-27T11:57:33Z</time>
</trkpt>
<trkpt lat="37.0525709" lon="-5.3035411">
<ele>2817</ele>
<time>2015-05-27T11:57:47Z</time>
</trkpt>
<trkpt lat="37.0534822" lon="-5.3036741">
<ele>2814</ele>
<time>2015-05-27T11:57:58Z</time>
</trkpt>
<trkpt lat="37.053194" lon="-5.3050624">
<ele>2809</ele>
<time>2015-05-27T11:58:08Z</time>
</trkpt>
<trkpt lat="37.053025" lon="-5.3041331">
<ele>2808</ele>
<time>2015-05-27T11:58:26Z</time>
</trkpt>
<trkpt lat="37.0539134" lon="-5.3030826">
<ele>2785</ele>
<time>2015-05-27T11:58:41Z</time>
</trkpt>
<trkpt lat="37.0546035" lon="-5.3027362">
<ele>2775</ele>
<time>2015-05-27T11:58:49Z</time>
</trkpt>
<trkpt lat="37.0555617" lon="-5.3021097">
<ele>2781</ele>
<time>2015-05-27T11:59:03Z</time>
</trkpt>
<trkpt lat="37.0563953" lon="-5.3013089">
<ele>2784</ele>
<time>2015-05-27T11:59:20Z</time>
</trkpt>
<trkpt lat="37.0570078" lon="-5.3006416">
<ele>2780</ele>
<time>2015-05-27T11:59:30Z</time>
</trkpt>
<trkpt lat="37.0580716" lon="-5.2994766">
<ele>2770</ele>
<time>2015-05-27T11:59:46Z</time>
</trkpt>
<trkpt lat="37.0588748" lon="-5.2983031">
<ele>2748</ele>
<time>2015-05-27T12:00:02Z</time>
</trkpt>
<trkpt lat="37.0596171" lon="-5.2975963">
<ele>2737</ele>
<time>2015-05-27T12:00:12Z</time>
</trkpt>
<trkpt lat="37.0606298" lon="-5.2969913">
<ele>2714</ele>
<time>2015-05-27T12:00:23Z</time>
</trkpt>
<trkpt lat="37.0614423" lon="-5.2964649">
<ele>2704</ele>
<time>2015-05-27T12:00:31Z</time>
</trkpt>
<trkpt lat="37.0624957" lon="-5.2955691">
<ele>2717</ele>
<time>2015-05-27T12:00:44Z</time>
</trkpt>
<trkpt lat="37.0629631" lon="-5.2947034">
<ele>2722</ele>
<time>2015-05-27T12:00:54Z</time>
</trkpt>
<trkpt lat="37.0586123" lon="-5.2985835">
<ele>2755</ele>
<time>2015-05-27T11:59:58Z</time>
</trkpt>
<trkpt lat="37.0593203" lon="-5.2978571">
<ele>2737</ele>
<time>2015-05-27T12:00:08Z</time>
</trkpt>
<trkpt lat="37.0602609" lon="-5.2972482">
<ele>2724</ele>
<time>2015-05-27T12:00:19Z</time>
</trkpt>
<trkpt lat="37.0611977" lon="-5.2966074">
<ele>2709</ele>
<time>2015-05-27T12:00:29Z</time>
</trkpt>
<trkpt lat="37.0622245" lon="-5.2958195">
<ele>2716</ele>
<time>2015-05-27T12:00:40Z</time>
</trkpt>
<trkpt lat="37.0628685" lon="-5.2948938">
<ele>2723</ele>
<time>2015-05-27T12:00:52Z</time>
</trkpt>
<trkpt lat="37.0634138" lon="-5.293927">
<ele>2718</ele>
<time>2015-05-27T12:01:02Z</time>
</trkpt>
<trkpt lat="37.06425" lon="-5.2929592">
<ele>2720</ele>
<time>2015-05-27T12:01:13Z</time>
</trkpt>
<trkpt lat="37.0650179" lon="-5.2918859">
<ele>2718</ele>
<time>2015-05-27T12:01:24Z</time>
</trkpt>
<trkpt lat="37.0656074" lon="-5.2909125">
<ele>2723</ele>
<time>2015-05-27T12:01:34Z</time>
</trkpt>
<trkpt lat="37.0660938" lon="-5.2900048">
<ele>2727</ele>
<time>2015-05-27T12:01:44Z</time>
</trkpt>
<trkpt lat="37.0666402" lon="-5.2889524">
<ele>2725</ele>
<time>2015-05-27T12:01:55Z</time>
</trkpt>
<trkpt lat="37.0671012" lon="-5.2880884">
<ele>2732</ele>
<time>2015-05-27T12:02:05Z</time>
</trkpt>
<trkpt lat="37.0663423" lon="-5.2875573">
<ele>2742</ele>
<time>2015-05-27T12:02:22Z</time>
</trkpt>
<trkpt lat="37.0665753" lon="-5.2887174">
<ele>2753</ele>
<time>2015-05-27T12:02:31Z</time>
</trkpt>
<trkpt lat="37.0673282" lon="-5.2879774">
<ele>2758</ele>
<time>2015-05-27T12:02:44Z</time>
</trkpt>
<trkpt lat="37.0667731" lon="-5.288471">
<ele>2776</ele>
<time>2015-05-27T12:02:59Z</time>
</trkpt>
<trkpt lat="37.0675435" lon="-5.2884929">
<ele>2787</ele>
<time>2015-05-27T12:03:09Z</time>
</trkpt>
<trkpt lat="37.0671313" lon="-5.2890266">
<ele>2801</ele>
<time>2015-05-27T12:03:23Z</time>
</trkpt>
<trkpt lat="37.0681266" lon="-5.28899">
<ele>2814</ele>
<time>2015-05-27T12:03:36Z</time>
</trkpt>
<trkpt lat="37.0676174" lon="-5.2889805">
<ele>2823</ele>
<time>2015-05-27T12:03:50Z</time>
</trkpt>
<trkpt lat="37.0682125" lon="-5.2898085">
<ele>2829</ele>
<time>2015-05-27T12:03:58Z</time>
</trkpt>
<trkpt lat="37.0687806" lon="-5.2890786">
<ele>2839</ele>
<time>2015-05-27T12:04:12Z</time>
</trkpt>
<trkpt lat="37.0686687" lon="-5.2901835">
<ele>2846</ele>
<time>2015-05-27T12:04:21Z</time>
</trkpt>
<trkpt lat="37.0696178" lon="-5.2904543">
<ele>2852</ele>
<time>2015-05-27T12:04:30Z</time>
</trkpt>
<trkpt lat="37.0693235" lon="-5.2902573">
<ele>2858</ele>
<time>2015-05-27T12:04:44Z</time>
</trkpt>
<trkpt lat="37.0699925" lon="-5.2910308">
<ele>2865</ele>
<time>2015-05-27T12:04:52Z</time>
</trkpt>
<trkpt lat="37.0700094" lon="-5.2905851">
<ele>2866</ele>
<time>2015-05-27T12:05:08Z</time>
</trkpt>
<trkpt lat="37.0705673" lon="-5.2915997">
<ele>2869</ele>
<time>2015-05-27T12:05:17Z</time>
</trkpt>
<trkpt lat="37.0718092" lon="-5.2918144">
<ele>2871</ele>
<time>2015-05-27T12:05:27Z</time>
</trkpt>
<trkpt lat="37.0729458" lon="-5.2921201">
<ele>2873</ele>
<time>2015-05-27T12:05:36Z</time>
</trkpt>
<trkpt lat="37.0741052" lon="-5.2922722">
<ele>2867</ele>
<time>2015-05-27T12:05:46Z</time>
</trkpt>
<trkpt lat="37.0753265" lon="-5.2923704">
<ele>2863</ele>
<time>2015-05-27T12:05:56Z</time>
</trkpt>
<trkpt lat="37.0763023" lon="-5.292411">
<ele>2856</ele>
<time>2015-05-27T12:06:04Z</time>
</trkpt>
<trkpt lat="37.0774325" lon="-5.2923634">
<ele>2854</ele>
<time>2015-05-27T12:06:13Z</time>
</trkpt>
<trkpt lat="37.0793385" lon="-5.2919076">
<ele>2844</ele>
<time>2015-05-27T12:06:30Z</time>
</trkpt>
<trkpt lat="37.0804711" lon="-5.2916745">
<ele>2838</ele>
<time>2015-05-27T12:06:40Z</time>
</trkpt>
<trkpt lat="37.0814954" lon="-5.2915057">
<ele>2834</ele>
<time>2015-05-27T12:06:49Z</time>
</trkpt>
<trkpt lat="37.0823545" lon="-5.2912485">
<ele>2830</ele>
<time>2015-05-27T12:06:57Z</time>
</trkpt>
<trkpt lat="37.0833101" lon="-5.2909751">
<ele>2824</ele>
<time>2015-05-27T12:07:06Z</time>
</trkpt>
<trkpt lat="37.0841853" lon="-5.2907609">
<ele>2821</ele>
<time>2015-05-27T12:07:14Z</time>
</trkpt>
<trkpt lat="37.0853467" lon="-5.2904574">
<ele>2807</ele>
<time>2015-05-27T12:07:25Z</time>
</trkpt>
<trkpt lat="37.0862305" lon="-5.2901803">
<ele>2798</ele>
<time>2015-05-27T12:07:33Z</time>
</trkpt>
<trkpt lat="37.0872566" lon="-5.2897363">
<ele>2786</ele>
<time>2015-05-27T12:07:43Z</time>
</trkpt>
<trkpt lat="37.0882741" lon="-5.2890046">
<ele>2766</ele>
<time>2015-05-27T12:07:55Z</time>
</trkpt>
<trkpt lat="37.0893764" lon="-5.2879776">
<ele>2745</ele>
<time>2015-05-27T12:08:09Z</time>
</trkpt>
<trkpt lat="37.0906265" lon="-5.2869619">
<ele>2725</ele>
<time>2015-05-27T12:08:24Z</time>
</trkpt>
<trkpt lat="37.091838" lon="-5.2856848">
<ele>2710</ele>
<time>2015-05-27T12:08:40Z</time>
</trkpt>
<trkpt lat="37.0928222" lon="-5.2843505">
<ele>2685</ele>
<time>2015-05-27T12:08:54Z</time>
</trkpt>
<trkpt lat="37.0935267" lon="-5.2828783">
<ele>2685</ele>
<time>2015-05-27T12:09:09Z</time>
</trkpt>
<trkpt lat="37.0928529" lon="-5.2831559">
<ele>2687</ele>
<time>2015-05-27T12:09:22Z</time>
</trkpt>
<trkpt lat="37.0932432" lon="-5.2842829">
<ele>2687</ele>
<time>2015-05-27T12:09:32Z</time>
</trkpt>
<trkpt lat="37.0941546" lon="-5.2843296">
<ele>2695</ele>
<time>2015-05-27T12:09:41Z</time>
</trkpt>
<trkpt lat="37.0949604" lon="-5.2838964">
<ele>2703</ele>
<time>2015-05-27T12:09:53Z</time>
</trkpt>
<trkpt lat="37.095714" lon="-5.2841849">
<ele>2708</ele>
<time>2015-05-27T12:10:02Z</time>
</trkpt>
<trkpt lat="37.0951189" lon="-5.2848137">
<ele>2721</ele>
<time>2015-05-27T12:10:13Z</time>
</trkpt>
<trkpt lat="37.0959351" lon="-5.2851513">
<ele>2727</ele>
<time>2015-05-27T12:10:26Z</time>
</trkpt>
<trkpt lat="37.0955574" lon="-5.2850674">
<ele>2741</ele>
<time>2015-05-27T12:10:39Z</time>
</trkpt>
<trkpt lat="37.09652" lon="-5.2854129">
<ele>2745</ele>
<time>2015-05-27T12:10:52Z</time>
</trkpt>
<trkpt lat="37.0954775" lon="-5.2856107">
<ele>2754</ele>
<time>2015-05-27T12:11:06Z</time>
</trkpt>
<trkpt lat="37.0957574" lon="-5.2840475">
<ele>2759</ele>
<time>2015-05-27T12:11:22Z</time>
</trkpt>
<trkpt lat="37.096545" lon="-5.2830415">
<ele>2743</ele>
<time>2015-05-27T12:11:37Z</time>
</trkpt>
<trkpt lat="37.0972672" lon="-5.2825273">
<ele>2715</ele>
<time>2015-05-27T12:11:49Z</time>
</trkpt>
<trkpt lat="37.0978912" lon="-5.2819558">
<ele>2696</ele>
<time>2015-05-27T12:12:00Z</time>
</trkpt>
<trkpt lat="37.0989022" lon="-5.2813862">
<ele>2676</ele>
<time>2015-05-27T12:12:16Z</time>
</trkpt>
<trkpt lat="37.0993548" lon="-5.2804631">
<ele>2697</ele>
<time>2015-05-27T12:12:31Z</time>
</trkpt>
<trkpt lat="37.098872" lon="-5.2804201">
<ele>2720</ele>
<time>2015-05-27T12:12:46Z</time>
</trkpt>
<trkpt lat="37.0994391" lon="-5.2811873">
<ele>2722</ele>
<time>2015-05-27T12:12:54Z</time>
</trkpt>
<trkpt lat="37.1002874" lon="-5.2804969">
<ele>2739</ele>
<time>2015-05-27T12:13:10Z</time>
</trkpt>
<trkpt lat="37.0996545" lon="-5.2811388">
<ele>2737</ele>
<time>2015-05-27T12:13:20Z</time>
</trkpt>
<trkpt lat="37.100413" lon="-5.2818714">
<ele>2745</ele>
<time>2015-05-27T12:13:28Z</time>
</trkpt>
<trkpt lat="37.101733" lon="-5.2824068">
<ele>2733</ele>
<time>2015-05-27T12:13:42Z</time>
</trkpt>
<trkpt lat="37.1029435" lon="-5.2829374">
<ele>2713</ele>
<time>2015-05-27T12:13:56Z</time>
</trkpt>
<trkpt lat="37.1040741" lon="-5.2823857">
<ele>2718</ele>
<time>2015-05-27T12:14:13Z</time>
</trkpt>
<trkpt lat="37.1048643" lon="-5.281828">
<ele>2751</ele>
<time>2015-05-27T12:14:25Z</time>
</trkpt>
<trkpt lat="37.1061641" lon="-5.2817511">
<ele>2805</ele>
<time>2015-05-27T12:14:40Z</time>
</trkpt>
<trkpt lat="37.1077673" lon="-5.2822601">
<ele>2855</ele>
<time>2015-05-27T12:14:58Z</time>
</trkpt>
<trkpt lat="37.1092992" lon="-5.2823644">
<ele>2881</ele>
<time>2015-05-27T12:15:11Z</time>
</trkpt>
<trkpt lat="37.1104347" lon="-5.2821501">
<ele>2877</ele>
<time>2015-05-27T12:15:21Z</time>
</trkpt>
<trkpt lat="37.1116095" lon="-5.2813632">
<ele>2886</ele>
<time>2015-05-27T12:15:33Z</time>
</trkpt>
<trkpt lat="37.112418" lon="-5.2806386">
<ele>2914</ele>
<time>2015-05-27T12:15:51Z</time>
</trkpt>
<trkpt lat="37.1132348" lon="-5.2801098">
<ele>2952</ele>
<time>2015-05-27T12:16:08Z</time>
</trkpt>
<trkpt lat="37.1141439" lon="-5.2796839">
<ele>2984</ele>
<time>2015-05-27T12:16:24Z</time>
</trkpt>
<trkpt lat="37.1153411" lon="-5.2790304">
<ele>3011</ele>
<time>2015-05-27T12:16:40Z</time>
</trkpt>
<trkpt lat="37.1167659" lon="-5.2787383">
<ele>3006</ele>
<time>2015-05-27T12:16:56Z</time>
</trkpt>
<trkpt lat="37.1177199" lon="-5.2774326">
<ele>2987</ele>
<time>2015-05-27T12:17:12Z</time>
</trkpt>
<trkpt lat="37.11841" lon="-5.2762904">
<ele>2986</ele>
<time>2015-05-27T12:17:22Z</time>
</trkpt>
<trkpt lat="37.1195577" lon="-5.275706">
<ele>2990</ele>
<time>2015-05-27T12:17:33Z</time>
</trkpt>
<trkpt lat="37.1206811" lon="-5.27557">
<ele>2993</ele>
<time>2015-05-27T12:17:41Z</time>
</trkpt>
<trkpt lat="37.1218213" lon="-5.2755218">
<ele>2998</ele>
<time>2015-05-27T12:17:49Z</time>
</trkpt>
<trkpt lat="37.1234889" lon="-5.275133">
<ele>2984</ele>
<time>2015-05-27T12:18:03Z</time>
</trkpt>
<trkpt lat="37.1246134" lon="-5.2745726">
<ele>2971</ele>
<time>2015-05-27T12:18:15Z</time>
</trkpt>
<trkpt lat="37.1258254" lon="-5.2736728">
<ele>2943</ele>
<time>2015-05-27T12:18:28Z</time>
</trkpt>
<trkpt lat="37.12671" lon="-5.2730856">
<ele>2931</ele>
<time>2015-05-27T12:18:36Z</time>
</trkpt>
<trkpt lat="37.1274879" lon="-5.2724408">
<ele>2910</ele>
<time>2015-05-27T12:18:44Z</time>
</trkpt>
<trkpt lat="37.1286892" lon="-5.2713271">
<ele>2875</ele>
<time>2015-05-27T12:18:59Z</time>
</trkpt>
<trkpt lat="37.1294127" lon="-5.2706867">
<ele>2863</ele>
<time>2015-05-27T12:19:07Z</time>
</trkpt>
<trkpt lat="37.1302486" lon="-5.2698237">
<ele>2847</ele>
<time>2015-05-27T12:19:17Z</time>
</trkpt>
<trkpt lat="37.131727" lon="-5.2683519">
<ele>2828</ele>
<time>2015-05-27T12:19:36Z</time>
</trkpt>
<trkpt lat="37.1331493" lon="-5.267386">
<ele>2803</ele>
<time>2015-05-27T12:19:52Z</time>
</trkpt>
<trkpt lat="37.1345066" lon="-5.2664456">
<ele>2777</ele>
<time>2015-05-27T12:20:07Z</time>
</trkpt>
<trkpt lat="37.1357321" lon="-5.2653057">
<ele>2755</ele>
<time>2015-05-27T12:20:22Z</time>
</trkpt>
<trkpt lat="37.1371055" lon="-5.2641524">
<ele>2735</ele>
<time>2015-05-27T12:20:38Z</time>
</trkpt>
<trkpt lat="37.1382302" lon="-5.263357">
<ele>2719</ele>
<time>2015-05-27T12:20:50Z</time>
</trkpt>
<trkpt lat="37.1394685" lon="-5.2624535">
<ele>2697</ele>
<time>2015-05-27T12:21:04Z</time>
</trkpt>
<trkpt lat="37.14086" lon="-5.2616698">
<ele>2668</ele>
<time>2015-05-27T12:21:19Z</time>
</trkpt>
<trkpt lat="37.1419682" lon="-5.2609141">
<ele>2647</ele>
<time>2015-05-27T12:21:31Z</time>
</trkpt>
<trkpt lat="37.143218" lon="-5.2597111">
<ele>2622</ele>
<time>2015-05-27T12:21:47Z</time>
</trkpt>
<trkpt lat="37.144613" lon="-5.2587917">
<ele>2614</ele>
<time>2015-05-27T12:22:03Z</time>
</trkpt>
<trkpt lat="37.1457703" lon="-5.2577537">
<ele>2603</ele>
<time>2015-05-27T12:22:21Z</time>
</trkpt>
<trkpt lat="37.1465783" lon="-5.2567937">
<ele>2602</ele>
<time>2015-05-27T12:22:37Z</time>
</trkpt>
<trkpt lat="37.1477941" lon="-5.2559681">
<ele>2596</ele>
<time>2015-05-27T12:22:54Z</time>
</trkpt>
<trkpt lat="37.1483169" lon="-5.2547013">
<ele>2591</ele>
<time>2015-05-27T12:23:12Z</time>
</trkpt>
<trkpt lat="37.1488725" lon="-5.2533444">
<ele>2533</ele>
<time>2015-05-27T12:23:33Z</time>
</trkpt>
<trkpt lat="37.1498431" lon="-5.2523784">
<ele>2491</ele>
<time>2015-05-27T12:23:51Z</time>
</trkpt>
<trkpt lat="37.1511214" lon="-5.2512983">
<ele>2456</ele>
<time>2015-05-27T12:24:07Z</time>
</trkpt>
<trkpt lat="37.1520033" lon="-5.2502949">
<ele>2449</ele>
<time>2015-05-27T12:24:20Z</time>
</trkpt>
<trkpt lat="37.152489" lon="-5.2487725">
<ele>2462</ele>
<time>2015-05-27T12:24:38Z</time>
</trkpt>
<trkpt lat="37.1529814" lon="-5.2493606">
<ele>2457</ele>
<time>2015-05-27T12:24:51Z</time>
</trkpt>
<trkpt lat="37.1519076" lon="-5.2487689">
<ele>2471</ele>
<time>2015-05-27T12:25:07Z</time>
</trkpt>
<trkpt lat="37.1526784" lon="-5.2486317">
<ele>2486</ele>
<time>2015-05-27T12:25:22Z</time>
</trkpt>
<trkpt lat="37.1518407" lon="-5.2487663">
<ele>2495</ele>
<time>2015-05-27T12:25:34Z</time>
</trkpt>
<trkpt lat="37.1521278" lon="-5.248079">
<ele>2516</ele>
<time>2015-05-27T12:25:50Z</time>
</trkpt>
<trkpt lat="37.1516806" lon="-5.2489869">
<ele>2522</ele>
<time>2015-05-27T12:26:00Z</time>
</trkpt>
<trkpt lat="37.1512172" lon="-5.2481574">
<ele>2546</ele>
<time>2015-05-27T12:26:16Z</time>
</trkpt>
<trkpt lat="37.1506817" lon="-5.2489508">
<ele>2560</ele>
<time>2015-05-27T12:26:28Z</time>
</trkpt>
<trkpt lat="37.1509496" lon="-5.2493269">
<ele>2578</ele>
<time>2015-05-27T12:26:44Z</time>
</trkpt>
<trkpt lat="37.1500523" lon="-5.2487775">
<ele>2593</ele>
<time>2015-05-27T12:26:58Z</time>
</trkpt>
<trkpt lat="37.1508607" lon="-5.2481844">
<ele>2614</ele>
<time>2015-05-27T12:27:16Z</time>
</trkpt>
<trkpt lat="37.1504613" lon="-5.2492837">
<ele>2627</ele>
<time>2015-05-27T12:27:27Z</time>
</trkpt>
<trkpt lat="37.1503975" lon="-5.2482177">
<ele>2640</ele>
<time>2015-05-27T12:27:45Z</time>
</trkpt>
<trkpt lat="37.1500449" lon="-5.2492978">
<ele>2652</ele>
<time>2015-05-27T12:27:58Z</time>
</trkpt>
<trkpt lat="37.1503199" lon="-5.2487239">
<ele>2664</ele>
<time>2015-05-27T12:28:14Z</time>
</trkpt>
<trkpt lat="37.1497882" lon="-5.2485255">
<ele>2678</ele>
<time>2015-05-27T12:28:31Z</time>
</trkpt>
<trkpt lat="37.1508851" lon="-5.2480802">
<ele>2686</ele>
<time>2015-05-27T12:28:47Z</time>
</trkpt>
<trkpt lat="37.1519769" lon="-5.2477633">
<ele>2713</ele>
<time>2015-05-27T12:29:03Z</time>
</trkpt>
<trkpt lat="37.153139" lon="-5.2469125">
<ele>2742</ele>
<time>2015-05-27T12:29:20Z</time>
</trkpt>
<trkpt lat="37.1539625" lon="-5.2460464">
<ele>2758</ele>
<time>2015-05-27T12:29:34Z</time>
</trkpt>
<trkpt lat="37.1549523" lon="-5.2452091">
<ele>2763</ele>
<time>2015-05-27T12:29:51Z</time>
</trkpt>
<trkpt lat="37.1560189" lon="-5.2442547">
<ele>2755</ele>
<time>2015-05-27T12:30:09Z</time>
</trkpt>
<trkpt lat="37.1572626" lon="-5.2428331">
<ele>2740</ele>
<time>2015-05-27T12:30:34Z</time>
</trkpt>
<trkpt lat="37.158313" lon="-5.2417493">
<ele>2739</ele>
<time>2015-05-27T12:30:52Z</time>
</trkpt>
<trkpt lat="37.1592303" lon="-5.240444">
<ele>2733</ele>
<time>2015-05-27T12:31:10Z</time>
</trkpt>
<trkpt lat="37.159897" lon="-5.2390261">
<ele>2723</ele>
<time>2015-05-27T12:31:28Z</time>
</trkpt>
<trkpt lat="37.1605145" lon="-5.2376888">
<ele>2687</ele>
<time>2015-05-27T12:31:44Z</time>
</trkpt>
<trkpt lat="37.1613658" lon="-5.2366242">
<ele>2645</ele>
<time>2015-05-27T12:32:02Z</time>
</trkpt>
<trkpt lat="37.1616303" lon="-5.2351199">
<ele>2588</ele>
<time>2015-05-27T12:32:26Z</time>
</trkpt>
<trkpt lat="37.161749" lon="-5.2336685">
<ele>2574</ele>
<time>2015-05-27T12:32:43Z</time>
</trkpt>
<trkpt lat="37.1611419" lon="-5.2323184">
<ele>2565</ele>
<time>2015-05-27T12:32:59Z</time>
</trkpt>
<trkpt lat="37.160682" lon="-5.2310629">
<ele>2556</ele>
<time>2015-05-27T12:33:18Z</time>
</trkpt>
<trkpt lat="37.1610708" lon="-5.2297883">
<ele>2529</ele>
<time>2015-05-27T12:33:34Z</time>
</trkpt>
<trkpt lat="37.1614502" lon="-5.2282798">
<ele>2504</ele>
<time>2015-05-27T12:33:51Z</time>
</trkpt>
<trkpt lat="37.1619406" lon="-5.2268473">
<ele>2481</ele>
<time>2015-05-27T12:34:07Z</time>
</trkpt>
<trkpt lat="37.1627214" lon="-5.2255111">
<ele>2460</ele>
<time>2015-05-27T12:34:23Z</time>
</trkpt>
<trkpt lat="37.1637047" lon="-5.2244593">
<ele>2434</ele>
<time>2015-05-27T12:34:39Z</time>
</trkpt>
<trkpt lat="37.1650467" lon="-5.2235516">
<ele>2410</ele>
<time>2015-05-27T12:34:55Z</time>
</trkpt>
<trkpt lat="37.1660262" lon="-5.2227754">
<ele>2385</ele>
<time>2015-05-27T12:35:08Z</time>
</trkpt>
<trkpt lat="37.1666871" lon="-5.2222923">
<ele>2367</ele>
<time>2015-05-27T12:35:17Z</time>
</trkpt>
<trkpt lat="37.1674006" lon="-5.2219651">
<ele>2362</ele>
<time>2015-05-27T12:35:25Z</time>
</trkpt>
<trkpt lat="37.1681118" lon="-5.2215677">
<ele>2343</ele>
<time>2015-05-27T12:35:35Z</time>
</trkpt>
<trkpt lat="37.168691" lon="-5.2212622">
<ele>2329</ele>
<time>2015-05-27T12:35:43Z</time>
</trkpt>
<trkpt lat="37.1694226" lon="-5.2206165">
<ele>2315</ele>
<time>2015-05-27T12:35:56Z</time>
</trkpt>
<trkpt lat="37.1696784" lon="-5.2194846">
<ele>2298</ele>
<time>2015-05-27T12:36:13Z</time>
</trkpt>
<trkpt lat="37.1701215" lon="-5.2183589">
<ele>2287</ele>
<time>2015-05-27T12:36:27Z</time>
</trkpt>
<trkpt lat="37.1706107" lon="-5.2172062">
<ele>2275</ele>
<time>2015-05-27T12:36:42Z</time>
</trkpt>
<trkpt lat="37.1710678" lon="-5.2163808">
<ele>2262</ele>
<time>2015-05-27T12:36:53Z</time>
</trkpt>
<trkpt lat="37.1715775" lon="-5.2155123">
<ele>2249</ele>
<time>2015-05-27T12:37:06Z</time>
</trkpt>
<trkpt lat="37.1720499" lon="-5.2147385">
<ele>2262</ele>
<time>2015-05-27T12:37:24Z</time>
</trkpt>
<trkpt lat="37.1716799" lon="-5.2159774">
<ele>2274</ele>
<time>2015-05-27T12:37:34Z</time>
</trkpt>
<trkpt lat="37.1716917" lon="-5.2161506">
<ele>2288</ele>
<time>2015-05-27T12:37:52Z</time>
</trkpt>
<trkpt lat="37.1707884" lon="-5.2164605">
<ele>2299</ele>
<time>2015-05-27T12:38:05Z</time>
</trkpt>
<trkpt lat="37.170698" lon="-5.21742">
<ele>2305</ele>
<time>2015-05-27T12:38:20Z</time>
</trkpt>
<trkpt lat="37.1698775" lon="-5.2168607">
<ele>2313</ele>
<time>2015-05-27T12:38:34Z</time>
</trkpt>
<trkpt lat="37.1705242" lon="-5.2175638">
<ele>2324</ele>
<time>2015-05-27T12:38:50Z</time>
</trkpt>
<trkpt lat="37.169426" lon="-5.2178509">
<ele>2330</ele>
<time>2015-05-27T12:39:01Z</time>
</trkpt>
<trkpt lat="37.1693854" lon="-5.2166169">
<ele>2339</ele>
<time>2015-05-27T12:39:19Z</time>
</trkpt>
<trkpt lat="37.170011" lon="-5.2164528">
<ele>2332</ele>
<time>2015-05-27T12:39:35Z</time>
</trkpt>
<trkpt lat="37.1691759" lon="-5.2175822">
<ele>2319</ele>
<time>2015-05-27T12:39:47Z</time>
</trkpt>
<trkpt lat="37.1685019" lon="-5.2163551">
<ele>2318</ele>
<time>2015-05-27T12:40:02Z</time>
</trkpt>
<trkpt lat="37.1684233" lon="-5.214783">
<ele>2307</ele>
<time>2015-05-27T12:40:20Z</time>
</trkpt>
<trkpt lat="37.1685679" lon="-5.2133099">
<ele>2299</ele>
<time>2015-05-27T12:40:37Z</time>
</trkpt>
<trkpt lat="37.1689473" lon="-5.2114106">
<ele>2295</ele>
<time>2015-05-27T12:41:00Z</time>
</trkpt>
<trkpt lat="37.1691041" lon="-5.2098905">
<ele>2302</ele>
<time>2015-05-27T12:41:17Z</time>
</trkpt>
<trkpt lat="37.16818" lon="-5.210447">
<ele>2322</ele>
<time>2015-05-27T12:41:33Z</time>
</trkpt>
<trkpt lat="37.1692756" lon="-5.2107453">
<ele>2330</ele>
<time>2015-05-27T12:41:51Z</time>
</trkpt>
<trkpt lat="37.1690778" lon="-5.2093892">
<ele>2335</ele>
<time>2015-05-27T12:42:10Z</time>
</trkpt>
<trkpt lat="37.1689853" lon="-5.2080828">
<ele>2341</ele>
<time>2015-05-27T12:42:25Z</time>
</trkpt>
<trkpt lat="37.1682534" lon="-5.2081864">
<ele>2341</ele>
<time>2015-05-27T12:42:33Z</time>
</trkpt>
<trkpt lat="37.1691611" lon="-5.2088171">
<ele>2354</ele>
<time>2015-05-27T12:42:51Z</time>
</trkpt>
<trkpt lat="37.1681652" lon="-5.2088497">
<ele>2347</ele>
<time>2015-05-27T12:43:03Z</time>
</trkpt>
<trkpt lat="37.1684934" lon="-5.2101229">
<ele>2345</ele>
<time>2015-05-27T12:43:12Z</time>
</trkpt>
<trkpt lat="37.1697651" lon="-5.2102447">
<ele>2336</ele>
<time>2015-05-27T12:43:29Z</time>
</trkpt>
<trkpt lat="37.1704939" lon="-5.209267">
<ele>2314</ele>
<time>2015-05-27T12:43:46Z</time>
</trkpt>
<trkpt lat="37.1711448" lon="-5.2078505">
<ele>2301</ele>
<time>2015-05-27T12:44:04Z</time>
</trkpt>
<trkpt lat="37.171716" lon="-5.206413">
<ele>2276</ele>
<time>2015-05-27T12:44:20Z</time>
</trkpt>
<trkpt lat="37.1723617" lon="-5.2051705">
<ele>2253</ele>
<time>2015-05-27T12:44:38Z</time>
</trkpt>
<trkpt lat="37.1731793" lon="-5.2042971">
<ele>2240</ele>
<time>2015-05-27T12:44:52Z</time>
</trkpt>
<trkpt lat="37.1739859" lon="-5.2034928">
<ele>2227</ele>
<time>2015-05-27T12:45:04Z</time>
</trkpt>
<trkpt lat="37.1746548" lon="-5.2026375">
<ele>2220</ele>
<time>2015-05-27T12:45:17Z</time>
</trkpt>
<trkpt lat="37.1751066" lon="-5.202116">
<ele>2213</ele>
<time>2015-05-27T12:45:25Z</time>
</trkpt>
<trkpt lat="37.1756557" lon="-5.2016891">
<ele>2204</ele>
<time>2015-05-27T12:45:33Z</time>
</trkpt>
<trkpt lat="37.1764373" lon="-5.2010976">
<ele>2193</ele>
<time>2015-05-27T12:45:44Z</time>
</trkpt>
<trkpt lat="37.1773074" lon="-5.2002978">
<ele>2182</ele>
<time>2015-05-27T12:45:56Z</time>
</trkpt>
<trkpt lat="37.1779976" lon="-5.1993536">
<ele>2178</ele>
<time>2015-05-27T12:46:10Z</time>
</trkpt>
<trkpt lat="37.178601" lon="-5.1983732">
<ele>2165</ele>
<time>2015-05-27T12:46:25Z</time>
</trkpt>
<trkpt lat="37.1795412" lon="-5.1977749">
<ele>2149</ele>
<time>2015-05-27T12:46:40Z</time>
</trkpt>
<trkpt lat="37.1805279" lon="-5.1975535">
<ele>2141</ele>
<time>2015-05-27T12:46:52Z</time>
</trkpt>
<trkpt lat="37.1813175" lon="-5.1971406">
<ele>2130</ele>
<time>2015-05-27T12:47:01Z</time>
</trkpt>
<trkpt lat="37.1822473" lon="-5.196073">
<ele>2123</ele>
<time>2015-05-27T12:47:14Z</time>
</trkpt>
<trkpt lat="37.1827981" lon="-5.1954855">
<ele>2114</ele>
<time>2015-05-27T12:47:22Z</time>
</trkpt>
<trkpt lat="37.1834326" lon="-5.1947569">
<ele>2101</ele>
<time>2015-05-27T12:47:31Z</time>
</trkpt>
<trkpt lat="37.1843693" lon="-5.1935129">
<ele>2088</ele>
<time>2015-05-27T12:47:46Z</time>
</trkpt>
<trkpt lat="37.1845018" lon="-5.1926357">
<ele>2080</ele>
<time>2015-05-27T12:47:54Z</time>
</trkpt>
<trkpt lat="37.1848671" lon="-5.1912101">
<ele>2062</ele>
<time>2015-05-27T12:48:07Z</time>
</trkpt>
<trkpt lat="37.1851635" lon="-5.1903569">
<ele>2053</ele>
<time>2015-05-27T12:48:15Z</time>
</trkpt>
<trkpt lat="37.1856462" lon="-5.1906302">
<ele>2046</ele>
<time>2015-05-27T12:48:30Z</time>
</trkpt>
<trkpt lat="37.1846585" lon="-5.1901785">
<ele>2040</ele>
<time>2015-05-27T12:48:43Z</time>
</trkpt>
<trkpt lat="37.184977" lon="-5.1890419">
<ele>2023</ele>
<time>2015-05-27T12:48:57Z</time>
</trkpt>
<trkpt lat="37.1856518" lon="-5.1884867">
<ele>2011</ele>
<time>2015-05-27T12:49:06Z</time>
</trkpt>
<trkpt lat="37.1864004" lon="-5.1872765">
<ele>1985</ele>
<time>2015-05-27T12:49:21Z</time>
</trkpt>
<trkpt lat="37.1866119" lon="-5.1863149">
<ele>1977</ele>
<time>2015-05-27T12:49:31Z</time>
</trkpt>
<trkpt lat="37.1868506" lon="-5.1852313">
<ele>1955</ele>
<time>2015-05-27T12:49:44Z</time>
</trkpt>
<trkpt lat="37.1872781" lon="-5.1841165">
<ele>1934</ele>
<time>2015-05-27T12:50:00Z</time>
</trkpt>
<trkpt lat="37.1874886" lon="-5.1828231">
<ele>1923</ele>
<time>2015-05-27T12:50:15Z</time>
</trkpt>
<trkpt lat="37.1867285" lon="-5.1820324">
<ele>1916</ele>
<time>2015-05-27T12:50:30Z</time>
</trkpt>
<trkpt lat="37.1873336" lon="-5.1832144">
<ele>1915</ele>
<time>2015-05-27T12:50:42Z</time>
</trkpt>
<trkpt lat="37.1875845" lon="-5.1821029">
<ele>1905</ele>
<time>2015-05-27T12:50:57Z</time>
</trkpt>
<trkpt lat="37.1868635" lon="-5.183135">
<ele>1888</ele>
<time>2015-05-27T12:51:09Z</time>
</trkpt>
<trkpt lat="37.187393" lon="-5.1841842">
<ele>1888</ele>
<time>2015-05-27T12:51:24Z</time>
</trkpt>
<trkpt lat="37.1869091" lon="-5.1836334">
<ele>1871</ele>
<time>2015-05-27T12:51:38Z</time>
</trkpt>
<trkpt lat="37.1874681" lon="-5.1847793">
<ele>1862</ele>
<time>2015-05-27T12:51:53Z</time>
</trkpt>
<trkpt lat="37.1884532" lon="-5.1835453">
<ele>1825</ele>
<time>2015-05-27T12:52:09Z</time>
</trkpt>
<trkpt lat="37.1892919" lon="-5.1824561">
<ele>1772</ele>
<time>2015-05-27T12:52:26Z</time>
</trkpt>
<trkpt lat="37.1895718" lon="-5.1814312">
<ele>1737</ele>
<time>2015-05-27T12:52:38Z</time>
</trkpt>
<trkpt lat="37.1901293" lon="-5.1803489">
<ele>1692</ele>
<time>2015-05-27T12:52:52Z</time>
</trkpt>
<trkpt lat="37.1906393" lon="-5.179584">
<ele>1661</ele>
<time>2015-05-27T12:53:03Z</time>
</trkpt>
<trkpt lat="37.191234" lon="-5.1790057">
<ele>1624</ele>
<time>2015-05-27T12:53:13Z</time>
</trkpt>
<trkpt lat="37.1918027" lon="-5.1783674">
<ele>1592</ele>
<time>2015-05-27T12:53:23Z</time>
</trkpt>
<trkpt lat="37.1926251" lon="-5.1774709">
<ele>1551</ele>
<time>2015-05-27T12:53:37Z</time>
</trkpt>
<trkpt lat="37.1935001" lon="-5.1763415">
<ele>1525</ele>
<time>2015-05-27T12:53:52Z</time>
</trkpt>
<trkpt lat="37.1943778" lon="-5.1753142">
<ele>1494</ele>
<time>2015-05-27T12:54:06Z</time>
</trkpt>
<trkpt lat="37.1950844" lon="-5.174161">
<ele>1466</ele>
<time>2015-05-27T12:54:18Z</time>
</trkpt>
<trkpt lat="37.1959289" lon="-5.1732378">
<ele>1446</ele>
<time>2015-05-27T12:54:32Z</time>
</trkpt>
<trkpt lat="37.1964772" lon="-5.172281">
<ele>1422</ele>
<time>2015-05-27T12:54:46Z</time>
</trkpt>
<trkpt lat="37.1970139" lon="-5.171265">
<ele>1397</ele>
<time>2015-05-27T12:54:59Z</time>
</trkpt>
<trkpt lat="37.1975387" lon="-5.1703061">
<ele>1383</ele>
<time>2015-05-27T12:55:09Z</time>
</trkpt>
<trkpt lat="37.1979808" lon="-5.1695342">
<ele>1373</ele>
<time>2015-05-27T12:55:17Z</time>
</trkpt>
<trkpt lat="37.1984582" lon="-5.1687424">
<ele>1372</ele>
<time>2015-05-27T12:55:28Z</time>
</trkpt>
<trkpt lat="37.1989337" lon="-5.1677857">
<ele>1368</ele>
<time>2015-05-27T12:55:41Z</time>
</trkpt>
<trkpt lat="37.1993504" lon="-5.1669659">
<ele>1362</ele>
<time>2015-05-27T12:55:50Z</time>
</trkpt>
<trkpt lat="37.2001313" lon="-5.1663195">
<ele>1375</ele>
<time>2015-05-27T12:56:05Z</time>
</trkpt>
<trkpt lat="37.1991102" lon="-5.1665187">
<ele>1385</ele>
<time>2015-05-27T12:56:18Z</time>
</trkpt>
<trkpt lat="37.1998355" lon="-5.1673253">
<ele>1384</ele>
<time>2015-05-27T12:56:34Z</time>
</trkpt>
<trkpt lat="37.1990728" lon="-5.1668532">
<ele>1398</ele>
<time>2015-05-27T12:56:48Z</time>
</trkpt>
<trkpt lat="37.1987598" lon="-5.168334">
<ele>1393</ele>
<time>2015-05-27T12:57:02Z</time>
</trkpt>
<trkpt lat="37.1990506" lon="-5.1695222">
<ele>1396</ele>
<time>2015-05-27T12:57:14Z</time>
</trkpt>
<trkpt lat="37.1981209" lon="-5.1689468">
<ele>1396</ele>
<time>2015-05-27T12:57:30Z</time>
</trkpt>
<trkpt lat="37.197464" lon="-5.167793">
<ele>1405</ele>
<time>2015-05-27T12:57:48Z</time>
</trkpt>
<trkpt lat="37.1979866" lon="-5.1670743">
<ele>1415</ele>
<time>2015-05-27T12:58:06Z</time>
</trkpt>
<trkpt lat="37.1977107" lon="-5.1682687">
<ele>1420</ele>
<time>2015-05-27T12:58:18Z</time>
</trkpt>
<trkpt lat="37.1974423" lon="-5.1676276">
<ele>1437</ele>
<time>2015-05-27T12:58:36Z</time>
</trkpt>
<trkpt lat="37.1980728" lon="-5.1682547">
<ele>1446</ele>
<time>2015-05-27T12:58:49Z</time>
</trkpt>
<trkpt lat="37.1968647" lon="-5.1687231">
<ele>1458</ele>
<time>2015-05-27T12:59:02Z</time>
</trkpt>
<trkpt lat="37.1974134" lon="-5.1681279">
<ele>1466</ele>
<time>2015-05-27T12:59:20Z</time>
</trkpt>
<trkpt lat="37.1978874" lon="-5.1691244">
<ele>1472</ele>
<time>2015-05-27T12:59:33Z</time>
</trkpt>
<trkpt lat="37.1969425" lon="-5.1694637">
<ele>1479</ele>
<time>2015-05-27T12:59:43Z</time>
</trkpt>
<trkpt lat="37.1966836" lon="-5.1683651">
<ele>1491</ele>
<time>2015-05-27T12:59:58Z</time>
</trkpt>
<trkpt lat="37.197192" lon="-5.1692501">
<ele>1485</ele>
<time>2015-05-27T13:00:12Z</time>
</trkpt>
<trkpt lat="37.1965951" lon="-5.1706467">
<ele>1488</ele>
<time>2015-05-27T13:00:24Z</time>
</trkpt>
<trkpt lat="37.1958081" lon="-5.1711109">
<ele>1488</ele>
<time>2015-05-27T13:00:32Z</time>
</trkpt>
<trkpt lat="37.1948729" lon="-5.1712187">
<ele>1498</ele>
<time>2015-05-27T13:00:41Z</time>
</trkpt>
<trkpt lat="37.1939258" lon="-5.1710117">
<ele>1507</ele>
<time>2015-05-27T13:00:51Z</time>
</trkpt>
<trkpt lat="37.1941257" lon="-5.1708403">
<ele>1498</ele>
<time>2015-05-27T13:01:02Z</time>
</trkpt>
<trkpt lat="37.1935731" lon="-5.1719038">
<ele>1500</ele>
<time>2015-05-27T13:01:12Z</time>
</trkpt>
<trkpt lat="37.1927415" lon="-5.1716266">
<ele>1509</ele>
<time>2015-05-27T13:01:21Z</time>
</trkpt>
<trkpt lat="37.1930499" lon="-5.1713123">
<ele>1491</ele>
<time>2015-05-27T13:01:36Z</time>
</trkpt>
<trkpt lat="37.1922534" lon="-5.1724858">
<ele>1486</ele>
<time>2015-05-27T13:01:47Z</time>
</trkpt>
<trkpt lat="37.1915162" lon="-5.1716106">
<ele>1480</ele>
<time>2015-05-27T13:02:00Z</time>
</trkpt>
<trkpt lat="37.1920942" lon="-5.1715597">
<ele>1476</ele>
<time>2015-05-27T13:02:10Z</time>
</trkpt>
<trkpt lat="37.1926391" lon="-5.1706314">
<ele>1462</ele>
<time>2015-05-27T13:02:28Z</time>
</trkpt>
<trkpt lat="37.1929867" lon="-5.1696477">
<ele>1441</ele>
<time>2015-05-27T13:02:46Z</time>
</trkpt>
<trkpt lat="37.1934365" lon="-5.1689599">
<ele>1422</ele>
<time>2015-05-27T13:03:02Z</time>
</trkpt>
<trkpt lat="37.1938904" lon="-5.168">
<ele>1398</ele>
<time>2015-05-27T13:03:17Z</time>
</trkpt>
<trkpt lat="37.1941816" lon="-5.1668607">
<ele>1383</ele>
<time>2015-05-27T13:03:32Z</time>
</trkpt>
<trkpt lat="37.1945861" lon="-5.1658219">
<ele>1345</ele>
<time>2015-05-27T13:03:48Z</time>
</trkpt>
<trkpt lat="37.1952396" lon="-5.1649856">
<ele>1318</ele>
<time>2015-05-27T13:04:02Z</time>
</trkpt>
<trkpt lat="37.1957123" lon="-5.1641502">
<ele>1295</ele>
<time>2015-05-27T13:04:13Z</time>
</trkpt>
<trkpt lat="37.1960702" lon="-5.1632265">
<ele>1284</ele>
<time>2015-05-27T13:04:24Z</time>
</trkpt>
<trkpt lat="37.1967109" lon="-5.1624895">
<ele>1277</ele>
<time>2015-05-27T13:04:40Z</time>
</trkpt>
<trkpt lat="37.1976788" lon="-5.1617608">
<ele>1247</ele>
<time>2015-05-27T13:04:57Z</time>
</trkpt>
<trkpt lat="37.19815" lon="-5.160648">
<ele>1225</ele>
<time>2015-05-27T13:05:11Z</time>
</trkpt>
<trkpt lat="37.198282" lon="-5.1596075">
<ele>1221</ele>
<time>2015-05-27T13:05:22Z</time>
</trkpt>
<trkpt lat="37.198728" lon="-5.158531">
<ele>1217</ele>
<time>2015-05-27T13:05:35Z</time>
</trkpt>
<trkpt lat="37.1994338" lon="-5.157661">
<ele>1211</ele>
<time>2015-05-27T13:05:50Z</time>
</trkpt>
<trkpt lat="37.1999892" lon="-5.1568799">
<ele>1207</ele>
<time>2015-05-27T13:06:03Z</time>
</trkpt>
<trkpt lat="37.2005567" lon="-5.1560867">
<ele>1200</ele>
<time>2015-05-27T13:06:14Z</time>
</trkpt>
<trkpt lat="37.20112" lon="-5.1554331">
<ele>1193</ele>
<time>2015-05-27T13:06:24Z</time>
</trkpt>
<trkpt lat="37.2016812" lon="-5.1546137">
<ele>1178</ele>
<time>2015-05-27T13:06:38Z</time>
</trkpt>
<trkpt lat="37.2020432" lon="-5.1536819">
<ele>1135</ele>
<time>2015-05-27T13:06:50Z</time>
</trkpt>
<trkpt lat="37.2027859" lon="-5.1529135">
<ele>1109</ele>
<time>2015-05-27T13:07:03Z</time>
</trkpt>
<trkpt lat="37.2033859" lon="-5.1523126">
<ele>1119</ele>
<time>2015-05-27T13:07:20Z</time>
</trkpt>
<trkpt lat="37.2030291" lon="-5.1531636">
<ele>1128</ele>
<time>2015-05-27T13:07:30Z</time>
</trkpt>
<trkpt lat="37.2033569" lon="-5.1525756">
<ele>1154</ele>
<time>2015-05-27T13:07:46Z</time>
</trkpt>
<trkpt lat="37.2025034" lon="-5.1532316">
<ele>1172</ele>
<time>2015-05-27T13:07:56Z</time>
</trkpt>
<trkpt lat="37.2031862" lon="-5.1541666">
<ele>1194</ele>
<time>2015-05-27T13:08:09Z</time>
</trkpt>
<trkpt lat="37.2031831" lon="-5.1534929">
<ele>1234</ele>
<time>2015-05-27T13:08:27Z</time>
</trkpt>
<trkpt lat="37.202374" lon="-5.1544997">
<ele>1252</ele>
<time>2015-05-27T13:08:38Z</time>
</trkpt>
<trkpt lat="37.2028314" lon="-5.1554543">
<ele>1249</ele>
<time>2015-05-27T13:08:47Z</time>
</trkpt>
<trkpt lat="37.2035561" lon="-5.1558441">
<ele>1256</ele>
<time>2015-05-27T13:08:57Z</time>
</trkpt>
<trkpt lat="37.2042929" lon="-5.1552128">
<ele>1273</ele>
<time>2015-05-27T13:09:10Z</time>
</trkpt>
<trkpt lat="37.2035784" lon="-5.1551425">
<ele>1278</ele>
<time>2015-05-27T13:09:22Z</time>
</trkpt>
<trkpt lat="37.2038111" lon="-5.1562631">
<ele>1287</ele>
<time>2015-05-27T13:09:32Z</time>
</trkpt>
<trkpt lat="37.2044783" lon="-5.1569625">
<ele>1297</ele>
<time>2015-05-27T13:09:41Z</time>
</trkpt>
<trkpt lat="37.2052748" lon="-5.1565644">
<ele>1299</ele>
<time>2015-05-27T13:09:52Z</time>
</trkpt>
<trkpt lat="37.2045405" lon="-5.1556344">
<ele>1294</ele>
<time>2015-05-27T13:10:08Z</time>
</trkpt>
<trkpt lat="37.2048423" lon="-5.1567141">
<ele>1300</ele>
<time>2015-05-27T13:10:18Z</time>
</trkpt>
<trkpt lat="37.2055166" lon="-5.1562405">
<ele>1292</ele>
<time>2015-05-27T13:10:28Z</time>
</trkpt>
<trkpt lat="37.2059721" lon="-5.1551359">
<ele>1262</ele>
<time>2015-05-27T13:10:39Z</time>
</trkpt>
<trkpt lat="37.2064514" lon="-5.1537248">
<ele>1223</ele>
<time>2015-05-27T13:10:52Z</time>
</trkpt>
<trkpt lat="37.2071139" lon="-5.1527842">
<ele>1196</ele>
<time>2015-05-27T13:11:04Z</time>
</trkpt>
<trkpt lat="37.2077529" lon="-5.1520152">
<ele>1160</ele>
<time>2015-05-27T13:11:15Z</time>
</trkpt>
<trkpt lat="37.2085045" lon="-5.1513896">
<ele>1128</ele>
<time>2015-05-27T13:11:28Z</time>
</trkpt>
<trkpt lat="37.2090586" lon="-5.1510337">
<ele>1117</ele>
<time>2015-05-27T13:11:36Z</time>
</trkpt>
<trkpt lat="37.2096393" lon="-5.1504755">
<ele>1113</ele>
<time>2015-05-27T13:11:46Z</time>
</trkpt>
<trkpt lat="37.2103221" lon="-5.1496639">
<ele>1103</ele>
<time>2015-05-27T13:12:00Z</time>
</trkpt>
<trkpt lat="37.2108346" lon="-5.1489854">
<ele>1104</ele>
<time>2015-05-27T13:12:10Z</time>
</trkpt>
<trkpt lat="37.2111418" lon="-5.1479719">
<ele>1115</ele>
<time>2015-05-27T13:12:23Z</time>
</trkpt>
<trkpt lat="37.2119928" lon="-5.1476996">
<ele>1107</ele>
<time>2015-05-27T13:12:37Z</time>
</trkpt>
<trkpt lat="37.2114305" lon="-5.1486514">
<ele>1102</ele>
<time>2015-05-27T13:12:49Z</time>
</trkpt>
<trkpt lat="37.2112127" lon="-5.1474964">
<ele>1095</ele>
<time>2015-05-27T13:13:03Z</time>
</trkpt>
<trkpt lat="37.2119662" lon="-5.1469567">
<ele>1074</ele>
<time>2015-05-27T13:13:15Z</time>
</trkpt>
<trkpt lat="37.2131347" lon="-5.1463051">
<ele>1051</ele>
<time>2015-05-27T13:13:31Z</time>
</trkpt>
<trkpt lat="37.2136339" lon="-5.1457807">
<ele>1039</ele>
<time>2015-05-27T13:13:39Z</time>
</trkpt>
<trkpt lat="37.2142333" lon="-5.1452607">
<ele>1025</ele>
<time>2015-05-27T13:13:47Z</time>
</trkpt>
<trkpt lat="37.2150128" lon="-5.144531">
<ele>1022</ele>
<time>2015-05-27T13:13:58Z</time>
</trkpt>
<trkpt lat="37.2155023" lon="-5.143606">
<ele>1027</ele>
<time>2015-05-27T13:14:09Z</time>
</trkpt>
<trkpt lat="37.215872" lon="-5.1428003">
<ele>1038</ele>
<time>2015-05-27T13:14:19Z</time>
</trkpt>
<trkpt lat="37.2162065" lon="-5.1419345">
<ele>1053</ele>
<time>2015-05-27T13:14:34Z</time>
</trkpt>
<trkpt lat="37.217015" lon="-5.1416593">
<ele>1075</ele>
<time>2015-05-27T13:14:51Z</time>
</trkpt>
<trkpt lat="37.2174328" lon="-5.1427274">
<ele>1091</ele>
<time>2015-05-27T13:15:02Z</time>
</trkpt>
<trkpt lat="37.2181224" lon="-5.1425279">
<ele>1101</ele>
<time>2015-05-27T13:15:17Z</time>
</trkpt>
<trkpt lat="37.2180053" lon="-5.1415528">
<ele>1108</ele>
<time>2015-05-27T13:15:33Z</time>
</trkpt>
<trkpt lat="37.2185402" lon="-5.1426473">
<ele>1118</ele>
<time>2015-05-27T13:15:48Z</time>
</trkpt>
<trkpt lat="37.2174727" lon="-5.1425548">
<ele>1130</ele>
<time>2015-05-27T13:16:03Z</time>
</trkpt>
<trkpt lat="37.2178445" lon="-5.1418256">
<ele>1151</ele>
<time>2015-05-27T13:16:19Z</time>
</trkpt>
<trkpt lat="37.218524" lon="-5.1423182">
<ele>1160</ele>
<time>2015-05-27T13:16:29Z</time>
</trkpt>
<trkpt lat="37.2184379" lon="-5.1434998">
<ele>1167</ele>
<time>2015-05-27T13:16:39Z</time>
</trkpt>
<trkpt lat="37.2177305" lon="-5.1441944">
<ele>1174</ele>
<time>2015-05-27T13:16:49Z</time>
</trkpt>
<trkpt lat="37.2174784" lon="-5.143327">
<ele>1178</ele>
<time>2015-05-27T13:17:02Z</time>
</trkpt>
<trkpt lat="37.2181984" lon="-5.1433129">
<ele>1188</ele>
<time>2015-05-27T13:17:14Z</time>
</trkpt>
<trkpt lat="37.21799" lon="-5.1427233">
<ele>1203</ele>
<time>2015-05-27T13:17:31Z</time>
</trkpt>
<trkpt lat="37.2179011" lon="-5.1439825">
<ele>1215</ele>
<time>2015-05-27T13:17:42Z</time>
</trkpt>
<trkpt lat="37.218338" lon="-5.14457">
<ele>1229</ele>
<time>2015-05-27T13:17:50Z</time>
</trkpt>
<trkpt lat="37.2189966" lon="-5.1446113">
<ele>1249</ele>
<time>2015-05-27T13:17:59Z</time>
</trkpt>
<trkpt lat="37.2186059" lon="-5.1439667">
<ele>1269</ele>
<time>2015-05-27T13:18:09Z</time>
</trkpt>
<trkpt lat="37.2178138" lon="-5.1448409">
<ele>1287</ele>
<time>2015-05-27T13:18:19Z</time>
</trkpt>
<trkpt lat="37.218346" lon="-5.1456207">
<ele>1311</ele>
<time>2015-05-27T13:18:32Z</time>
</trkpt>
<trkpt lat="37.2177778" lon="-5.1449296">
<ele>1340</ele>
<time>2015-05-27T13:18:46Z</time>
</trkpt>
<trkpt lat="37.2170739" lon="-5.1455222">
<ele>1350</ele>
<time>2015-05-27T13:18:55Z</time>
</trkpt>
<trkpt lat="37.2174632" lon="-5.1463881">
<ele>1368</ele>
<time>2015-05-27T13:19:05Z</time>
</trkpt>
<trkpt lat="37.2173214" lon="-5.1455917">
<ele>1404</ele>
<time>2015-05-27T13:19:21Z</time>
</trkpt>
<trkpt lat="37.2164654" lon="-5.1460525">
<ele>1414</ele>
<time>2015-05-27T13:19:31Z</time>
</trkpt>
<trkpt lat="37.2164174" lon="-5.1471687">
<ele>1424</ele>
<time>2015-05-27T13:19:40Z</time>
</trkpt>
<trkpt lat="37.2171069" lon="-5.1472495">
<ele>1449</ele>
<time>2015-05-27T13:19:54Z</time>
</trkpt>
<trkpt lat="37.2165416" lon="-5.1464412">
<ele>1473</ele>
<time>2015-05-27T13:20:10Z</time>
</trkpt>
<trkpt lat="37.2159123" lon="-5.1470394">
<ele>1486</ele>
<time>2015-05-27T13:20:18Z</time>
</trkpt>
<trkpt lat="37.2159948" lon="-5.1479649">
<ele>1503</ele>
<time>2015-05-27T13:20:26Z</time>
</trkpt>
<trkpt lat="37.216508" lon="-5.1477637">
<ele>1533</ele>
<time>2015-05-27T13:20:38Z</time>
</trkpt>
<trkpt lat="37.2157764" lon="-5.1473229">
<ele>1547</ele>
<time>2015-05-27T13:20:49Z</time>
</trkpt>
<trkpt lat="37.2150896" lon="-5.1481426">
<ele>1564</ele>
<time>2015-05-27T13:20:58Z</time>
</trkpt>
<trkpt lat="37.2154184" lon="-5.1492035">
<ele>1584</ele>
<time>2015-05-27T13:21:08Z</time>
</trkpt>
<trkpt lat="37.2160287" lon="-5.1491339">
<ele>1596</ele>
<time>2015-05-27T13:21:16Z</time>
</trkpt>
<trkpt lat="37.2159379" lon="-5.148331">
<ele>1631</ele>
<time>2015-05-27T13:21:30Z</time>
</trkpt>
<trkpt lat="37.2151084" lon="-5.1489627">
<ele>1647</ele>
<time>2015-05-27T13:21:40Z</time>
</trkpt>
<trkpt lat="37.2151089" lon="-5.1500157">
<ele>1665</ele>
<time>2015-05-27T13:21:48Z</time>
</trkpt>
<trkpt lat="37.2156139" lon="-5.1505219">
<ele>1676</ele>
<time>2015-05-27T13:21:56Z</time>
</trkpt>
<trkpt lat="37.2162427" lon="-5.1506028">
<ele>1692</ele>
<time>2015-05-27T13:22:04Z</time>
</trkpt>
<trkpt lat="37.2170611" lon="-5.1502771">
<ele>1717</ele>
<time>2015-05-27T13:22:15Z</time>
</trkpt>
<trkpt lat="37.2170659" lon="-5.1493372">
<ele>1746</ele>
<time>2015-05-27T13:22:27Z</time>
</trkpt>
<trkpt lat="37.2163997" lon="-5.1497813">
<ele>1767</ele>
<time>2015-05-27T13:22:35Z</time>
</trkpt>
<trkpt lat="37.2166813" lon="-5.150792">
<ele>1791</ele>
<time>2015-05-27T13:22:46Z</time>
</trkpt>
<trkpt lat="37.2175793" lon="-5.1508052">
<ele>1824</ele>
<time>2015-05-27T13:22:57Z</time>
</trkpt>
<trkpt lat="37.2170097" lon="-5.1504276">
<ele>1871</ele>
<time>2015-05-27T13:23:14Z</time>
</trkpt>
<trkpt lat="37.2172236" lon="-5.1515153">
<ele>1894</ele>
<time>2015-05-27T13:23:23Z</time>
</trkpt>
<trkpt lat="37.2179111" lon="-5.1511273">
<ele>1934</ele>
<time>2015-05-27T13:23:35Z</time>
</trkpt>
<trkpt lat="37.2171936" lon="-5.150952">
<ele>1966</ele>
<time>2015-05-27T13:23:45Z</time>
</trkpt>
<trkpt lat="37.2174479" lon="-5.1520365">
<ele>1998</ele>
<time>2015-05-27T13:23:55Z</time>
</trkpt>
<trkpt lat="37.2180662" lon="-5.151905">
<ele>2017</ele>
<time>2015-05-27T13:24:03Z</time>
</trkpt>
<trkpt lat="37.2182878" lon="-5.1512341">
<ele>2033</ele>
<time>2015-05-27T13:24:11Z</time>
</trkpt>
<trkpt lat="37.217184" lon="-5.1507284">
<ele>2085</ele>
<time>2015-05-27T13:24:27Z</time>
</trkpt>
<trkpt lat="37.2174721" lon="-5.1518929">
<ele>2121</ele>
<time>2015-05-27T13:24:41Z</time>
</trkpt>
<trkpt lat="37.2178641" lon="-5.150877">
<ele>2159</ele>
<time>2015-05-27T13:24:56Z</time>
</trkpt>
<trkpt lat="37.2170366" lon="-5.1512301">
<ele>2193</ele>
<time>2015-05-27T13:25:07Z</time>
</trkpt>
<trkpt lat="37.2174796" lon="-5.1518821">
<ele>2211</ele>
<time>2015-05-27T13:25:17Z</time>
</trkpt>
<trkpt lat="37.2180964" lon="-5.1515128">
<ele>2234</ele>
<time>2015-05-27T13:25:26Z</time>
</trkpt>
<trkpt lat="37.2184902" lon="-5.1508256">
<ele>2275</ele>
<time>2015-05-27T13:25:35Z</time>
</trkpt>
<trkpt lat="37.2177114" lon="-5.1503217">
<ele>2324</ele>
<time>2015-05-27T13:25:46Z</time>
</trkpt>
<trkpt lat="37.2179469" lon="-5.1513472">
<ele>2373</ele>
<time>2015-05-27T13:26:01Z</time>
</trkpt>
<trkpt lat="37.2189075" lon="-5.1510265">
<ele>2421</ele>
<time>2015-05-27T13:26:13Z</time>
</trkpt>
<trkpt lat="37.2183531" lon="-5.1504624">
<ele>2462</ele>
<time>2015-05-27T13:26:28Z</time>
</trkpt>
<trkpt lat="37.2188176" lon="-5.1512036">
<ele>2500</ele>
<time>2015-05-27T13:26:40Z</time>
</trkpt>
<trkpt lat="37.2186681" lon="-5.1502596">
<ele>2525</ele>
<time>2015-05-27T13:26:51Z</time>
</trkpt>
<trkpt lat="37.2179774" lon="-5.1510902">
<ele>2553</ele>
<time>2015-05-27T13:27:00Z</time>
</trkpt>
<trkpt lat="37.2190191" lon="-5.1514441">
<ele>2596</ele>
<time>2015-05-27T13:27:14Z</time>
</trkpt>
<trkpt lat="37.2191823" lon="-5.1507309">
<ele>2617</ele>
<time>2015-05-27T13:27:22Z</time>
</trkpt>
<trkpt lat="37.2182108" lon="-5.1504811">
<ele>2647</ele>
<time>2015-05-27T13:27:33Z</time>
</trkpt>
<trkpt lat="37.2181138" lon="-5.1516438">
<ele>2670</ele>
<time>2015-05-27T13:27:42Z</time>
</trkpt>
<trkpt lat="37.2192705" lon="-5.1512357">
<ele>2700</ele>
<time>2015-05-27T13:27:56Z</time>
</trkpt>
<trkpt lat="37.2187977" lon="-5.1500572">
<ele>2715</ele>
<time>2015-05-27T13:28:09Z</time>
</trkpt>
<trkpt lat="37.2179889" lon="-5.1506342">
<ele>2738</ele>
<time>2015-05-27T13:28:18Z</time>
</trkpt>
<trkpt lat="37.2184309" lon="-5.1515496">
<ele>2761</ele>
<time>2015-05-27T13:28:26Z</time>
</trkpt>
<trkpt lat="37.2192903" lon="-5.1512421">
<ele>2782</ele>
<time>2015-05-27T13:28:37Z</time>
</trkpt>
<trkpt lat="37.2185871" lon="-5.1506554">
<ele>2788</ele>
<time>2015-05-27T13:28:50Z</time>
</trkpt>
<trkpt lat="37.2181378" lon="-5.1518702">
<ele>2804</ele>
<time>2015-05-27T13:29:00Z</time>
</trkpt>
<trkpt lat="37.2187448" lon="-5.1524237">
<ele>2821</ele>
<time>2015-05-27T13:29:10Z</time>
</trkpt>
<trkpt lat="37.2195534" lon="-5.1522178">
<ele>2830</ele>
<time>2015-05-27T13:29:22Z</time>
</trkpt>
<trkpt lat="37.2200396" lon="-5.1515058">
<ele>2841</ele>
<time>2015-05-27T13:29:33Z</time>
</trkpt>
<trkpt lat="37.2192221" lon="-5.1513885">
<ele>2853</ele>
<time>2015-05-27T13:29:45Z</time>
</trkpt>
<trkpt lat="37.2194958" lon="-5.1522874">
<ele>2865</ele>
<time>2015-05-27T13:29:54Z</time>
</trkpt>
<trkpt lat="37.220098" lon="-5.152096">
<ele>2875</ele>
<time>2015-05-27T13:30:02Z</time>
</trkpt>
<trkpt lat="37.2206085" lon="-5.1514819">
<ele>2881</ele>
<time>2015-05-27T13:30:11Z</time>
</trkpt>
<trkpt lat="37.2203431" lon="-5.1506333">
<ele>2884</ele>
<time>2015-05-27T13:30:19Z</time>
</trkpt>
<trkpt lat="37.2196838" lon="-5.1512742">
<ele>2886</ele>
<time>2015-05-27T13:30:28Z</time>
</trkpt>
<trkpt lat="37.2198788" lon="-5.1522644">
<ele>2889</ele>
<time>2015-05-27T13:30:36Z</time>
</trkpt>
<trkpt lat="37.2205919" lon="-5.1528478">
<ele>2892</ele>
<time>2015-05-27T13:30:45Z</time>
</trkpt>
<trkpt lat="37.2212729" lon="-5.1524236">
<ele>2892</ele>
<time>2015-05-27T13:30:53Z</time>
</trkpt>
<trkpt lat="37.2217863" lon="-5.1517606">
<ele>2889</ele>
<time>2015-05-27T13:31:01Z</time>
</trkpt>
<trkpt lat="37.2221571" lon="-5.1510141">
<ele>2886</ele>
<time>2015-05-27T13:31:09Z</time>
</trkpt>
<trkpt lat="37.2225532" lon="-5.150212">
<ele>2900</ele>
<time>2015-05-27T13:31:19Z</time>
</trkpt>
<trkpt lat="37.2233776" lon="-5.1497933">
<ele>2917</ele>
<time>2015-05-27T13:31:34Z</time>
</trkpt>
<trkpt lat="37.2225513" lon="-5.1499991">
<ele>2923</ele>
<time>2015-05-27T13:31:46Z</time>
</trkpt>
<trkpt lat="37.2227908" lon="-5.1486138">
<ele>2930</ele>
<time>2015-05-27T13:31:59Z</time>
</trkpt>
<trkpt lat="37.2236466" lon="-5.1483346">
<ele>2931</ele>
<time>2015-05-27T13:32:09Z</time>
</trkpt>
<trkpt lat="37.224486" lon="-5.1481307">
<ele>2921</ele>
<time>2015-05-27T13:32:19Z</time>
</trkpt>
<trkpt lat="37.2251903" lon="-5.1473308">
<ele>2915</ele>
<time>2015-05-27T13:32:30Z</time>
</trkpt>
<trkpt lat="37.2262792" lon="-5.147326">
<ele>2921</ele>
<time>2015-05-27T13:32:42Z</time>
</trkpt>
<trkpt lat="37.226427" lon="-5.1485823">
<ele>2918</ele>
<time>2015-05-27T13:32:52Z</time>
</trkpt>
<trkpt lat="37.2256503" lon="-5.1492467">
<ele>2916</ele>
<time>2015-05-27T13:33:00Z</time>
</trkpt>
<trkpt lat="37.2248726" lon="-5.1483208">
<ele>2911</ele>
<time>2015-05-27T13:33:13Z</time>
</trkpt>
<trkpt lat="37.2259293" lon="-5.1486826">
<ele>2909</ele>
<time>2015-05-27T13:33:30Z</time>
</trkpt>
<trkpt lat="37.2256293" lon="-5.1499126">
<ele>2898</ele>
<time>2015-05-27T13:33:39Z</time>
</trkpt>
<trkpt lat="37.2246909" lon="-5.1503967">
<ele>2893</ele>
<time>2015-05-27T13:33:49Z</time>
</trkpt>
<trkpt lat="37.2237439" lon="-5.1503691">
<ele>2881</ele>
<time>2015-05-27T13:33:58Z</time>
</trkpt>
<trkpt lat="37.2224496" lon="-5.1500159">
<ele>2863</ele>
<time>2015-05-27T13:34:11Z</time>
</trkpt>
<trkpt lat="37.2211193" lon="-5.1495331">
<ele>2842</ele>
<time>2015-05-27T13:34:25Z</time>
</trkpt>
<trkpt lat="37.2202629" lon="-5.1488612">
<ele>2823</ele>
<time>2015-05-27T13:34:35Z</time>
</trkpt>
<trkpt lat="37.2201244" lon="-5.1474584">
<ele>2795</ele>
<time>2015-05-27T13:34:46Z</time>
</trkpt>
<trkpt lat="37.220735" lon="-5.1460075">
<ele>2764</ele>
<time>2015-05-27T13:34:58Z</time>
</trkpt>
<trkpt lat="37.2212621" lon="-5.145205">
<ele>2742</ele>
<time>2015-05-27T13:35:06Z</time>
</trkpt>
<trkpt lat="37.2219292" lon="-5.1440964">
<ele>2712</ele>
<time>2015-05-27T13:35:18Z</time>
</trkpt>
<trkpt lat="37.2224913" lon="-5.1432922">
<ele>2692</ele>
<time>2015-05-27T13:35:27Z</time>
</trkpt>
<trkpt lat="37.2229975" lon="-5.14249">
<ele>2682</ele>
<time>2015-05-27T13:35:35Z</time>
</trkpt>
<trkpt lat="37.223483" lon="-5.1415373">
<ele>2679</ele>
<time>2015-05-27T13:35:45Z</time>
</trkpt>
<trkpt lat="37.2239748" lon="-5.1407603">
<ele>2674</ele>
<time>2015-05-27T13:35:53Z</time>
</trkpt>
<trkpt lat="37.2245078" lon="-5.1399709">
<ele>2668</ele>
<time>2015-05-27T13:36:01Z</time>
</trkpt>
<trkpt lat="37.2250709" lon="-5.1392344">
<ele>2662</ele>
<time>2015-05-27T13:36:09Z</time>
</trkpt>
<trkpt lat="37.2256642" lon="-5.1385515">
<ele>2653</ele>
<time>2015-05-27T13:36:17Z</time>
</trkpt>
<trkpt lat="37.2262267" lon="-5.1378356">
<ele>2651</ele>
<time>2015-05-27T13:36:25Z</time>
</trkpt>
<trkpt lat="37.2267625" lon="-5.1370083">
<ele>2650</ele>
<time>2015-05-27T13:36:35Z</time>
</trkpt>
<trkpt lat="37.2272035" lon="-5.1360193">
<ele>2639</ele>
<time>2015-05-27T13:36:46Z</time>
</trkpt>
<trkpt lat="37.2275589" lon="-5.1352373">
<ele>2628</ele>
<time>2015-05-27T13:36:54Z</time>
</trkpt>
<trkpt lat="37.2279537" lon="-5.1344174">
<ele>2625</ele>
<time>2015-05-27T13:37:02Z</time>
</trkpt>
<trkpt lat="37.2284626" lon="-5.1337694">
<ele>2624</ele>
<time>2015-05-27T13:37:10Z</time>
</trkpt>
<trkpt lat="37.2289653" lon="-5.1329941">
<ele>2611</ele>
<time>2015-05-27T13:37:18Z</time>
</trkpt>
<trkpt lat="37.2295475" lon="-5.1322439">
<ele>2603</ele>
<time>2015-05-27T13:37:26Z</time>
</trkpt>
<trkpt lat="37.230245" lon="-5.1317487">
<ele>2597</ele>
<time>2015-05-27T13:37:34Z</time>
</trkpt>
<trkpt lat="37.231018" lon="-5.1309927">
<ele>2583</ele>
<time>2015-05-27T13:37:43Z</time>
</trkpt>
<trkpt lat="37.2316142" lon="-5.130246">
<ele>2580</ele>
<time>2015-05-27T13:37:52Z</time>
</trkpt>
<trkpt lat="37.2322893" lon="-5.1295213">
<ele>2571</ele>
<time>2015-05-27T13:38:01Z</time>
</trkpt>
<trkpt lat="37.2329192" lon="-5.1286054">
<ele>2567</ele>
<time>2015-05-27T13:38:10Z</time>
</trkpt>
<trkpt lat="37.2336116" lon="-5.1278166">
<ele>2578</ele>
<time>2015-05-27T13:38:19Z</time>
</trkpt>
<trkpt lat="37.2342308" lon="-5.1268885">
<ele>2591</ele>
<time>2015-05-27T13:38:28Z</time>
</trkpt>
<trkpt lat="37.2345708" lon="-5.1259407">
<ele>2607</ele>
<time>2015-05-27T13:38:36Z</time>
</trkpt>
<trkpt lat="37.2349107" lon="-5.125092">
<ele>2620</ele>
<time>2015-05-27T13:38:44Z</time>
</trkpt>
<trkpt lat="37.2346839" lon="-5.1239565">
<ele>2629</ele>
<time>2015-05-27T13:38:58Z</time>
</trkpt>
<trkpt lat="37.2340594" lon="-5.124514">
<ele>2634</ele>
<time>2015-05-27T13:39:07Z</time>
</trkpt>
<trkpt lat="37.2346646" lon="-5.1256822">
<ele>2641</ele>
<time>2015-05-27T13:39:19Z</time>
</trkpt>
<trkpt lat="37.2355424" lon="-5.1254771">
<ele>2635</ele>
<time>2015-05-27T13:39:28Z</time>
</trkpt>
<trkpt lat="37.2360804" lon="-5.1245917">
<ele>2646</ele>
<time>2015-05-27T13:39:38Z</time>
</trkpt>
<trkpt lat="37.2365046" lon="-5.1236706">
<ele>2678</ele>
<time>2015-05-27T13:39:52Z</time>
</trkpt>
<trkpt lat="37.2360605" lon="-5.1237957">
<ele>2703</ele>
<time>2015-05-27T13:40:03Z</time>
</trkpt>
<trkpt lat="37.236164" lon="-5.1243544">
<ele>2730</ele>
<time>2015-05-27T13:40:16Z</time>
</trkpt>
<trkpt lat="37.2363579" lon="-5.1237027">
<ele>2760</ele>
<time>2015-05-27T13:40:31Z</time>
</trkpt>
<trkpt lat="37.2358568" lon="-5.1243454">
<ele>2776</ele>
<time>2015-05-27T13:40:40Z</time>
</trkpt>
<trkpt lat="37.2364258" lon="-5.1237903">
<ele>2806</ele>
<time>2015-05-27T13:40:56Z</time>
</trkpt>
<trkpt lat="37.2363867" lon="-5.1246567">
<ele>2822</ele>
<time>2015-05-27T13:41:04Z</time>
</trkpt>
<trkpt lat="37.2356885" lon="-5.1249659">
<ele>2836</ele>
<time>2015-05-27T13:41:12Z</time>
</trkpt>
<trkpt lat="37.2351314" lon="-5.1243897">
<ele>2849</ele>
<time>2015-05-27T13:41:20Z</time>
</trkpt>
<trkpt lat="37.2352325" lon="-5.1233098">
<ele>2867</ele>
<time>2015-05-27T13:41:31Z</time>
</trkpt>
<trkpt lat="37.2355027" lon="-5.124061">
<ele>2887</ele>
<time>2015-05-27T13:41:40Z</time>
</trkpt>
<trkpt lat="37.2345805" lon="-5.1237718">
<ele>2900</ele>
<time>2015-05-27T13:41:52Z</time>
</trkpt>
<trkpt lat="37.2351641" lon="-5.1230683">
<ele>2924</ele>
<time>2015-05-27T13:42:06Z</time>
</trkpt>
<trkpt lat="37.2347712" lon="-5.1227696">
<ele>2948</ele>
<time>2015-05-27T13:42:19Z</time>
</trkpt>
<trkpt lat="37.2347696" lon="-5.1235847">
<ele>2971</ele>
<time>2015-05-27T13:42:35Z</time>
</trkpt>
<trkpt lat="37.2351688" lon="-5.1232917">
<ele>3002</ele>
<time>2015-05-27T13:42:50Z</time>
</trkpt>
<trkpt lat="37.2346204" lon="-5.1226029">
<ele>3020</ele>
<time>2015-05-27T13:43:04Z</time>
</trkpt>
<trkpt lat="37.2354567" lon="-5.1228534">
<ele>3037</ele>
<time>2015-05-27T13:43:15Z</time>
</trkpt>
<trkpt lat="37.2345196" lon="-5.1224233">
<ele>3065</ele>
<time>2015-05-27T13:43:31Z</time>
</trkpt>
<trkpt lat="37.2349777" lon="-5.1212721">
<ele>3084</ele>
<time>2015-05-27T13:43:42Z</time>
</trkpt>
<trkpt lat="37.2359083" lon="-5.1204351">
<ele>3089</ele>
<time>2015-05-27T13:43:55Z</time>
</trkpt>
<trkpt lat="37.2370206" lon="-5.1195374">
<ele>3089</ele>
<time>2015-05-27T13:44:07Z</time>
</trkpt>
<trkpt lat="37.2379245" lon="-5.1194868">
<ele>3074</ele>
<time>2015-05-27T13:44:15Z</time>
</trkpt>
<trkpt lat="37.2389034" lon="-5.119519">
<ele>3059</ele>
<time>2015-05-27T13:44:23Z</time>
</trkpt>
<trkpt lat="37.2398459" lon="-5.1200678">
<ele>3057</ele>
<time>2015-05-27T13:44:33Z</time>
</trkpt>
<trkpt lat="37.2405614" lon="-5.1204054">
<ele>3056</ele>
<time>2015-05-27T13:44:42Z</time>
</trkpt>
<trkpt lat="37.241177" lon="-5.120108">
<ele>3053</ele>
<time>2015-05-27T13:44:50Z</time>
</trkpt>
<trkpt lat="37.2420593" lon="-5.1193978">
<ele>3049</ele>
<time>2015-05-27T13:45:03Z</time>
</trkpt>
<trkpt lat="37.2426985" lon="-5.1190745">
<ele>3048</ele>
<time>2015-05-27T13:45:12Z</time>
</trkpt>
<trkpt lat="37.2435588" lon="-5.1188208">
<ele>3051</ele>
<time>2015-05-27T13:45:22Z</time>
</trkpt>
<trkpt lat="37.2441512" lon="-5.1182">
<ele>3041</ele>
<time>2015-05-27T13:45:30Z</time>
</trkpt>
<trkpt lat="37.2450404" lon="-5.1183889">
<ele>3035</ele>
<time>2015-05-27T13:45:41Z</time>
</trkpt>
<trkpt lat="37.2457243" lon="-5.118148">
<ele>3024</ele>
<time>2015-05-27T13:45:49Z</time>
</trkpt>
<trkpt lat="37.2462306" lon="-5.1175331">
<ele>3020</ele>
<time>2015-05-27T13:45:57Z</time>
</trkpt>
<trkpt lat="37.2468428" lon="-5.1169941">
<ele>3009</ele>
<time>2015-05-27T13:46:05Z</time>
</trkpt>
<trkpt lat="37.2474816" lon="-5.1164525">
<ele>2993</ele>
<time>2015-05-27T13:46:13Z</time>
</trkpt>
<trkpt lat="37.2481562" lon="-5.1159129">
<ele>2985</ele>
<time>2015-05-27T13:46:21Z</time>
</trkpt>
<trkpt lat="37.2488047" lon="-5.1153798">
<ele>2976</ele>
<time>2015-05-27T13:46:29Z</time>
</trkpt>
<trkpt lat="37.2498275" lon="-5.114801">
<ele>2967</ele>
<time>2015-05-27T13:46:40Z</time>
</trkpt>
<trkpt lat="37.2505351" lon="-5.1143824">
<ele>2966</ele>
<time>2015-05-27T13:46:48Z</time>
</trkpt>
<trkpt lat="37.2511428" lon="-5.1138317">
<ele>2962</ele>
<time>2015-05-27T13:46:56Z</time>
</trkpt>
<trkpt lat="37.2519478" lon="-5.112945">
<ele>2954</ele>
<time>2015-05-27T13:47:07Z</time>
</trkpt>
<trkpt lat="37.2532476" lon="-5.1122717">
<ele>2931</ele>
<time>2015-05-27T13:47:21Z</time>
</trkpt>
<trkpt lat="37.2545785" lon="-5.1119642">
<ele>2906</ele>
<time>2015-05-27T13:47:34Z</time>
</trkpt>
<trkpt lat="37.2558638" lon="-5.1111182">
<ele>2882</ele>
<time>2015-05-27T13:47:49Z</time>
</trkpt>
<trkpt lat="37.256557" lon="-5.1103884">
<ele>2870</ele>
<time>2015-05-27T13:47:58Z</time>
</trkpt>
<trkpt lat="37.2571117" lon="-5.1096724">
<ele>2855</ele>
<time>2015-05-27T13:48:06Z</time>
</trkpt>
<trkpt lat="37.2578295" lon="-5.1086469">
<ele>2835</ele>
<time>2015-05-27T13:48:17Z</time>
</trkpt>
<trkpt lat="37.2584829" lon="-5.1080414">
<ele>2830</ele>
<time>2015-05-27T13:48:25Z</time>
</trkpt>
<trkpt lat="37.2592611" lon="-5.1074968">
<ele>2825</ele>
<time>2015-05-27T13:48:35Z</time>
</trkpt>
<trkpt lat="37.2600781" lon="-5.1064668">
<ele>2811</ele>
<time>2015-05-27T13:48:46Z</time>
</trkpt>
<trkpt lat="37.2607768" lon="-5.1058336">
<ele>2801</ele>
<time>2015-05-27T13:48:54Z</time>
</trkpt>
<trkpt lat="37.261436" lon="-5.105214">
<ele>2796</ele>
<time>2015-05-27T13:49:02Z</time>
</trkpt>
<trkpt lat="37.2621177" lon="-5.1046838">
<ele>2791</ele>
<time>2015-05-27T13:49:10Z</time>
</trkpt>
<trkpt lat="37.2630624" lon="-5.104188">
<ele>2779</ele>
<time>2015-05-27T13:49:19Z</time>
</trkpt>
<trkpt lat="37.2637866" lon="-5.1036523">
<ele>2775</ele>
<time>2015-05-27T13:49:27Z</time>
</trkpt>
<trkpt lat="37.2648712" lon="-5.1031238">
<ele>2758</ele>
<time>2015-05-27T13:49:38Z</time>
</trkpt>
<trkpt lat="37.2658328" lon="-5.1025245">
<ele>2743</ele>
<time>2015-05-27T13:49:47Z</time>
</trkpt>
<trkpt lat="37.2667173" lon="-5.102122">
<ele>2730</ele>
<time>2015-05-27T13:49:55Z</time>
</trkpt>
<trkpt lat="37.2676643" lon="-5.1016875">
<ele>2714</ele>
<time>2015-05-27T13:50:03Z</time>
</trkpt>
<trkpt lat="37.268539" lon="-5.1012075">
<ele>2697</ele>
<time>2015-05-27T13:50:11Z</time>
</trkpt>
<trkpt lat="37.2694281" lon="-5.1007895">
<ele>2685</ele>
<time>2015-05-27T13:50:19Z</time>
</trkpt>
<trkpt lat="37.270211" lon="-5.1003195">
<ele>2677</ele>
<time>2015-05-27T13:50:27Z</time>
</trkpt>
<trkpt lat="37.2710255" lon="-5.0998632">
<ele>2670</ele>
<time>2015-05-27T13:50:35Z</time>
</trkpt>
<trkpt lat="37.2718317" lon="-5.0994774">
<ele>2660</ele>
<time>2015-05-27T13:50:43Z</time>
</trkpt>
<trkpt lat="37.2727466" lon="-5.0990311">
<ele>2648</ele>
<time>2015-05-27T13:50:52Z</time>
</trkpt>
<trkpt lat="37.274139" lon="-5.0982789">
<ele>2622</ele>
<time>2015-05-27T13:51:08Z</time>
</trkpt>
<trkpt lat="37.2748893" lon="-5.0978249">
<ele>2619</ele>
<time>2015-05-27T13:51:18Z</time>
</trkpt>
<trkpt lat="37.2753921" lon="-5.0971924">
<ele>2615</ele>
<time>2015-05-27T13:51:27Z</time>
</trkpt>
<trkpt lat="37.2757954" lon="-5.0963865">
<ele>2619</ele>
<time>2015-05-27T13:51:37Z</time>
</trkpt>
<trkpt lat="37.276097" lon="-5.0955322">
<ele>2623</ele>
<time>2015-05-27T13:51:45Z</time>
</trkpt>
<trkpt lat="37.2767849" lon="-5.0951108">
<ele>2626</ele>
<time>2015-05-27T13:51:54Z</time>
</trkpt>
<trkpt lat="37.2773582" lon="-5.0944058">
<ele>2623</ele>
<time>2015-05-27T13:52:04Z</time>
</trkpt>
<trkpt lat="37.2779482" lon="-5.0934445">
<ele>2599</ele>
<time>2015-05-27T13:52:16Z</time>
</trkpt>
<trkpt lat="37.2786867" lon="-5.0925829">
<ele>2576</ele>
<time>2015-05-27T13:52:26Z</time>
</trkpt>
<trkpt lat="37.2792731" lon="-5.0912408">
<ele>2557</ele>
<time>2015-05-27T13:52:38Z</time>
</trkpt>
<trkpt lat="37.2799123" lon="-5.0901601">
<ele>2540</ele>
<time>2015-05-27T13:52:48Z</time>
</trkpt>
<trkpt lat="37.2802988" lon="-5.0893327">
<ele>2541</ele>
<time>2015-05-27T13:52:56Z</time>
</trkpt>
<trkpt lat="37.280688" lon="-5.0876971">
<ele>2526</ele>
<time>2015-05-27T13:53:10Z</time>
</trkpt>
<trkpt lat="37.2811729" lon="-5.0869079">
<ele>2501</ele>
<time>2015-05-27T13:53:18Z</time>
</trkpt>
<trkpt lat="37.2819184" lon="-5.086256">
<ele>2479</ele>
<time>2015-05-27T13:53:26Z</time>
</trkpt>
<trkpt lat="37.2827688" lon="-5.0853318">
<ele>2456</ele>
<time>2015-05-27T13:53:34Z</time>
</trkpt>
<trkpt lat="37.2837176" lon="-5.0842293">
<ele>2429</ele>
<time>2015-05-27T13:53:42Z</time>
</trkpt>
<trkpt lat="37.2846996" lon="-5.0830673">
<ele>2403</ele>
<time>2015-05-27T13:53:50Z</time>
</trkpt>
<trkpt lat="37.2856809" lon="-5.0819615">
<ele>2384</ele>
<time>2015-05-27T13:53:58Z</time>
</trkpt>
<trkpt lat="37.2866305" lon="-5.0809374">
<ele>2364</ele>
<time>2015-05-27T13:54:06Z</time>
</trkpt>
<trkpt lat="37.287589" lon="-5.0798857">
<ele>2336</ele>
<time>2015-05-27T13:54:14Z</time>
</trkpt>
<trkpt lat="37.2886003" lon="-5.0788803">
<ele>2311</ele>
<time>2015-05-27T13:54:22Z</time>
</trkpt>
<trkpt lat="37.2896604" lon="-5.0779272">
<ele>2287</ele>
<time>2015-05-27T13:54:30Z</time>
</trkpt>
<trkpt lat="37.2907103" lon="-5.0770753">
<ele>2264</ele>
<time>2015-05-27T13:54:38Z</time>
</trkpt>
<trkpt lat="37.2916038" lon="-5.0762941">
<ele>2267</ele>
<time>2015-05-27T13:54:48Z</time>
</trkpt>
<trkpt lat="37.2919497" lon="-5.075262">
<ele>2262</ele>
<time>2015-05-27T13:54:59Z</time>
</trkpt>
<trkpt lat="37.2930196" lon="-5.0747035">
<ele>2263</ele>
<time>2015-05-27T13:55:09Z</time>
</trkpt>
<trkpt lat="37.294096" lon="-5.074594">
<ele>2261</ele>
<time>2015-05-27T13:55:17Z</time>
</trkpt>
<trkpt lat="37.2951034" lon="-5.0744617">
<ele>2262</ele>
<time>2015-05-27T13:55:25Z</time>
</trkpt>
<trkpt lat="37.2960793" lon="-5.0742684">
<ele>2251</ele>
<time>2015-05-27T13:55:33Z</time>
</trkpt>
<trkpt lat="37.2969545" lon="-5.074068">
<ele>2239</ele>
<time>2015-05-27T13:55:41Z</time>
</trkpt>
<trkpt lat="37.2979283" lon="-5.073756">
<ele>2218</ele>
<time>2015-05-27T13:55:50Z</time>
</trkpt>
<trkpt lat="37.298776" lon="-5.0733561">
<ele>2201</ele>
<time>2015-05-27T13:55:58Z</time>
</trkpt>
<trkpt lat="37.300053" lon="-5.0728608">
<ele>2176</ele>
<time>2015-05-27T13:56:10Z</time>
</trkpt>
<trkpt lat="37.3008912" lon="-5.0723928">
<ele>2151</ele>
<time>2015-05-27T13:56:19Z</time>
</trkpt>
<trkpt lat="37.3016048" lon="-5.0720143">
<ele>2123</ele>
<time>2015-05-27T13:56:27Z</time>
</trkpt>
<trkpt lat="37.30234" lon="-5.0713425">
<ele>2095</ele>
<time>2015-05-27T13:56:37Z</time>
</trkpt>
<trkpt lat="37.3029954" lon="-5.0705823">
<ele>2071</ele>
<time>2015-05-27T13:56:48Z</time>
</trkpt>
<trkpt lat="37.3038807" lon="-5.0693773">
<ele>2038</ele>
<time>2015-05-27T13:57:02Z</time>
</trkpt>
<trkpt lat="37.3043509" lon="-5.0686346">
<ele>2017</ele>
<time>2015-05-27T13:57:10Z</time>
</trkpt>
<trkpt lat="37.3051708" lon="-5.0678731">
<ele>1984</ele>
<time>2015-05-27T13:57:20Z</time>
</trkpt>
<trkpt lat="37.3063613" lon="-5.0671233">
<ele>1942</ele>
<time>2015-05-27T13:57:32Z</time>
</trkpt>
<trkpt lat="37.3070523" lon="-5.0660148">
<ele>1902</ele>
<time>2015-05-27T13:57:43Z</time>
</trkpt>
<trkpt lat="37.3075788" lon="-5.0649063">
<ele>1869</ele>
<time>2015-05-27T13:57:53Z</time>
</trkpt>
<trkpt lat="37.3081906" lon="-5.0639779">
<ele>1837</ele>
<time>2015-05-27T13:58:01Z</time>
</trkpt>
<trkpt lat="37.3090312" lon="-5.0633778">
<ele>1809</ele>
<time>2015-05-27T13:58:09Z</time>
</trkpt>
<trkpt lat="37.3100776" lon="-5.0629565">
<ele>1777</ele>
<time>2015-05-27T13:58:18Z</time>
</trkpt>
<trkpt lat="37.3109035" lon="-5.0623159">
<ele>1751</ele>
<time>2015-05-27T13:58:26Z</time>
</trkpt>
<trkpt lat="37.3117916" lon="-5.0614671">
<ele>1718</ele>
<time>2015-05-27T13:58:35Z</time>
</trkpt>
<trkpt lat="37.3127235" lon="-5.0605402">
<ele>1688</ele>
<time>2015-05-27T13:58:46Z</time>
</trkpt>
<trkpt lat="37.3133255" lon="-5.0597153">
<ele>1665</ele>
<time>2015-05-27T13:58:55Z</time>
</trkpt>
<trkpt lat="37.3137773" lon="-5.0587133">
<ele>1654</ele>
<time>2015-05-27T13:59:04Z</time>
</trkpt>
<trkpt lat="37.3139509" lon="-5.0578448">
<ele>1646</ele>
<time>2015-05-27T13:59:12Z</time>
</trkpt>
<trkpt lat="37.3140265" lon="-5.0567169">
<ele>1633</ele>
<time>2015-05-27T13:59:22Z</time>
</trkpt>
<trkpt lat="37.3141224" lon="-5.0548299">
<ele>1620</ele>
<time>2015-05-27T13:59:38Z</time>
</trkpt>
<trkpt lat="37.3141345" lon="-5.0533006">
<ele>1626</ele>
<time>2015-05-27T13:59:52Z</time>
</trkpt>
<trkpt lat="37.3133955" lon="-5.0523841">
<ele>1668</ele>
<time>2015-05-27T14:00:07Z</time>
</trkpt>
<trkpt lat="37.3133477" lon="-5.053438">
<ele>1687</ele>
<time>2015-05-27T14:00:17Z</time>
</trkpt>
<trkpt lat="37.3139575" lon="-5.0535212">
<ele>1700</ele>
<time>2015-05-27T14:00:27Z</time>
</trkpt>
<trkpt lat="37.3140369" lon="-5.052613">
<ele>1718</ele>
<time>2015-05-27T14:00:36Z</time>
</trkpt>
<trkpt lat="37.3136722" lon="-5.0519022">
<ele>1734</ele>
<time>2015-05-27T14:00:44Z</time>
</trkpt>
<trkpt lat="37.3127059" lon="-5.0524363">
<ele>1768</ele>
<time>2015-05-27T14:00:59Z</time>
</trkpt>
<trkpt lat="37.3134011" lon="-5.0525014">
<ele>1798</ele>
<time>2015-05-27T14:01:13Z</time>
</trkpt>
<trkpt lat="37.3130208" lon="-5.0515346">
<ele>1818</ele>
<time>2015-05-27T14:01:24Z</time>
</trkpt>
<trkpt lat="37.3127081" lon="-5.0523722">
<ele>1849</ele>
<time>2015-05-27T14:01:38Z</time>
</trkpt>
<trkpt lat="37.3133444" lon="-5.0518822">
<ele>1873</ele>
<time>2015-05-27T14:01:49Z</time>
</trkpt>
<trkpt lat="37.3128615" lon="-5.0508702">
<ele>1895</ele>
<time>2015-05-27T14:02:01Z</time>
</trkpt>
<trkpt lat="37.3123913" lon="-5.0518095">
<ele>1921</ele>
<time>2015-05-27T14:02:13Z</time>
</trkpt>
<trkpt lat="37.3130343" lon="-5.0520453">
<ele>1935</ele>
<time>2015-05-27T14:02:23Z</time>
</trkpt>
<trkpt lat="37.3134513" lon="-5.051392">
<ele>1954</ele>
<time>2015-05-27T14:02:32Z</time>
</trkpt>
<trkpt lat="37.3129869" lon="-5.0507205">
<ele>1973</ele>
<time>2015-05-27T14:02:41Z</time>
</trkpt>
<trkpt lat="37.3123895" lon="-5.0515124">
<ele>1996</ele>
<time>2015-05-27T14:02:53Z</time>
</trkpt>
<trkpt lat="37.3129056" lon="-5.0520044">
<ele>2010</ele>
<time>2015-05-27T14:03:01Z</time>
</trkpt>
<trkpt lat="37.313434" lon="-5.0513407">
<ele>2034</ele>
<time>2015-05-27T14:03:11Z</time>
</trkpt>
<trkpt lat="37.3130475" lon="-5.050528">
<ele>2064</ele>
<time>2015-05-27T14:03:20Z</time>
</trkpt>
<trkpt lat="37.312137" lon="-5.0507157">
<ele>2091</ele>
<time>2015-05-27T14:03:30Z</time>
</trkpt>
<trkpt lat="37.3121408" lon="-5.0519025">
<ele>2103</ele>
<time>2015-05-27T14:03:40Z</time>
</trkpt>
<trkpt lat="37.3132084" lon="-5.0527392">
<ele>2126</ele>
<time>2015-05-27T14:03:54Z</time>
</trkpt>
<trkpt lat="37.3141615" lon="-5.0524622">
<ele>2166</ele>
<time>2015-05-27T14:04:06Z</time>
</trkpt>
<trkpt lat="37.3140718" lon="-5.0514797">
<ele>2213</ele>
<time>2015-05-27T14:04:19Z</time>
</trkpt>
<trkpt lat="37.3141198" lon="-5.0524287">
<ele>2279</ele>
<time>2015-05-27T14:04:33Z</time>
</trkpt>
<trkpt lat="37.3142278" lon="-5.0511581">
<ele>2328</ele>
<time>2015-05-27T14:04:47Z</time>
</trkpt>
<trkpt lat="37.313859" lon="-5.0523026">
<ele>2387</ele>
<time>2015-05-27T14:05:03Z</time>
</trkpt>
<trkpt lat="37.3149175" lon="-5.0518607">
<ele>2425</ele>
<time>2015-05-27T14:05:18Z</time>
</trkpt>
<trkpt lat="37.3141116" lon="-5.0512753">
<ele>2453</ele>
<time>2015-05-27T14:05:28Z</time>
</trkpt>
<trkpt lat="37.3137041" lon="-5.052466">
<ele>2497</ele>
<time>2015-05-27T14:05:39Z</time>
</trkpt>
<trkpt lat="37.3142932" lon="-5.0531994">
<ele>2530</ele>
<time>2015-05-27T14:05:49Z</time>
</trkpt>
<trkpt lat="37.3149632" lon="-5.0527786">
<ele>2555</ele>
<time>2015-05-27T14:05:59Z</time>
</trkpt>
<trkpt lat="37.3140629" lon="-5.0524111">
<ele>2582</ele>
<time>2015-05-27T14:06:10Z</time>
</trkpt>
<trkpt lat="37.313327" lon="-5.0534021">
<ele>2622</ele>
<time>2015-05-27T14:06:22Z</time>
</trkpt>
<trkpt lat="37.3139733" lon="-5.0544306">
<ele>2666</ele>
<time>2015-05-27T14:06:34Z</time>
</trkpt>
<trkpt lat="37.3147809" lon="-5.054432">
<ele>2686</ele>
<time>2015-05-27T14:06:43Z</time>
</trkpt>
<trkpt lat="37.3146085" lon="-5.0535416">
<ele>2697</ele>
<time>2015-05-27T14:06:54Z</time>
</trkpt>
<trkpt lat="37.3137587" lon="-5.0533353">
<ele>2713</ele>
<time>2015-05-27T14:07:04Z</time>
</trkpt>
<trkpt lat="37.3137518" lon="-5.0527414">
<ele>2758</ele>
<time>2015-05-27T14:07:19Z</time>
</trkpt>
<trkpt lat="37.3138132" lon="-5.0538883">
<ele>2768</ele>
<time>2015-05-27T14:07:29Z</time>
</trkpt>
<trkpt lat="37.3130104" lon="-5.0534401">
<ele>2811</ele>
<time>2015-05-27T14:07:46Z</time>
</trkpt>
<trkpt lat="37.3136192" lon="-5.0543485">
<ele>2838</ele>
<time>2015-05-27T14:07:59Z</time>
</trkpt>
<trkpt lat="37.3126597" lon="-5.0542169">
<ele>2879</ele>
<time>2015-05-27T14:08:15Z</time>
</trkpt>
<trkpt lat="37.3132762" lon="-5.0546515">
<ele>2912</ele>
<time>2015-05-27T14:08:28Z</time>
</trkpt>
<trkpt lat="37.3126576" lon="-5.0554294">
<ele>2928</ele>
<time>2015-05-27T14:08:36Z</time>
</trkpt>
<trkpt lat="37.3119715" lon="-5.0547651">
<ele>2949</ele>
<time>2015-05-27T14:08:47Z</time>
</trkpt>
<trkpt lat="37.3130393" lon="-5.0544606">
<ele>2976</ele>
<time>2015-05-27T14:09:03Z</time>
</trkpt>
<trkpt lat="37.3122532" lon="-5.0551207">
<ele>2999</ele>
<time>2015-05-27T14:09:14Z</time>
</trkpt>
<trkpt lat="37.3118316" lon="-5.0542802">
<ele>3015</ele>
<time>2015-05-27T14:09:23Z</time>
</trkpt>
<trkpt lat="37.3126403" lon="-5.0539144">
<ele>3033</ele>
<time>2015-05-27T14:09:34Z</time>
</trkpt>
<trkpt lat="37.3123966" lon="-5.0549016">
<ele>3043</ele>
<time>2015-05-27T14:09:42Z</time>
</trkpt>
<trkpt lat="37.3116289" lon="-5.0548121">
<ele>3060</ele>
<time>2015-05-27T14:09:51Z</time>
</trkpt>
<trkpt lat="37.3122543" lon="-5.0543277">
<ele>3072</ele>
<time>2015-05-27T14:10:01Z</time>
</trkpt>
<trkpt lat="37.3122639" lon="-5.0554162">
<ele>3080</ele>
<time>2015-05-27T14:10:11Z</time>
</trkpt>
<trkpt lat="37.3118625" lon="-5.054587">
<ele>3097</ele>
<time>2015-05-27T14:10:24Z</time>
</trkpt>
<trkpt lat="37.312502" lon="-5.0551006">
<ele>3104</ele>
<time>2015-05-27T14:10:34Z</time>
</trkpt>
<trkpt lat="37.3119538" lon="-5.0548253">
<ele>3109</ele>
<time>2015-05-27T14:10:45Z</time>
</trkpt>
<trkpt lat="37.3127588" lon="-5.0537281">
<ele>3122</ele>
<time>2015-05-27T14:10:59Z</time>
</trkpt>
<trkpt lat="37.3140113" lon="-5.0526369">
<ele>3118</ele>
<time>2015-05-27T14:11:15Z</time>
</trkpt>
<trkpt lat="37.3146044" lon="-5.0520122">
<ele>3115</ele>
<time>2015-05-27T14:11:23Z</time>
</trkpt>
<trkpt lat="37.3154749" lon="-5.0511674">
<ele>3116</ele>
<time>2015-05-27T14:11:35Z</time>
</trkpt>
<trkpt lat="37.3162323" lon="-5.0504478">
<ele>3109</ele>
<time>2015-05-27T14:11:46Z</time>
</trkpt>
<trkpt lat="37.3168534" lon="-5.049618">
<ele>3105</ele>
<time>2015-05-27T14:11:56Z</time>
</trkpt>
<trkpt lat="37.317539" lon="-5.0486562">
<ele>3087</ele>
<time>2015-05-27T14:12:06Z</time>
</trkpt>
<trkpt lat="37.3181326" lon="-5.0477134">
<ele>3064</ele>
<time>2015-05-27T14:12:14Z</time>
</trkpt>
<trkpt lat="37.3188075" lon="-5.0468035">
<ele>3045</ele>
<time>2015-05-27T14:12:22Z</time>
</trkpt>
<trkpt lat="37.3194741" lon="-5.0456633">
<ele>3019</ele>
<time>2015-05-27T14:12:32Z</time>
</trkpt>
<trkpt lat="37.31992" lon="-5.0446022">
<ele>3003</ele>
<time>2015-05-27T14:12:40Z</time>
</trkpt>
<trkpt lat="37.3204914" lon="-5.0435546">
<ele>2983</ele>
<time>2015-05-27T14:12:48Z</time>
</trkpt>
<trkpt lat="37.3211003" lon="-5.0424289">
<ele>2973</ele>
<time>2015-05-27T14:12:58Z</time>
</trkpt>
<trkpt lat="37.3216722" lon="-5.0414277">
<ele>2961</ele>
<time>2015-05-27T14:13:07Z</time>
</trkpt>
<trkpt lat="37.3224901" lon="-5.0404542">
<ele>2947</ele>
<time>2015-05-27T14:13:17Z</time>
</trkpt>
<trkpt lat="37.3230623" lon="-5.0397077">
<ele>2938</ele>
<time>2015-05-27T14:13:27Z</time>
</trkpt>
<trkpt lat="37.3240486" lon="-5.0385996">
<ele>2922</ele>
<time>2015-05-27T14:13:39Z</time>
</trkpt>
<trkpt lat="37.3248839" lon="-5.0374408">
<ele>2912</ele>
<time>2015-05-27T14:13:50Z</time>
</trkpt>
<trkpt lat="37.3250084" lon="-5.0372493">
<ele>2914</ele>
<time>2015-05-27T14:13:52Z</time>
</trkpt>
<trkpt lat="37.3256818" lon="-5.0363859">
<ele>2903</ele>
<time>2015-05-27T14:14:02Z</time>
</trkpt>
<trkpt lat="37.3264323" lon="-5.0357024">
<ele>2885</ele>
<time>2015-05-27T14:14:10Z</time>
</trkpt>
<trkpt lat="37.3272918" lon="-5.0349187">
<ele>2866</ele>
<time>2015-05-27T14:14:19Z</time>
</trkpt>
<trkpt lat="37.3281484" lon="-5.0342015">
<ele>2844</ele>
<time>2015-05-27T14:14:27Z</time>
</trkpt>
<trkpt lat="37.3288752" lon="-5.0334453">
<ele>2826</ele>
<time>2015-05-27T14:14:35Z</time>
</trkpt>
<trkpt lat="37.329628" lon="-5.0326922">
<ele>2814</ele>
<time>2015-05-27T14:14:43Z</time>
</trkpt>
<trkpt lat="37.3304355" lon="-5.0320922">
<ele>2804</ele>
<time>2015-05-27T14:14:51Z</time>
</trkpt>
<trkpt lat="37.3313299" lon="-5.0310847">
<ele>2790</ele>
<time>2015-05-27T14:15:02Z</time>
</trkpt>
<trkpt lat="37.3320895" lon="-5.030107">
<ele>2771</ele>
<time>2015-05-27T14:15:12Z</time>
</trkpt>
<trkpt lat="37.3328577" lon="-5.0290253">
<ele>2748</ele>
<time>2015-05-27T14:15:23Z</time>
</trkpt>
<trkpt lat="37.3334875" lon="-5.0278584">
<ele>2736</ele>
<time>2015-05-27T14:15:33Z</time>
</trkpt>
<trkpt lat="37.3342125" lon="-5.0271347">
<ele>2716</ele>
<time>2015-05-27T14:15:41Z</time>
</trkpt>
<trkpt lat="37.3348256" lon="-5.0263817">
<ele>2690</ele>
<time>2015-05-27T14:15:49Z</time>
</trkpt>
<trkpt lat="37.3354483" lon="-5.0253935">
<ele>2669</ele>
<time>2015-05-27T14:15:58Z</time>
</trkpt>
<trkpt lat="37.3361082" lon="-5.0244749">
<ele>2654</ele>
<time>2015-05-27T14:16:08Z</time>
</trkpt>
<trkpt lat="37.3368932" lon="-5.0236667">
<ele>2646</ele>
<time>2015-05-27T14:16:18Z</time>
</trkpt>
<trkpt lat="37.3377764" lon="-5.0227224">
<ele>2632</ele>
<time>2015-05-27T14:16:31Z</time>
</trkpt>
<trkpt lat="37.3382281" lon="-5.0220166">
<ele>2627</ele>
<time>2015-05-27T14:16:39Z</time>
</trkpt>
<trkpt lat="37.3386146" lon="-5.0212739">
<ele>2619</ele>
<time>2015-05-27T14:16:47Z</time>
</trkpt>
<trkpt lat="37.3390397" lon="-5.0205142">
<ele>2613</ele>
<time>2015-05-27T14:16:55Z</time>
</trkpt>
<trkpt lat="37.3395206" lon="-5.0198451">
<ele>2612</ele>
<time>2015-05-27T14:17:03Z</time>
</trkpt>
<trkpt lat="37.3398896" lon="-5.0191636">
<ele>2612</ele>
<time>2015-05-27T14:17:11Z</time>
</trkpt>
<trkpt lat="37.3403926" lon="-5.0182965">
<ele>2616</ele>
<time>2015-05-27T14:17:23Z</time>
</trkpt>
<trkpt lat="37.3406756" lon="-5.017617">
<ele>2616</ele>
<time>2015-05-27T14:17:31Z</time>
</trkpt>
<trkpt lat="37.3408581" lon="-5.0167205">
<ele>2612</ele>
<time>2015-05-27T14:17:41Z</time>
</trkpt>
<trkpt lat="37.3411051" lon="-5.0159703">
<ele>2609</ele>
<time>2015-05-27T14:17:49Z</time>
</trkpt>
<trkpt lat="37.3414174" lon="-5.0152594">
<ele>2608</ele>
<time>2015-05-27T14:17:57Z</time>
</trkpt>
<trkpt lat="37.3419737" lon="-5.0145225">
<ele>2607</ele>
<time>2015-05-27T14:18:08Z</time>
</trkpt>
<trkpt lat="37.3423692" lon="-5.0137457">
<ele>2601</ele>
<time>2015-05-27T14:18:18Z</time>
</trkpt>
<trkpt lat="37.342813" lon="-5.0129268">
<ele>2602</ele>
<time>2015-05-27T14:18:29Z</time>
</trkpt>
<trkpt lat="37.3433654" lon="-5.0121843">
<ele>2589</ele>
<time>2015-05-27T14:18:39Z</time>
</trkpt>
<trkpt lat="37.3437596" lon="-5.0113389">
<ele>2577</ele>
<time>2015-05-27T14:18:48Z</time>
</trkpt>
<trkpt lat="37.344011" lon="-5.0105279">
<ele>2572</ele>
<time>2015-05-27T14:18:56Z</time>
</trkpt>
<trkpt lat="37.3440356" lon="-5.009439">
<ele>2562</ele>
<time>2015-05-27T14:19:08Z</time>
</trkpt>
<trkpt lat="37.3441653" lon="-5.0085489">
<ele>2545</ele>
<time>2015-05-27T14:19:17Z</time>
</trkpt>
<trkpt lat="37.344312" lon="-5.0076391">
<ele>2530</ele>
<time>2015-05-27T14:19:26Z</time>
</trkpt>
<trkpt lat="37.344526" lon="-5.0068013">
<ele>2512</ele>
<time>2015-05-27T14:19:35Z</time>
</trkpt>
<trkpt lat="37.3446713" lon="-5.0059412">
<ele>2498</ele>
<time>2015-05-27T14:19:43Z</time>
</trkpt>
<trkpt lat="37.3449276" lon="-5.0050984">
<ele>2483</ele>
<time>2015-05-27T14:19:53Z</time>
</trkpt>
<trkpt lat="37.3451732" lon="-5.0041878">
<ele>2463</ele>
<time>2015-05-27T14:20:03Z</time>
</trkpt>
<trkpt lat="37.3455663" lon="-5.0034807">
<ele>2448</ele>
<time>2015-05-27T14:20:11Z</time>
</trkpt>
<trkpt lat="37.345911" lon="-5.0027612">
<ele>2431</ele>
<time>2015-05-27T14:20:19Z</time>
</trkpt>
<trkpt lat="37.3462556" lon="-5.002078">
<ele>2421</ele>
<time>2015-05-27T14:20:27Z</time>
</trkpt>
<trkpt lat="37.3466697" lon="-5.0012885">
<ele>2412</ele>
<time>2015-05-27T14:20:38Z</time>
</trkpt>
<trkpt lat="37.3468848" lon="-5.00026">
<ele>2391</ele>
<time>2015-05-27T14:20:50Z</time>
</trkpt>
<trkpt lat="37.3472772" lon="-4.9994456">
<ele>2381</ele>
<time>2015-05-27T14:21:01Z</time>
</trkpt>
<trkpt lat="37.3476204" lon="-4.998474">
<ele>2383</ele>
<time>2015-05-27T14:21:13Z</time>
</trkpt>
<trkpt lat="37.3484287" lon="-4.9989325">
<ele>2388</ele>
<time>2015-05-27T14:21:23Z</time>
</trkpt>
<trkpt lat="37.3480716" lon="-5.0002591">
<ele>2383</ele>
<time>2015-05-27T14:21:33Z</time>
</trkpt>
<trkpt lat="37.3469814" lon="-4.9996778">
<ele>2384</ele>
<time>2015-05-27T14:21:45Z</time>
</trkpt>
<trkpt lat="37.3461939" lon="-5.0001303">
<ele>2405</ele>
<time>2015-05-27T14:22:00Z</time>
</trkpt>
<trkpt lat="37.3470765" lon="-5.0001264">
<ele>2418</ele>
<time>2015-05-27T14:22:16Z</time>
</trkpt>
<trkpt lat="37.3470429" lon="-4.9993411">
<ele>2429</ele>
<time>2015-05-27T14:22:24Z</time>
</trkpt>
<trkpt lat="37.3460993" lon="-4.99903">
<ele>2449</ele>
<time>2015-05-27T14:22:35Z</time>
</trkpt>
<trkpt lat="37.346304" lon="-4.9999179">
<ele>2469</ele>
<time>2015-05-27T14:22:47Z</time>
</trkpt>
<trkpt lat="37.3456376" lon="-4.9989559">
<ele>2501</ele>
<time>2015-05-27T14:23:01Z</time>
</trkpt>
<trkpt lat="37.3454771" lon="-5.0000834">
<ele>2541</ele>
<time>2015-05-27T14:23:15Z</time>
</trkpt>
<trkpt lat="37.3450928" lon="-4.999158">
<ele>2579</ele>
<time>2015-05-27T14:23:29Z</time>
</trkpt>
<trkpt lat="37.3447791" lon="-5.0000997">
<ele>2617</ele>
<time>2015-05-27T14:23:40Z</time>
</trkpt>
<trkpt lat="37.3454243" lon="-4.9997928">
<ele>2642</ele>
<time>2015-05-27T14:23:50Z</time>
</trkpt>
<trkpt lat="37.3446989" lon="-4.9991608">
<ele>2665</ele>
<time>2015-05-27T14:24:00Z</time>
</trkpt>
<trkpt lat="37.3446874" lon="-4.9998545">
<ele>2707</ele>
<time>2015-05-27T14:24:16Z</time>
</trkpt>
<trkpt lat="37.3441185" lon="-4.9990135">
<ele>2731</ele>
<time>2015-05-27T14:24:24Z</time>
</trkpt>
<trkpt lat="37.343085" lon="-4.9996716">
<ele>2766</ele>
<time>2015-05-27T14:24:36Z</time>
</trkpt>
<trkpt lat="37.3435112" lon="-4.9994345">
<ele>2802</ele>
<time>2015-05-27T14:24:48Z</time>
</trkpt>
<trkpt lat="37.3424561" lon="-4.9993528">
<ele>2818</ele>
<time>2015-05-27T14:24:57Z</time>
</trkpt>
<trkpt lat="37.3429454" lon="-5.000083">
<ele>2855</ele>
<time>2015-05-27T14:25:13Z</time>
</trkpt>
<trkpt lat="37.3417295" lon="-4.9997161">
<ele>2880</ele>
<time>2015-05-27T14:25:27Z</time>
</trkpt>
<trkpt lat="37.3422452" lon="-4.9999631">
<ele>2903</ele>
<time>2015-05-27T14:25:43Z</time>
</trkpt>
<trkpt lat="37.3410059" lon="-4.9991471">
<ele>2923</ele>
<time>2015-05-27T14:25:59Z</time>
</trkpt>
<trkpt lat="37.3414014" lon="-4.9999831">
<ele>2940</ele>
<time>2015-05-27T14:26:14Z</time>
</trkpt>
<trkpt lat="37.3411052" lon="-4.9990223">
<ele>2957</ele>
<time>2015-05-27T14:26:24Z</time>
</trkpt>
<trkpt lat="37.3409107" lon="-5.0001596">
<ele>2967</ele>
<time>2015-05-27T14:26:39Z</time>
</trkpt>
<trkpt lat="37.3415539" lon="-4.9994382">
<ele>2988</ele>
<time>2015-05-27T14:26:52Z</time>
</trkpt>
<trkpt lat="37.3411835" lon="-4.9988188">
<ele>2999</ele>
<time>2015-05-27T14:27:01Z</time>
</trkpt>
<trkpt lat="37.3406038" lon="-4.9995273">
<ele>3005</ele>
<time>2015-05-27T14:27:09Z</time>
</trkpt>
<trkpt lat="37.341247" lon="-5.0005436">
<ele>3023</ele>
<time>2015-05-27T14:27:23Z</time>
</trkpt>
<trkpt lat="37.3414065" lon="-4.999757">
<ele>3037</ele>
<time>2015-05-27T14:27:36Z</time>
</trkpt>
<trkpt lat="37.3405343" lon="-5.0000166">
<ele>3033</ele>
<time>2015-05-27T14:27:46Z</time>
</trkpt>
<trkpt lat="37.340966" lon="-5.0007478">
<ele>3032</ele>
<time>2015-05-27T14:28:01Z</time>
</trkpt>
<trkpt lat="37.3403106" lon="-4.999912">
<ele>3032</ele>
<time>2015-05-27T14:28:11Z</time>
</trkpt>
<trkpt lat="37.3396376" lon="-5.0008244">
<ele>3026</ele>
<time>2015-05-27T14:28:21Z</time>
</trkpt>
<trkpt lat="37.3402775" lon="-5.0006814">
<ele>3012</ele>
<time>2015-05-27T14:28:35Z</time>
</trkpt>
<trkpt lat="37.3395589" lon="-5.0000475">
<ele>3005</ele>
<time>2015-05-27T14:28:43Z</time>
</trkpt>
<trkpt lat="37.338375" lon="-5.0011345">
<ele>2989</ele>
<time>2015-05-27T14:28:56Z</time>
</trkpt>
<trkpt lat="37.3384147" lon="-5.0025798">
<ele>2970</ele>
<time>2015-05-27T14:29:07Z</time>
</trkpt>
<trkpt lat="37.3388741" lon="-5.0035601">
<ele>2955</ele>
<time>2015-05-27T14:29:17Z</time>
</trkpt>
<trkpt lat="37.3400076" lon="-5.0039672">
<ele>2938</ele>
<time>2015-05-27T14:29:31Z</time>
</trkpt>
<trkpt lat="37.3405006" lon="-5.0032737">
<ele>2931</ele>
<time>2015-05-27T14:29:41Z</time>
</trkpt>
<trkpt lat="37.3401725" lon="-5.0022335">
<ele>2921</ele>
<time>2015-05-27T14:29:54Z</time>
</trkpt>
<trkpt lat="37.3404293" lon="-5.0015029">
<ele>2909</ele>
<time>2015-05-27T14:30:02Z</time>
</trkpt>
<trkpt lat="37.3414665" lon="-5.0012903">
<ele>2895</ele>
<time>2015-05-27T14:30:15Z</time>
</trkpt>
<trkpt lat="37.3419911" lon="-5.000684">
<ele>2886</ele>
<time>2015-05-27T14:30:23Z</time>
</trkpt>
<trkpt lat="37.342412" lon="-4.999602">
<ele>2891</ele>
<time>2015-05-27T14:30:35Z</time>
</trkpt>
<trkpt lat="37.3429731" lon="-4.9994079">
<ele>2891</ele>
<time>2015-05-27T14:30:48Z</time>
</trkpt>
<trkpt lat="37.3424211" lon="-5.0001611">
<ele>2894</ele>
<time>2015-05-27T14:30:57Z</time>
</trkpt>
<trkpt lat="37.3424789" lon="-4.9991549">
<ele>2885</ele>
<time>2015-05-27T14:31:10Z</time>
</trkpt>
<trkpt lat="37.3425586" lon="-5.0001173">
<ele>2882</ele>
<time>2015-05-27T14:31:25Z</time>
</trkpt>
<trkpt lat="37.3419828" lon="-4.9993474">
<ele>2872</ele>
<time>2015-05-27T14:31:36Z</time>
</trkpt>
<trkpt lat="37.3424851" lon="-4.9987261">
<ele>2863</ele>
<time>2015-05-27T14:31:45Z</time>
</trkpt>
<trkpt lat="37.3427895" lon="-4.9974918">
<ele>2857</ele>
<time>2015-05-27T14:31:56Z</time>
</trkpt>
<trkpt lat="37.3428525" lon="-4.9963588">
<ele>2860</ele>
<time>2015-05-27T14:32:05Z</time>
</trkpt>
<trkpt lat="37.3435739" lon="-4.9954337">
<ele>2883</ele>
<time>2015-05-27T14:32:18Z</time>
</trkpt>
<trkpt lat="37.3432515" lon="-4.9951764">
<ele>2933</ele>
<time>2015-05-27T14:32:32Z</time>
</trkpt>
<trkpt lat="37.3436199" lon="-4.9954231">
<ele>2980</ele>
<time>2015-05-27T14:32:47Z</time>
</trkpt>
<trkpt lat="37.3428635" lon="-4.9959798">
<ele>3014</ele>
<time>2015-05-27T14:32:59Z</time>
</trkpt>
<trkpt lat="37.3428521" lon="-4.9955705">
<ele>3052</ele>
<time>2015-05-27T14:33:14Z</time>
</trkpt>
<trkpt lat="37.342979" lon="-4.9965176">
<ele>3075</ele>
<time>2015-05-27T14:33:28Z</time>
</trkpt>
<trkpt lat="37.3422623" lon="-4.9961261">
<ele>3096</ele>
<time>2015-05-27T14:33:39Z</time>
</trkpt>
<trkpt lat="37.3428003" lon="-4.9964461">
<ele>3114</ele>
<time>2015-05-27T14:33:52Z</time>
</trkpt>
<trkpt lat="37.3417794" lon="-4.9964835">
<ele>3128</ele>
<time>2015-05-27T14:34:05Z</time>
</trkpt>
<trkpt lat="37.3419912" lon="-4.9975014">
<ele>3130</ele>
<time>2015-05-27T14:34:19Z</time>
</trkpt>
<trkpt lat="37.3422718" lon="-4.9966481">
<ele>3135</ele>
<time>2015-05-27T14:34:28Z</time>
</trkpt>
<trkpt lat="37.3416364" lon="-4.9966495">
<ele>3139</ele>
<time>2015-05-27T14:34:41Z</time>
</trkpt>
<trkpt lat="37.3423896" lon="-4.9971238">
<ele>3141</ele>
<time>2015-05-27T14:34:52Z</time>
</trkpt>
<trkpt lat="37.342909" lon="-4.9963253">
<ele>3148</ele>
<time>2015-05-27T14:35:07Z</time>
</trkpt>
<trkpt lat="37.3425664" lon="-4.9966391">
<ele>3158</ele>
<time>2015-05-27T14:35:23Z</time>
</trkpt>
<trkpt lat="37.3422859" lon="-4.9978375">
<ele>3155</ele>
<time>2015-05-27T14:35:33Z</time>
</trkpt>
<trkpt lat="37.343152" lon="-4.9977914">
<ele>3145</ele>
<time>2015-05-27T14:35:43Z</time>
</trkpt>
<trkpt lat="37.343963" lon="-4.997187">
<ele>3152</ele>
<time>2015-05-27T14:35:56Z</time>
</trkpt>
<trkpt lat="37.3449161" lon="-4.997234">
<ele>3162</ele>
<time>2015-05-27T14:36:07Z</time>
</trkpt>
<trkpt lat="37.3455983" lon="-4.9974817">
<ele>3170</ele>
<time>2015-05-27T14:36:15Z</time>
</trkpt>
<trkpt lat="37.3462899" lon="-4.9978256">
<ele>3183</ele>
<time>2015-05-27T14:36:23Z</time>
</trkpt>
<trkpt lat="37.3473048" lon="-4.9982798">
<ele>3197</ele>
<time>2015-05-27T14:36:33Z</time>
</trkpt>
<trkpt lat="37.3480551" lon="-4.9986017">
<ele>3197</ele>
<time>2015-05-27T14:36:42Z</time>
</trkpt>
<trkpt lat="37.3488703" lon="-4.9990862">
<ele>3189</ele>
<time>2015-05-27T14:36:53Z</time>
</trkpt>
<trkpt lat="37.3497976" lon="-5.0002402">
<ele>3179</ele>
<time>2015-05-27T14:37:07Z</time>
</trkpt>
<trkpt lat="37.3505538" lon="-5.0006483">
<ele>3170</ele>
<time>2015-05-27T14:37:18Z</time>
</trkpt>
<trkpt lat="37.3515439" lon="-4.9996627">
<ele>3149</ele>
<time>2015-05-27T14:37:33Z</time>
</trkpt>
<trkpt lat="37.3516916" lon="-4.9987086">
<ele>3142</ele>
<time>2015-05-27T14:37:41Z</time>
</trkpt>
<trkpt lat="37.3520007" lon="-4.9972619">
<ele>3129</ele>
<time>2015-05-27T14:37:55Z</time>
</trkpt>
<trkpt lat="37.3522532" lon="-4.995943">
<ele>3127</ele>
<time>2015-05-27T14:38:08Z</time>
</trkpt>
<trkpt lat="37.3524468" lon="-4.9949538">
<ele>3126</ele>
<time>2015-05-27T14:38:18Z</time>
</trkpt>
<trkpt lat="37.3525835" lon="-4.9936623">
<ele>3118</ele>
<time>2015-05-27T14:38:30Z</time>
</trkpt>
<trkpt lat="37.3526212" lon="-4.9924516">
<ele>3120</ele>
<time>2015-05-27T14:38:41Z</time>
</trkpt>
<trkpt lat="37.3525209" lon="-4.9913196">
<ele>3121</ele>
<time>2015-05-27T14:38:51Z</time>
</trkpt>
<trkpt lat="37.3523461" lon="-4.9902724">
<ele>3120</ele>
<time>2015-05-27T14:39:01Z</time>
</trkpt>
<trkpt lat="37.3521151" lon="-4.9891575">
<ele>3117</ele>
<time>2015-05-27T14:39:10Z</time>
</trkpt>
<trkpt lat="37.3521255" lon="-4.9878551">
<ele>3109</ele>
<time>2015-05-27T14:39:21Z</time>
</trkpt>
<trkpt lat="37.3521881" lon="-4.9864955">
<ele>3101</ele>
<time>2015-05-27T14:39:32Z</time>
</trkpt>
<trkpt lat="37.352166" lon="-4.9854436">
<ele>3095</ele>
<time>2015-05-27T14:39:40Z</time>
</trkpt>
<trkpt lat="37.3521642" lon="-4.9843326">
<ele>3085</ele>
<time>2015-05-27T14:39:48Z</time>
</trkpt>
<trkpt lat="37.3522262" lon="-4.9831643">
<ele>3075</ele>
<time>2015-05-27T14:39:57Z</time>
</trkpt>
<trkpt lat="37.352307" lon="-4.982011">
<ele>3076</ele>
<time>2015-05-27T14:40:05Z</time>
</trkpt>
<trkpt lat="37.3524651" lon="-4.9808591">
<ele>3073</ele>
<time>2015-05-27T14:40:13Z</time>
</trkpt>
<trkpt lat="37.3525845" lon="-4.979751">
<ele>3072</ele>
<time>2015-05-27T14:40:21Z</time>
</trkpt>
<trkpt lat="37.3528096" lon="-4.9785797">
<ele>3060</ele>
<time>2015-05-27T14:40:29Z</time>
</trkpt>
<trkpt lat="37.3529682" lon="-4.9772537">
<ele>3044</ele>
<time>2015-05-27T14:40:38Z</time>
</trkpt>
<trkpt lat="37.3531535" lon="-4.9760097">
<ele>3025</ele>
<time>2015-05-27T14:40:46Z</time>
</trkpt>
<trkpt lat="37.3532902" lon="-4.9748329">
<ele>3012</ele>
<time>2015-05-27T14:40:54Z</time>
</trkpt>
<trkpt lat="37.353313" lon="-4.9736371">
<ele>3002</ele>
<time>2015-05-27T14:41:02Z</time>
</trkpt>
<trkpt lat="37.3534451" lon="-4.9724575">
<ele>2994</ele>
<time>2015-05-27T14:41:10Z</time>
</trkpt>
<trkpt lat="37.3536261" lon="-4.9711588">
<ele>2986</ele>
<time>2015-05-27T14:41:19Z</time>
</trkpt>
<trkpt lat="37.3537516" lon="-4.9699885">
<ele>2979</ele>
<time>2015-05-27T14:41:27Z</time>
</trkpt>
<trkpt lat="37.3539586" lon="-4.9687593">
<ele>2972</ele>
<time>2015-05-27T14:41:36Z</time>
</trkpt>
<trkpt lat="37.3542434" lon="-4.9676179">
<ele>2963</ele>
<time>2015-05-27T14:41:44Z</time>
</trkpt>
<trkpt lat="37.3545813" lon="-4.9665354">
<ele>2953</ele>
<time>2015-05-27T14:41:52Z</time>
</trkpt>
<trkpt lat="37.3547801" lon="-4.9653378">
<ele>2946</ele>
<time>2015-05-27T14:42:00Z</time>
</trkpt>
<trkpt lat="37.3550102" lon="-4.9642154">
<ele>2934</ele>
<time>2015-05-27T14:42:08Z</time>
</trkpt>
<trkpt lat="37.3553245" lon="-4.9629698">
<ele>2919</ele>
<time>2015-05-27T14:42:17Z</time>
</trkpt>
<trkpt lat="37.3556236" lon="-4.961808">
<ele>2899</ele>
<time>2015-05-27T14:42:26Z</time>
</trkpt>
<trkpt lat="37.3559256" lon="-4.9607611">
<ele>2883</ele>
<time>2015-05-27T14:42:34Z</time>
</trkpt>
<trkpt lat="37.356217" lon="-4.9597116">
<ele>2864</ele>
<time>2015-05-27T14:42:42Z</time>
</trkpt>
<trkpt lat="37.3565401" lon="-4.9583987">
<ele>2850</ele>
<time>2015-05-27T14:42:52Z</time>
</trkpt>
<trkpt lat="37.3566978" lon="-4.9573301">
<ele>2839</ele>
<time>2015-05-27T14:43:00Z</time>
</trkpt>
<trkpt lat="37.3568261" lon="-4.9561504">
<ele>2830</ele>
<time>2015-05-27T14:43:09Z</time>
</trkpt>
<trkpt lat="37.357071" lon="-4.9549838">
<ele>2820</ele>
<time>2015-05-27T14:43:19Z</time>
</trkpt>
<trkpt lat="37.357312" lon="-4.9540273">
<ele>2812</ele>
<time>2015-05-27T14:43:27Z</time>
</trkpt>
<trkpt lat="37.3575509" lon="-4.9530486">
<ele>2807</ele>
<time>2015-05-27T14:43:35Z</time>
</trkpt>
<trkpt lat="37.3577766" lon="-4.9521687">
<ele>2802</ele>
<time>2015-05-27T14:43:43Z</time>
</trkpt>
<trkpt lat="37.3579987" lon="-4.9512518">
<ele>2794</ele>
<time>2015-05-27T14:43:51Z</time>
</trkpt>
<trkpt lat="37.3582689" lon="-4.9503008">
<ele>2784</ele>
<time>2015-05-27T14:43:59Z</time>
</trkpt>
<trkpt lat="37.35849" lon="-4.9492691">
<ele>2776</ele>
<time>2015-05-27T14:44:07Z</time>
</trkpt>
<trkpt lat="37.3587771" lon="-4.9480263">
<ele>2766</ele>
<time>2015-05-27T14:44:17Z</time>
</trkpt>
<trkpt lat="37.3590388" lon="-4.9470638">
<ele>2757</ele>
<time>2015-05-27T14:44:25Z</time>
</trkpt>
<trkpt lat="37.3593253" lon="-4.9458769">
<ele>2748</ele>
<time>2015-05-27T14:44:35Z</time>
</trkpt>
<trkpt lat="37.359537" lon="-4.9449675">
<ele>2743</ele>
<time>2015-05-27T14:44:43Z</time>
</trkpt>
<trkpt lat="37.3598357" lon="-4.9435705">
<ele>2737</ele>
<time>2015-05-27T14:44:55Z</time>
</trkpt>
<trkpt lat="37.3602404" lon="-4.9425659">
<ele>2734</ele>
<time>2015-05-27T14:45:04Z</time>
</trkpt>
<trkpt lat="37.3603922" lon="-4.9416108">
<ele>2726</ele>
<time>2015-05-27T14:45:12Z</time>
</trkpt>
<trkpt lat="37.3603516" lon="-4.9407049">
<ele>2718</ele>
<time>2015-05-27T14:45:20Z</time>
</trkpt>
<trkpt lat="37.3602057" lon="-4.9397569">
<ele>2710</ele>
<time>2015-05-27T14:45:28Z</time>
</trkpt>
<trkpt lat="37.3600646" lon="-4.9388087">
<ele>2706</ele>
<time>2015-05-27T14:45:36Z</time>
</trkpt>
<trkpt lat="37.3599903" lon="-4.93774">
<ele>2702</ele>
<time>2015-05-27T14:45:45Z</time>
</trkpt>
<trkpt lat="37.3599245" lon="-4.9366463">
<ele>2689</ele>
<time>2015-05-27T14:45:54Z</time>
</trkpt>
<trkpt lat="37.3598676" lon="-4.9355504">
<ele>2673</ele>
<time>2015-05-27T14:46:03Z</time>
</trkpt>
<trkpt lat="37.3598139" lon="-4.934633">
<ele>2663</ele>
<time>2015-05-27T14:46:11Z</time>
</trkpt>
<trkpt lat="37.359802" lon="-4.9335943">
<ele>2647</ele>
<time>2015-05-27T14:46:20Z</time>
</trkpt>
<trkpt lat="37.3601794" lon="-4.9321227">
<ele>2615</ele>
<time>2015-05-27T14:46:33Z</time>
</trkpt>
<trkpt lat="37.3603392" lon="-4.9311456">
<ele>2601</ele>
<time>2015-05-27T14:46:41Z</time>
</trkpt>
<trkpt lat="37.3606529" lon="-4.9299494">
<ele>2578</ele>
<time>2015-05-27T14:46:52Z</time>
</trkpt>
<trkpt lat="37.3611903" lon="-4.9288508">
<ele>2547</ele>
<time>2015-05-27T14:47:05Z</time>
</trkpt>
<trkpt lat="37.361664" lon="-4.9280256">
<ele>2519</ele>
<time>2015-05-27T14:47:14Z</time>
</trkpt>
<trkpt lat="37.3620255" lon="-4.9269638">
<ele>2506</ele>
<time>2015-05-27T14:47:24Z</time>
</trkpt>
<trkpt lat="37.3623411" lon="-4.9256096">
<ele>2486</ele>
<time>2015-05-27T14:47:36Z</time>
</trkpt>
<trkpt lat="37.3626545" lon="-4.9244438">
<ele>2466</ele>
<time>2015-05-27T14:47:46Z</time>
</trkpt>
<trkpt lat="37.3628287" lon="-4.9231821">
<ele>2446</ele>
<time>2015-05-27T14:47:56Z</time>
</trkpt>
<trkpt lat="37.3628928" lon="-4.9221074">
<ele>2432</ele>
<time>2015-05-27T14:48:05Z</time>
</trkpt>
<trkpt lat="37.3630738" lon="-4.9211697">
<ele>2416</ele>
<time>2015-05-27T14:48:13Z</time>
</trkpt>
<trkpt lat="37.3631992" lon="-4.9202508">
<ele>2401</ele>
<time>2015-05-27T14:48:21Z</time>
</trkpt>
<trkpt lat="37.3632833" lon="-4.9192859">
<ele>2383</ele>
<time>2015-05-27T14:48:29Z</time>
</trkpt>
<trkpt lat="37.3634028" lon="-4.9182741">
<ele>2365</ele>
<time>2015-05-27T14:48:38Z</time>
</trkpt>
<trkpt lat="37.3634989" lon="-4.917361">
<ele>2349</ele>
<time>2015-05-27T14:48:46Z</time>
</trkpt>
<trkpt lat="37.363496" lon="-4.9164335">
<ele>2337</ele>
<time>2015-05-27T14:48:54Z</time>
</trkpt>
<trkpt lat="37.3634807" lon="-4.9154718">
<ele>2330</ele>
<time>2015-05-27T14:49:03Z</time>
</trkpt>
<trkpt lat="37.3635916" lon="-4.9143626">
<ele>2333</ele>
<time>2015-05-27T14:49:17Z</time>
</trkpt>
<trkpt lat="37.3632874" lon="-4.9150721">
<ele>2336</ele>
<time>2015-05-27T14:49:26Z</time>
</trkpt>
<trkpt lat="37.3638121" lon="-4.9145518">
<ele>2343</ele>
<time>2015-05-27T14:49:41Z</time>
</trkpt>
<trkpt lat="37.3634641" lon="-4.915387">
<ele>2345</ele>
<time>2015-05-27T14:49:50Z</time>
</trkpt>
<trkpt lat="37.3641286" lon="-4.915093">
<ele>2349</ele>
<time>2015-05-27T14:50:03Z</time>
</trkpt>
<trkpt lat="37.3636525" lon="-4.9143225">
<ele>2358</ele>
<time>2015-05-27T14:50:18Z</time>
</trkpt>
<trkpt lat="37.3644357" lon="-4.9144945">
<ele>2345</ele>
<time>2015-05-27T14:50:27Z</time>
</trkpt>
<trkpt lat="37.364116" lon="-4.9158567">
<ele>2355</ele>
<time>2015-05-27T14:50:40Z</time>
</trkpt>
<trkpt lat="37.3639437" lon="-4.9152671">
<ele>2358</ele>
<time>2015-05-27T14:50:52Z</time>
</trkpt>
<trkpt lat="37.3646727" lon="-4.9162571">
<ele>2356</ele>
<time>2015-05-27T14:51:03Z</time>
</trkpt>
<trkpt lat="37.3639999" lon="-4.9167944">
<ele>2361</ele>
<time>2015-05-27T14:51:15Z</time>
</trkpt>
<trkpt lat="37.3633512" lon="-4.9156637">
<ele>2354</ele>
<time>2015-05-27T14:51:33Z</time>
</trkpt>
<trkpt lat="37.3629935" lon="-4.9146477">
<ele>2377</ele>
<time>2015-05-27T14:51:49Z</time>
</trkpt>
<trkpt lat="37.3622941" lon="-4.9149543">
<ele>2390</ele>
<time>2015-05-27T14:51:58Z</time>
</trkpt>
<trkpt lat="37.3626374" lon="-4.9160884">
<ele>2392</ele>
<time>2015-05-27T14:52:09Z</time>
</trkpt>
<trkpt lat="37.3633941" lon="-4.9161893">
<ele>2404</ele>
<time>2015-05-27T14:52:18Z</time>
</trkpt>
<trkpt lat="37.3640869" lon="-4.9155721">
<ele>2420</ele>
<time>2015-05-27T14:52:30Z</time>
</trkpt>
<trkpt lat="37.3639729" lon="-4.914714">
<ele>2445</ele>
<time>2015-05-27T14:52:43Z</time>
</trkpt>
<trkpt lat="37.3633567" lon="-4.9150324">
<ele>2463</ele>
<time>2015-05-27T14:52:52Z</time>
</trkpt>
<trkpt lat="37.3632678" lon="-4.9160703">
<ele>2478</ele>
<time>2015-05-27T14:53:00Z</time>
</trkpt>
<trkpt lat="37.3640365" lon="-4.9165682">
<ele>2491</ele>
<time>2015-05-27T14:53:10Z</time>
</trkpt>
<trkpt lat="37.3636426" lon="-4.9157572">
<ele>2510</ele>
<time>2015-05-27T14:53:25Z</time>
</trkpt>
<trkpt lat="37.363253" lon="-4.9167452">
<ele>2523</ele>
<time>2015-05-27T14:53:36Z</time>
</trkpt>
<trkpt lat="37.3639066" lon="-4.9165561">
<ele>2542</ele>
<time>2015-05-27T14:53:47Z</time>
</trkpt>
<trkpt lat="37.3632173" lon="-4.9161321">
<ele>2551</ele>
<time>2015-05-27T14:54:01Z</time>
</trkpt>
<trkpt lat="37.3634606" lon="-4.9171144">
<ele>2548</ele>
<time>2015-05-27T14:54:09Z</time>
</trkpt>
<trkpt lat="37.3644271" lon="-4.9164017">
<ele>2564</ele>
<time>2015-05-27T14:54:23Z</time>
</trkpt>
<trkpt lat="37.3643727" lon="-4.9151677">
<ele>2581</ele>
<time>2015-05-27T14:54:38Z</time>
</trkpt>
<trkpt lat="37.3636297" lon="-4.9150039">
<ele>2567</ele>
<time>2015-05-27T14:54:47Z</time>
</trkpt>
<trkpt lat="37.3639966" lon="-4.9160295">
<ele>2536</ele>
<time>2015-05-27T14:54:59Z</time>
</trkpt>
<trkpt lat="37.3646748" lon="-4.9152932">
<ele>2528</ele>
<time>2015-05-27T14:55:09Z</time>
</trkpt>
<trkpt lat="37.3648006" lon="-4.9139187">
<ele>2508</ele>
<time>2015-05-27T14:55:22Z</time>
</trkpt>
<trkpt lat="37.3649671" lon="-4.9128271">
<ele>2477</ele>
<time>2015-05-27T14:55:33Z</time>
</trkpt>
<trkpt lat="37.36516" lon="-4.9114118">
<ele>2458</ele>
<time>2015-05-27T14:55:47Z</time>
</trkpt>
<trkpt lat="37.3651188" lon="-4.9099154">
<ele>2447</ele>
<time>2015-05-27T14:56:02Z</time>
</trkpt>
<trkpt lat="37.3653099" lon="-4.9086407">
<ele>2423</ele>
<time>2015-05-27T14:56:15Z</time>
</trkpt>
<trkpt lat="37.3654898" lon="-4.9073343">
<ele>2400</ele>
<time>2015-05-27T14:56:27Z</time>
</trkpt>
<trkpt lat="37.3653158" lon="-4.9061788">
<ele>2389</ele>
<time>2015-05-27T14:56:37Z</time>
</trkpt>
<trkpt lat="37.3653216" lon="-4.9053024">
<ele>2384</ele>
<time>2015-05-27T14:56:47Z</time>
</trkpt>
<trkpt lat="37.3653047" lon="-4.9043865">
<ele>2383</ele>
<time>2015-05-27T14:56:55Z</time>
</trkpt>
<trkpt lat="37.3652538" lon="-4.9032503">
<ele>2375</ele>
<time>2015-05-27T14:57:06Z</time>
</trkpt>
<trkpt lat="37.3653278" lon="-4.902148">
<ele>2353</ele>
<time>2015-05-27T14:57:16Z</time>
</trkpt>
<trkpt lat="37.3654388" lon="-4.9013123">
<ele>2341</ele>
<time>2015-05-27T14:57:24Z</time>
</trkpt>
<trkpt lat="37.3654932" lon="-4.9003817">
<ele>2333</ele>
<time>2015-05-27T14:57:32Z</time>
</trkpt>
<trkpt lat="37.3654339" lon="-4.899085">
<ele>2320</ele>
<time>2015-05-27T14:57:43Z</time>
</trkpt>
<trkpt lat="37.3655246" lon="-4.8977853">
<ele>2326</ele>
<time>2015-05-27T14:57:54Z</time>
</trkpt>
<trkpt lat="37.365374" lon="-4.8967826">
<ele>2339</ele>
<time>2015-05-27T14:58:05Z</time>
</trkpt>
<trkpt lat="37.3651194" lon="-4.8971167">
<ele>2340</ele>
<time>2015-05-27T14:58:16Z</time>
</trkpt>
<trkpt lat="37.365878" lon="-4.8968594">
<ele>2353</ele>
<time>2015-05-27T14:58:25Z</time>
</trkpt>
<trkpt lat="37.3661328" lon="-4.8961626">
<ele>2367</ele>
<time>2015-05-27T14:58:34Z</time>
</trkpt>
<trkpt lat="37.3658035" lon="-4.8970684">
<ele>2383</ele>
<time>2015-05-27T14:58:48Z</time>
</trkpt>
<trkpt lat="37.366607" lon="-4.8966902">
<ele>2400</ele>
<time>2015-05-27T14:59:00Z</time>
</trkpt>
<trkpt lat="37.3659274" lon="-4.8962628">
<ele>2417</ele>
<time>2015-05-27T14:59:14Z</time>
</trkpt>
<trkpt lat="37.3664527" lon="-4.8970036">
<ele>2432</ele>
<time>2015-05-27T14:59:25Z</time>
</trkpt>
<trkpt lat="37.3661055" lon="-4.8960401">
<ele>2448</ele>
<time>2015-05-27T14:59:39Z</time>
</trkpt>
<trkpt lat="37.3656646" lon="-4.8966355">
<ele>2455</ele>
<time>2015-05-27T14:59:50Z</time>
</trkpt>
<trkpt lat="37.3666263" lon="-4.896655">
<ele>2468</ele>
<time>2015-05-27T15:00:01Z</time>
</trkpt>
<trkpt lat="37.3658747" lon="-4.8958525">
<ele>2485</ele>
<time>2015-05-27T15:00:13Z</time>
</trkpt>
<trkpt lat="37.3653837" lon="-4.8967309">
<ele>2489</ele>
<time>2015-05-27T15:00:23Z</time>
</trkpt>
<trkpt lat="37.3658893" lon="-4.8974662">
<ele>2504</ele>
<time>2015-05-27T15:00:34Z</time>
</trkpt>
<trkpt lat="37.3665914" lon="-4.8970874">
<ele>2520</ele>
<time>2015-05-27T15:00:45Z</time>
</trkpt>
<trkpt lat="37.3664188" lon="-4.8962023">
<ele>2542</ele>
<time>2015-05-27T15:00:55Z</time>
</trkpt>
<trkpt lat="37.3657563" lon="-4.8962272">
<ele>2548</ele>
<time>2015-05-27T15:01:03Z</time>
</trkpt>
<trkpt lat="37.3655513" lon="-4.8970242">
<ele>2551</ele>
<time>2015-05-27T15:01:11Z</time>
</trkpt>
<trkpt lat="37.3661177" lon="-4.8974246">
<ele>2554</ele>
<time>2015-05-27T15:01:19Z</time>
</trkpt>
<trkpt lat="37.3665785" lon="-4.8967409">
<ele>2572</ele>
<time>2015-05-27T15:01:30Z</time>
</trkpt>
<trkpt lat="37.365996" lon="-4.8967829">
<ele>2581</ele>
<time>2015-05-27T15:01:38Z</time>
</trkpt>
<trkpt lat="37.3664466" lon="-4.897437">
<ele>2589</ele>
<time>2015-05-27T15:01:49Z</time>
</trkpt>
<trkpt lat="37.366172" lon="-4.8967786">
<ele>2605</ele>
<time>2015-05-27T15:02:04Z</time>
</trkpt>
<trkpt lat="37.3667292" lon="-4.8974086">
<ele>2615</ele>
<time>2015-05-27T15:02:17Z</time>
</trkpt>
<trkpt lat="37.3661453" lon="-4.8969768">
<ele>2628</ele>
<time>2015-05-27T15:02:32Z</time>
</trkpt>
<trkpt lat="37.3667602" lon="-4.8976806">
<ele>2634</ele>
<time>2015-05-27T15:02:44Z</time>
</trkpt>
<trkpt lat="37.3668334" lon="-4.8967816">
<ele>2646</ele>
<time>2015-05-27T15:02:54Z</time>
</trkpt>
<trkpt lat="37.3661565" lon="-4.8966928">
<ele>2659</ele>
<time>2015-05-27T15:03:03Z</time>
</trkpt>
<trkpt lat="37.3660795" lon="-4.8975063">
<ele>2668</ele>
<time>2015-05-27T15:03:11Z</time>
</trkpt>
<trkpt lat="37.3668534" lon="-4.8977676">
<ele>2675</ele>
<time>2015-05-27T15:03:21Z</time>
</trkpt>
<trkpt lat="37.3663416" lon="-4.8971968">
<ele>2692</ele>
<time>2015-05-27T15:03:34Z</time>
</trkpt>
<trkpt lat="37.3670231" lon="-4.8975257">
<ele>2712</ele>
<time>2015-05-27T15:03:49Z</time>
</trkpt>
<trkpt lat="37.3663471" lon="-4.8972768">
<ele>2725</ele>
<time>2015-05-27T15:04:00Z</time>
</trkpt>
<trkpt lat="37.367126" lon="-4.897867">
<ele>2743</ele>
<time>2015-05-27T15:04:13Z</time>
</trkpt>
<trkpt lat="37.3664368" lon="-4.8975594">
<ele>2757</ele>
<time>2015-05-27T15:04:26Z</time>
</trkpt>
<trkpt lat="37.3666539" lon="-4.8986176">
<ele>2770</ele>
<time>2015-05-27T15:04:35Z</time>
</trkpt>
<trkpt lat="37.3675601" lon="-4.8978482">
<ele>2767</ele>
<time>2015-05-27T15:04:48Z</time>
</trkpt>
<trkpt lat="37.3670352" lon="-4.8964037">
<ele>2785</ele>
<time>2015-05-27T15:05:04Z</time>
</trkpt>
<trkpt lat="37.3664695" lon="-4.8953884">
<ele>2805</ele>
<time>2015-05-27T15:05:16Z</time>
</trkpt>
<trkpt lat="37.3659245" lon="-4.8958387">
<ele>2810</ele>
<time>2015-05-27T15:05:24Z</time>
</trkpt>
<trkpt lat="37.3664928" lon="-4.8964772">
<ele>2830</ele>
<time>2015-05-27T15:05:34Z</time>
</trkpt>
<trkpt lat="37.3668605" lon="-4.8955883">
<ele>2842</ele>
<time>2015-05-27T15:05:44Z</time>
</trkpt>
<trkpt lat="37.3661349" lon="-4.8952006">
<ele>2844</ele>
<time>2015-05-27T15:05:54Z</time>
</trkpt>
<trkpt lat="37.3661604" lon="-4.8960566">
<ele>2853</ele>
<time>2015-05-27T15:06:02Z</time>
</trkpt>
<trkpt lat="37.3670889" lon="-4.8962512">
<ele>2863</ele>
<time>2015-05-27T15:06:11Z</time>
</trkpt>
<trkpt lat="37.367895" lon="-4.8960153">
<ele>2878</ele>
<time>2015-05-27T15:06:19Z</time>
</trkpt>
<trkpt lat="37.368057" lon="-4.8950625">
<ele>2875</ele>
<time>2015-05-27T15:06:29Z</time>
</trkpt>
<trkpt lat="37.3672533" lon="-4.8944591">
<ele>2879</ele>
<time>2015-05-27T15:06:42Z</time>
</trkpt>
<trkpt lat="37.3670506" lon="-4.8952028">
<ele>2878</ele>
<time>2015-05-27T15:06:52Z</time>
</trkpt>
<trkpt lat="37.3680514" lon="-4.8947876">
<ele>2882</ele>
<time>2015-05-27T15:07:02Z</time>
</trkpt>
<trkpt lat="37.367866" lon="-4.8936181">
<ele>2887</ele>
<time>2015-05-27T15:07:13Z</time>
</trkpt>
<trkpt lat="37.3669312" lon="-4.8931565">
<ele>2899</ele>
<time>2015-05-27T15:07:26Z</time>
</trkpt>
<trkpt lat="37.3665168" lon="-4.8938221">
<ele>2900</ele>
<time>2015-05-27T15:07:35Z</time>
</trkpt>
<trkpt lat="37.3671713" lon="-4.8932622">
<ele>2904</ele>
<time>2015-05-27T15:07:50Z</time>
</trkpt>
<trkpt lat="37.36617" lon="-4.89261">
<ele>2910</ele>
<time>2015-05-27T15:08:02Z</time>
</trkpt>
<trkpt lat="37.3655373" lon="-4.8923617">
<ele>2917</ele>
<time>2015-05-27T15:08:10Z</time>
</trkpt>
<trkpt lat="37.364875" lon="-4.892105">
<ele>2923</ele>
<time>2015-05-27T15:08:18Z</time>
</trkpt>
<trkpt lat="37.364229" lon="-4.8918889">
<ele>2929</ele>
<time>2015-05-27T15:08:26Z</time>
</trkpt>
<trkpt lat="37.3636765" lon="-4.8920944">
<ele>2934</ele>
<time>2015-05-27T15:08:35Z</time>
</trkpt>
<trkpt lat="37.3642468" lon="-4.8922826">
<ele>2939</ele>
<time>2015-05-27T15:08:44Z</time>
</trkpt>
<trkpt lat="37.363823" lon="-4.8908627">
<ele>2947</ele>
<time>2015-05-27T15:08:57Z</time>
</trkpt>
<trkpt lat="37.3630361" lon="-4.8903993">
<ele>2959</ele>
<time>2015-05-27T15:09:08Z</time>
</trkpt>
<trkpt lat="37.3628714" lon="-4.8912351">
<ele>2969</ele>
<time>2015-05-27T15:09:19Z</time>
</trkpt>
<trkpt lat="37.3635032" lon="-4.8911169">
<ele>2978</ele>
<time>2015-05-27T15:09:27Z</time>
</trkpt>
<trkpt lat="37.3639585" lon="-4.8901758">
<ele>2984</ele>
<time>2015-05-27T15:09:36Z</time>
</trkpt>
<trkpt lat="37.3632212" lon="-4.8900708">
<ele>2994</ele>
<time>2015-05-27T15:09:49Z</time>
</trkpt>
<trkpt lat="37.363961" lon="-4.8900557">
<ele>3003</ele>
<time>2015-05-27T15:09:58Z</time>
</trkpt>
<trkpt lat="37.3638796" lon="-4.8888434">
<ele>3011</ele>
<time>2015-05-27T15:10:07Z</time>
</trkpt>
<trkpt lat="37.3633646" lon="-4.8889595">
<ele>3008</ele>
<time>2015-05-27T15:10:20Z</time>
</trkpt>
<trkpt lat="37.3639723" lon="-4.8878289">
<ele>3012</ele>
<time>2015-05-27T15:10:31Z</time>
</trkpt>
<trkpt lat="37.3640984" lon="-4.886422">
<ele>3014</ele>
<time>2015-05-27T15:10:41Z</time>
</trkpt>
<trkpt lat="37.3641651" lon="-4.8848918">
<ele>3015</ele>
<time>2015-05-27T15:10:52Z</time>
</trkpt>
<trkpt lat="37.364224" lon="-4.8831841">
<ele>2999</ele>
<time>2015-05-27T15:11:03Z</time>
</trkpt>
<trkpt lat="37.3637784" lon="-4.8815775">
<ele>2982</ele>
<time>2015-05-27T15:11:15Z</time>
</trkpt>
<trkpt lat="37.3637998" lon="-4.880312">
<ele>2979</ele>
<time>2015-05-27T15:11:23Z</time>
</trkpt>
<trkpt lat="37.3640203" lon="-4.8789666">
<ele>2957</ele>
<time>2015-05-27T15:11:32Z</time>
</trkpt>
<trkpt lat="37.364554" lon="-4.8771829">
<ele>2932</ele>
<time>2015-05-27T15:11:45Z</time>
</trkpt>
<trkpt lat="37.3650713" lon="-4.8754069">
<ele>2921</ele>
<time>2015-05-27T15:11:56Z</time>
</trkpt>
<trkpt lat="37.3651999" lon="-4.8740415">
<ele>2914</ele>
<time>2015-05-27T15:12:04Z</time>
</trkpt>
<trkpt lat="37.3652931" lon="-4.8726486">
<ele>2902</ele>
<time>2015-05-27T15:12:12Z</time>
</trkpt>
<trkpt lat="37.3655328" lon="-4.871183">
<ele>2894</ele>
<time>2015-05-27T15:12:20Z</time>
</trkpt>
<trkpt lat="37.3657886" lon="-4.8696619">
<ele>2872</ele>
<time>2015-05-27T15:12:30Z</time>
</trkpt>
<trkpt lat="37.3661806" lon="-4.868406">
<ele>2846</ele>
<time>2015-05-27T15:12:38Z</time>
</trkpt>
<trkpt lat="37.3665358" lon="-4.8670678">
<ele>2829</ele>
<time>2015-05-27T15:12:46Z</time>
</trkpt>
<trkpt lat="37.3669387" lon="-4.8656685">
<ele>2814</ele>
<time>2015-05-27T15:12:54Z</time>
</trkpt>
<trkpt lat="37.3673039" lon="-4.8641858">
<ele>2796</ele>
<time>2015-05-27T15:13:02Z</time>
</trkpt>
<trkpt lat="37.3676298" lon="-4.8619074">
<ele>2822</ele>
<time>2015-05-27T15:13:15Z</time>
</trkpt>
<trkpt lat="37.3678193" lon="-4.8605272">
<ele>2799</ele>
<time>2015-05-27T15:13:23Z</time>
</trkpt>
<trkpt lat="37.3679666" lon="-4.8591527">
<ele>2783</ele>
<time>2015-05-27T15:13:31Z</time>
</trkpt>
<trkpt lat="37.3681867" lon="-4.8575671">
<ele>2764</ele>
<time>2015-05-27T15:13:40Z</time>
</trkpt>
<trkpt lat="37.3686674" lon="-4.8560361">
<ele>2741</ele>
<time>2015-05-27T15:13:50Z</time>
</trkpt>
<trkpt lat="37.3690511" lon="-4.8544377">
<ele>2722</ele>
<time>2015-05-27T15:14:00Z</time>
</trkpt>
<trkpt lat="37.3691025" lon="-4.8527868">
<ele>2708</ele>
<time>2015-05-27T15:14:10Z</time>
</trkpt>
<trkpt lat="37.369302" lon="-4.8515071">
<ele>2696</ele>
<time>2015-05-27T15:14:18Z</time>
</trkpt>
<trkpt lat="37.3695298" lon="-4.8502518">
<ele>2685</ele>
<time>2015-05-27T15:14:26Z</time>
</trkpt>
<trkpt lat="37.3697794" lon="-4.8487631">
<ele>2670</ele>
<time>2015-05-27T15:14:36Z</time>
</trkpt>
<trkpt lat="37.3699666" lon="-4.84751">
<ele>2656</ele>
<time>2015-05-27T15:14:44Z</time>
</trkpt>
<trkpt lat="37.3704421" lon="-4.845489">
<ele>2636</ele>
<time>2015-05-27T15:14:56Z</time>
</trkpt>
<trkpt lat="37.3708592" lon="-4.8434896">
<ele>2616</ele>
<time>2015-05-27T15:15:08Z</time>
</trkpt>
<trkpt lat="37.3709023" lon="-4.8414531">
<ele>2594</ele>
<time>2015-05-27T15:15:20Z</time>
</trkpt>
<trkpt lat="37.370832" lon="-4.8394336">
<ele>2570</ele>
<time>2015-05-27T15:15:32Z</time>
</trkpt>
<trkpt lat="37.3709125" lon="-4.8380953">
<ele>2553</ele>
<time>2015-05-27T15:15:40Z</time>
</trkpt>
<trkpt lat="37.3710883" lon="-4.836519">
<ele>2540</ele>
<time>2015-05-27T15:15:50Z</time>
</trkpt>
<trkpt lat="37.3711075" lon="-4.835225">
<ele>2529</ele>
<time>2015-05-27T15:15:58Z</time>
</trkpt>
<trkpt lat="37.3712277" lon="-4.8339314">
<ele>2517</ele>
<time>2015-05-27T15:16:06Z</time>
</trkpt>
<trkpt lat="37.3713717" lon="-4.832651">
<ele>2510</ele>
<time>2015-05-27T15:16:14Z</time>
</trkpt>
<trkpt lat="37.371496" lon="-4.8313801">
<ele>2502</ele>
<time>2015-05-27T15:16:22Z</time>
</trkpt>
<trkpt lat="37.3716936" lon="-4.8296628">
<ele>2493</ele>
<time>2015-05-27T15:16:33Z</time>
</trkpt>
<trkpt lat="37.371857" lon="-4.8282401">
<ele>2487</ele>
<time>2015-05-27T15:16:42Z</time>
</trkpt>
<trkpt lat="37.37208" lon="-4.8269727">
<ele>2478</ele>
<time>2015-05-27T15:16:50Z</time>
</trkpt>
<trkpt lat="37.372465" lon="-4.8254264">
<ele>2463</ele>
<time>2015-05-27T15:17:00Z</time>
</trkpt>
<trkpt lat="37.3725642" lon="-4.8241399">
<ele>2452</ele>
<time>2015-05-27T15:17:08Z</time>
</trkpt>
<trkpt lat="37.3726939" lon="-4.8228668">
<ele>2443</ele>
<time>2015-05-27T15:17:16Z</time>
</trkpt>
<trkpt lat="37.3728969" lon="-4.821594">
<ele>2435</ele>
<time>2015-05-27T15:17:24Z</time>
</trkpt>
<trkpt lat="37.3730273" lon="-4.8202812">
<ele>2419</ele>
<time>2015-05-27T15:17:32Z</time>
</trkpt>
<trkpt lat="37.3732306" lon="-4.8190062">
<ele>2409</ele>
<time>2015-05-27T15:17:40Z</time>
</trkpt>
<trkpt lat="37.3734437" lon="-4.8176381">
<ele>2401</ele>
<time>2015-05-27T15:17:48Z</time>
</trkpt>
<trkpt lat="37.3738029" lon="-4.8162432">
<ele>2393</ele>
<time>2015-05-27T15:17:58Z</time>
</trkpt>
<trkpt lat="37.3742911" lon="-4.8150722">
<ele>2382</ele>
<time>2015-05-27T15:18:06Z</time>
</trkpt>
<trkpt lat="37.3749305" lon="-4.8135638">
<ele>2375</ele>
<time>2015-05-27T15:18:16Z</time>
</trkpt>
<trkpt lat="37.3754163" lon="-4.8121557">
<ele>2364</ele>
<time>2015-05-27T15:18:26Z</time>
</trkpt>
<trkpt lat="37.3758501" lon="-4.8109815">
<ele>2349</ele>
<time>2015-05-27T15:18:34Z</time>
</trkpt>
<trkpt lat="37.3765062" lon="-4.8094019">
<ele>2335</ele>
<time>2015-05-27T15:18:46Z</time>
</trkpt>
<trkpt lat="37.3769409" lon="-4.8083338">
<ele>2324</ele>
<time>2015-05-27T15:18:54Z</time>
</trkpt>
<trkpt lat="37.3774601" lon="-4.8071546">
<ele>2316</ele>
<time>2015-05-27T15:19:03Z</time>
</trkpt>
<trkpt lat="37.378089" lon="-4.8056943">
<ele>2305</ele>
<time>2015-05-27T15:19:14Z</time>
</trkpt>
<trkpt lat="37.3786161" lon="-4.804206">
<ele>2291</ele>
<time>2015-05-27T15:19:27Z</time>
</trkpt>
<trkpt lat="37.3791757" lon="-4.8026505">
<ele>2255</ele>
<time>2015-05-27T15:19:41Z</time>
</trkpt>
<trkpt lat="37.3797923" lon="-4.8011666">
<ele>2227</ele>
<time>2015-05-27T15:19:54Z</time>
</trkpt>
<trkpt lat="37.3802602" lon="-4.8000287">
<ele>2204</ele>
<time>2015-05-27T15:20:03Z</time>
</trkpt>
<trkpt lat="37.3807105" lon="-4.7989801">
<ele>2202</ele>
<time>2015-05-27T15:20:11Z</time>
</trkpt>
<trkpt lat="37.3811835" lon="-4.7979457">
<ele>2204</ele>
<time>2015-05-27T15:20:21Z</time>
</trkpt>
<trkpt lat="37.3817714" lon="-4.7969522">
<ele>2202</ele>
<time>2015-05-27T15:20:31Z</time>
</trkpt>
<trkpt lat="37.382275" lon="-4.7959179">
<ele>2199</ele>
<time>2015-05-27T15:20:40Z</time>
</trkpt>
<trkpt lat="37.3828106" lon="-4.794526">
<ele>2200</ele>
<time>2015-05-27T15:20:52Z</time>
</trkpt>
<trkpt lat="37.3834568" lon="-4.7934689">
<ele>2193</ele>
<time>2015-05-27T15:21:02Z</time>
</trkpt>
<trkpt lat="37.3839628" lon="-4.79267">
<ele>2186</ele>
<time>2015-05-27T15:21:10Z</time>
</trkpt>
<trkpt lat="37.384756" lon="-4.791578">
<ele>2175</ele>
<time>2015-05-27T15:21:21Z</time>
</trkpt>
<trkpt lat="37.3853296" lon="-4.7900341">
<ele>2158</ele>
<time>2015-05-27T15:21:33Z</time>
</trkpt>
<trkpt lat="37.3857016" lon="-4.7887215">
<ele>2152</ele>
<time>2015-05-27T15:21:42Z</time>
</trkpt>
<trkpt lat="37.3860306" lon="-4.7874791">
<ele>2146</ele>
<time>2015-05-27T15:21:50Z</time>
</trkpt>
<trkpt lat="37.3863577" lon="-4.7862832">
<ele>2143</ele>
<time>2015-05-27T15:21:58Z</time>
</trkpt>
<trkpt lat="37.3868984" lon="-4.7850366">
<ele>2151</ele>
<time>2015-05-27T15:22:08Z</time>
</trkpt>
<trkpt lat="37.3873619" lon="-4.7839193">
<ele>2152</ele>
<time>2015-05-27T15:22:17Z</time>
</trkpt>
<trkpt lat="37.3877992" lon="-4.7827541">
<ele>2149</ele>
<time>2015-05-27T15:22:26Z</time>
</trkpt>
<trkpt lat="37.3882915" lon="-4.781597">
<ele>2137</ele>
<time>2015-05-27T15:22:35Z</time>
</trkpt>
<trkpt lat="37.3888954" lon="-4.7806092">
<ele>2123</ele>
<time>2015-05-27T15:22:43Z</time>
</trkpt>
<trkpt lat="37.3896212" lon="-4.7795086">
<ele>2117</ele>
<time>2015-05-27T15:22:53Z</time>
</trkpt>
<trkpt lat="37.3902877" lon="-4.7782945">
<ele>2122</ele>
<time>2015-05-27T15:23:05Z</time>
</trkpt>
<trkpt lat="37.3909715" lon="-4.7767826">
<ele>2112</ele>
<time>2015-05-27T15:23:18Z</time>
</trkpt>
<trkpt lat="37.3914348" lon="-4.7758024">
<ele>2111</ele>
<time>2015-05-27T15:23:26Z</time>
</trkpt>
<trkpt lat="37.3918981" lon="-4.7749632">
<ele>2110</ele>
<time>2015-05-27T15:23:34Z</time>
</trkpt>
<trkpt lat="37.3924731" lon="-4.7742026">
<ele>2102</ele>
<time>2015-05-27T15:23:42Z</time>
</trkpt>
<trkpt lat="37.3930526" lon="-4.7733157">
<ele>2092</ele>
<time>2015-05-27T15:23:50Z</time>
</trkpt>
<trkpt lat="37.3935607" lon="-4.7723885">
<ele>2084</ele>
<time>2015-05-27T15:23:58Z</time>
</trkpt>
<trkpt lat="37.3939019" lon="-4.7712162">
<ele>2076</ele>
<time>2015-05-27T15:24:07Z</time>
</trkpt>
<trkpt lat="37.394246" lon="-4.7700113">
<ele>2080</ele>
<time>2015-05-27T15:24:17Z</time>
</trkpt>
<trkpt lat="37.3951009" lon="-4.7697733">
<ele>2082</ele>
<time>2015-05-27T15:24:26Z</time>
</trkpt>
<trkpt lat="37.3944972" lon="-4.7689722">
<ele>2071</ele>
<time>2015-05-27T15:24:41Z</time>
</trkpt>
<trkpt lat="37.3940271" lon="-4.7677838">
<ele>2078</ele>
<time>2015-05-27T15:24:54Z</time>
</trkpt>
<trkpt lat="37.3952404" lon="-4.7671621">
<ele>2098</ele>
<time>2015-05-27T15:25:10Z</time>
</trkpt>
<trkpt lat="37.3949673" lon="-4.7661124">
<ele>2079</ele>
<time>2015-05-27T15:25:18Z</time>
</trkpt>
<trkpt lat="37.3956151" lon="-4.7667742">
<ele>2058</ele>
<time>2015-05-27T15:25:32Z</time>
</trkpt>
<trkpt lat="37.3957798" lon="-4.7664193">
<ele>2080</ele>
<time>2015-05-27T15:25:50Z</time>
</trkpt>
<trkpt lat="37.3964455" lon="-4.7658165">
<ele>2088</ele>
<time>2015-05-27T15:26:07Z</time>
</trkpt>
<trkpt lat="37.3958655" lon="-4.7649388">
<ele>2095</ele>
<time>2015-05-27T15:26:16Z</time>
</trkpt>
<trkpt lat="37.3962925" lon="-4.7635896">
<ele>2071</ele>
<time>2015-05-27T15:26:25Z</time>
</trkpt>
<trkpt lat="37.3962777" lon="-4.7631933">
<ele>2013</ele>
<time>2015-05-27T15:26:43Z</time>
</trkpt>
<trkpt lat="37.3968532" lon="-4.7617205">
<ele>1974</ele>
<time>2015-05-27T15:26:55Z</time>
</trkpt>
<trkpt lat="37.3973453" lon="-4.7606598">
<ele>1950</ele>
<time>2015-05-27T15:27:03Z</time>
</trkpt>
<trkpt lat="37.397779" lon="-4.7593379">
<ele>1926</ele>
<time>2015-05-27T15:27:13Z</time>
</trkpt>
<trkpt lat="37.398084" lon="-4.7582293">
<ele>1909</ele>
<time>2015-05-27T15:27:21Z</time>
</trkpt>
<trkpt lat="37.3982869" lon="-4.7571372">
<ele>1896</ele>
<time>2015-05-27T15:27:29Z</time>
</trkpt>
<trkpt lat="37.3986641" lon="-4.7557597">
<ele>1879</ele>
<time>2015-05-27T15:27:40Z</time>
</trkpt>
<trkpt lat="37.3989443" lon="-4.7547719">
<ele>1864</ele>
<time>2015-05-27T15:27:48Z</time>
</trkpt>
<trkpt lat="37.3993214" lon="-4.7534116">
<ele>1861</ele>
<time>2015-05-27T15:27:58Z</time>
</trkpt>
<trkpt lat="37.3996895" lon="-4.7523815">
<ele>1861</ele>
<time>2015-05-27T15:28:06Z</time>
</trkpt>
<trkpt lat="37.4001621" lon="-4.7512917">
<ele>1863</ele>
<time>2015-05-27T15:28:16Z</time>
</trkpt>
<trkpt lat="37.4005566" lon="-4.7502943">
<ele>1862</ele>
<time>2015-05-27T15:28:25Z</time>
</trkpt>
<trkpt lat="37.4009662" lon="-4.7491985">
<ele>1857</ele>
<time>2015-05-27T15:28:34Z</time>
</trkpt>
<trkpt lat="37.4012879" lon="-4.7491372">
<ele>1859</ele>
<time>2015-05-27T15:28:50Z</time>
</trkpt>
<trkpt lat="37.4006522" lon="-4.747811">
<ele>1856</ele>
<time>2015-05-27T15:29:02Z</time>
</trkpt>
<trkpt lat="37.4003446" lon="-4.7466728">
<ele>1873</ele>
<time>2015-05-27T15:29:12Z</time>
</trkpt>
<trkpt lat="37.4004465" lon="-4.747233">
<ele>1878</ele>
<time>2015-05-27T15:29:26Z</time>
</trkpt>
<trkpt lat="37.4013061" lon="-4.7460161">
<ele>1892</ele>
<time>2015-05-27T15:29:38Z</time>
</trkpt>
<trkpt lat="37.4011318" lon="-4.7446216">
<ele>1885</ele>
<time>2015-05-27T15:29:48Z</time>
</trkpt>
<trkpt lat="37.4007455" lon="-4.7447214">
<ele>1863</ele>
<time>2015-05-27T15:30:01Z</time>
</trkpt>
<trkpt lat="37.4017977" lon="-4.7434867">
<ele>1838</ele>
<time>2015-05-27T15:30:15Z</time>
</trkpt>
<trkpt lat="37.4022264" lon="-4.742175">
<ele>1833</ele>
<time>2015-05-27T15:30:25Z</time>
</trkpt>
<trkpt lat="37.4024215" lon="-4.740527">
<ele>1817</ele>
<time>2015-05-27T15:30:36Z</time>
</trkpt>
<trkpt lat="37.402502" lon="-4.7390394">
<ele>1806</ele>
<time>2015-05-27T15:30:45Z</time>
</trkpt>
<trkpt lat="37.4024658" lon="-4.7377033">
<ele>1797</ele>
<time>2015-05-27T15:30:53Z</time>
</trkpt>
<trkpt lat="37.4024744" lon="-4.7364654">
<ele>1790</ele>
<time>2015-05-27T15:31:01Z</time>
</trkpt>
<trkpt lat="37.40258" lon="-4.7348448">
<ele>1783</ele>
<time>2015-05-27T15:31:11Z</time>
</trkpt>
<trkpt lat="37.402614" lon="-4.7333272">
<ele>1775</ele>
<time>2015-05-27T15:31:21Z</time>
</trkpt>
<trkpt lat="37.402654" lon="-4.7320417">
<ele>1763</ele>
<time>2015-05-27T15:31:30Z</time>
</trkpt>
<trkpt lat="37.402654" lon="-4.7308571">
<ele>1740</ele>
<time>2015-05-27T15:31:38Z</time>
</trkpt>
<trkpt lat="37.40286" lon="-4.729561">
<ele>1731</ele>
<time>2015-05-27T15:31:46Z</time>
</trkpt>
<trkpt lat="37.4031685" lon="-4.7281153">
<ele>1716</ele>
<time>2015-05-27T15:31:56Z</time>
</trkpt>
<trkpt lat="37.4035054" lon="-4.7266509">
<ele>1705</ele>
<time>2015-05-27T15:32:06Z</time>
</trkpt>
<trkpt lat="37.4039288" lon="-4.7252945">
<ele>1691</ele>
<time>2015-05-27T15:32:16Z</time>
</trkpt>
<trkpt lat="37.4045966" lon="-4.7238148">
<ele>1672</ele>
<time>2015-05-27T15:32:29Z</time>
</trkpt>
<trkpt lat="37.4049848" lon="-4.7219202">
<ele>1646</ele>
<time>2015-05-27T15:32:43Z</time>
</trkpt>
<trkpt lat="37.4054783" lon="-4.7200725">
<ele>1627</ele>
<time>2015-05-27T15:32:56Z</time>
</trkpt>
<trkpt lat="37.4056041" lon="-4.7188902">
<ele>1610</ele>
<time>2015-05-27T15:33:04Z</time>
</trkpt>
<trkpt lat="37.4055714" lon="-4.7175294">
<ele>1590</ele>
<time>2015-05-27T15:33:13Z</time>
</trkpt>
<trkpt lat="37.4056281" lon="-4.7160883">
<ele>1571</ele>
<time>2015-05-27T15:33:22Z</time>
</trkpt>
<trkpt lat="37.4057269" lon="-4.7147391">
<ele>1555</ele>
<time>2015-05-27T15:33:30Z</time>
</trkpt>
<trkpt lat="37.405913" lon="-4.7133833">
<ele>1541</ele>
<time>2015-05-27T15:33:38Z</time>
</trkpt>
<trkpt lat="37.4063804" lon="-4.7117251">
<ele>1521</ele>
<time>2015-05-27T15:33:49Z</time>
</trkpt>
<trkpt lat="37.407144" lon="-4.7102912">
<ele>1498</ele>
<time>2015-05-27T15:33:59Z</time>
</trkpt>
<trkpt lat="37.4077773" lon="-4.708934">
<ele>1492</ele>
<time>2015-05-27T15:34:07Z</time>
</trkpt>
<trkpt lat="37.408279" lon="-4.7075626">
<ele>1482</ele>
<time>2015-05-27T15:34:16Z</time>
</trkpt>
<trkpt lat="37.4089164" lon="-4.7057938">
<ele>1466</ele>
<time>2015-05-27T15:34:27Z</time>
</trkpt>
<trkpt lat="37.409464" lon="-4.7040731">
<ele>1461</ele>
<time>2015-05-27T15:34:37Z</time>
</trkpt>
<trkpt lat="37.409905" lon="-4.7024312">
<ele>1450</ele>
<time>2015-05-27T15:34:47Z</time>
</trkpt>
<trkpt lat="37.4103763" lon="-4.7011688">
<ele>1439</ele>
<time>2015-05-27T15:34:55Z</time>
</trkpt>
<trkpt lat="37.4109592" lon="-4.7000695">
<ele>1427</ele>
<time>2015-05-27T15:35:03Z</time>
</trkpt>
<trkpt lat="37.411574" lon="-4.6990457">
<ele>1412</ele>
<time>2015-05-27T15:35:11Z</time>
</trkpt>
<trkpt lat="37.4121345" lon="-4.697807">
<ele>1400</ele>
<time>2015-05-27T15:35:19Z</time>
</trkpt>
<trkpt lat="37.4124732" lon="-4.696449">
<ele>1389</ele>
<time>2015-05-27T15:35:27Z</time>
</trkpt>
<trkpt lat="37.4127952" lon="-4.6947448">
<ele>1384</ele>
<time>2015-05-27T15:35:37Z</time>
</trkpt>
<trkpt lat="37.4129155" lon="-4.6929674">
<ele>1375</ele>
<time>2015-05-27T15:35:47Z</time>
</trkpt>
<trkpt lat="37.4131028" lon="-4.6915099">
<ele>1364</ele>
<time>2015-05-27T15:35:55Z</time>
</trkpt>
<trkpt lat="37.4134336" lon="-4.6896313">
<ele>1352</ele>
<time>2015-05-27T15:36:05Z</time>
</trkpt>
<trkpt lat="37.413675" lon="-4.6877275">
<ele>1339</ele>
<time>2015-05-27T15:36:16Z</time>
</trkpt>
<trkpt lat="37.4139851" lon="-4.6861114">
<ele>1337</ele>
<time>2015-05-27T15:36:24Z</time>
</trkpt>
<trkpt lat="37.4146739" lon="-4.6848292">
<ele>1356</ele>
<time>2015-05-27T15:36:32Z</time>
</trkpt>
<trkpt lat="37.4151861" lon="-4.6840875">
<ele>1395</ele>
<time>2015-05-27T15:36:51Z</time>
</trkpt>
<trkpt lat="37.4159483" lon="-4.6826888">
<ele>1441</ele>
<time>2015-05-27T15:37:12Z</time>
</trkpt>
<trkpt lat="37.4163136" lon="-4.6810407">
<ele>1471</ele>
<time>2015-05-27T15:37:25Z</time>
</trkpt>
<trkpt lat="37.4162107" lon="-4.6807253">
<ele>1494</ele>
<time>2015-05-27T15:37:39Z</time>
</trkpt>
<trkpt lat="37.4166572" lon="-4.6800844">
<ele>1529</ele>
<time>2015-05-27T15:37:55Z</time>
</trkpt>
<trkpt lat="37.4171821" lon="-4.6788452">
<ele>1556</ele>
<time>2015-05-27T15:38:11Z</time>
</trkpt>
<trkpt lat="37.4167422" lon="-4.6777902">
<ele>1562</ele>
<time>2015-05-27T15:38:25Z</time>
</trkpt>
<trkpt lat="37.4177967" lon="-4.6769043">
<ele>1594</ele>
<time>2015-05-27T15:38:47Z</time>
</trkpt>
<trkpt lat="37.418026" lon="-4.6753764">
<ele>1601</ele>
<time>2015-05-27T15:38:56Z</time>
</trkpt>
<trkpt lat="37.4182906" lon="-4.6738838">
<ele>1614</ele>
<time>2015-05-27T15:39:11Z</time>
</trkpt>
<trkpt lat="37.4190015" lon="-4.6732045">
<ele>1644</ele>
<time>2015-05-27T15:39:29Z</time>
</trkpt>
<trkpt lat="37.418527" lon="-4.6725273">
<ele>1657</ele>
<time>2015-05-27T15:39:37Z</time>
</trkpt>
<trkpt lat="37.4194931" lon="-4.6709196">
<ele>1668</ele>
<time>2015-05-27T15:39:52Z</time>
</trkpt>
<trkpt lat="37.4193193" lon="-4.670539">
<ele>1689</ele>
<time>2015-05-27T15:40:10Z</time>
</trkpt>
<trkpt lat="37.4199151" lon="-4.6706414">
<ele>1708</ele>
<time>2015-05-27T15:40:28Z</time>
</trkpt>
<trkpt lat="37.4197464" lon="-4.668993">
<ele>1717</ele>
<time>2015-05-27T15:40:41Z</time>
</trkpt>
<trkpt lat="37.421023" lon="-4.6689949">
<ele>1729</ele>
<time>2015-05-27T15:40:57Z</time>
</trkpt>
<trkpt lat="37.4204639" lon="-4.6692832">
<ele>1752</ele>
<time>2015-05-27T15:41:16Z</time>
</trkpt>
<trkpt lat="37.4209113" lon="-4.6678474">
<ele>1753</ele>
<time>2015-05-27T15:41:27Z</time>
</trkpt>
<trkpt lat="37.4222067" lon="-4.6682938">
<ele>1773</ele>
<time>2015-05-27T15:41:42Z</time>
</trkpt>
<trkpt lat="37.421896" lon="-4.6685536">
<ele>1798</ele>
<time>2015-05-27T15:42:00Z</time>
</trkpt>
<trkpt lat="37.4227268" lon="-4.6675761">
<ele>1802</ele>
<time>2015-05-27T15:42:14Z</time>
</trkpt>
<trkpt lat="37.4224235" lon="-4.6678258">
<ele>1862</ele>
<time>2015-05-27T15:42:38Z</time>
</trkpt>
<trkpt lat="37.423731" lon="-4.6670332">
<ele>1906</ele>
<time>2015-05-27T15:42:56Z</time>
</trkpt>
<trkpt lat="37.4233936" lon="-4.6656988">
<ele>1986</ele>
<time>2015-05-27T15:43:18Z</time>
</trkpt>
<trkpt lat="37.4242868" lon="-4.6661653">
<ele>2055</ele>
<time>2015-05-27T15:43:37Z</time>
</trkpt>
<trkpt lat="37.4249638" lon="-4.6640965">
<ele>2231</ele>
<time>2015-05-27T15:44:18Z</time>
</trkpt>
<trkpt lat="37.4253348" lon="-4.6642457">
<ele>2316</ele>
<time>2015-05-27T15:44:36Z</time>
</trkpt>
<trkpt lat="37.425523" lon="-4.6628501">
<ele>2381</ele>
<time>2015-05-27T15:44:52Z</time>
</trkpt>
<trkpt lat="37.4253766" lon="-4.6630344">
<ele>2451</ele>
<time>2015-05-27T15:45:09Z</time>
</trkpt>
<trkpt lat="37.425704" lon="-4.661906">
<ele>2582</ele>
<time>2015-05-27T15:45:43Z</time>
</trkpt>
<trkpt lat="37.4266869" lon="-4.6612107">
<ele>2652</ele>
<time>2015-05-27T15:46:05Z</time>
</trkpt>
<trkpt lat="37.4260232" lon="-4.6597969">
<ele>2703</ele>
<time>2015-05-27T15:46:21Z</time>
</trkpt>
<trkpt lat="37.4267498" lon="-4.6598772">
<ele>2746</ele>
<time>2015-05-27T15:46:38Z</time>
</trkpt>
<trkpt lat="37.4257931" lon="-4.6589936">
<ele>2775</ele>
<time>2015-05-27T15:46:54Z</time>
</trkpt>
<trkpt lat="37.4266114" lon="-4.6578098">
<ele>2773</ele>
<time>2015-05-27T15:47:07Z</time>
</trkpt>
<trkpt lat="37.4276792" lon="-4.6583365">
<ele>2799</ele>
<time>2015-05-27T15:47:22Z</time>
</trkpt>
<trkpt lat="37.4270157" lon="-4.6582856">
<ele>2821</ele>
<time>2015-05-27T15:47:40Z</time>
</trkpt>
<trkpt lat="37.4277441" lon="-4.6576154">
<ele>2841</ele>
<time>2015-05-27T15:47:54Z</time>
</trkpt>
<trkpt lat="37.4270583" lon="-4.6580766">
<ele>2851</ele>
<time>2015-05-27T15:48:11Z</time>
</trkpt>
<trkpt lat="37.4265718" lon="-4.6563508">
<ele>2871</ele>
<time>2015-05-27T15:48:28Z</time>
</trkpt>
<trkpt lat="37.4266145" lon="-4.656831">
<ele>2885</ele>
<time>2015-05-27T15:48:45Z</time>
</trkpt>
<trkpt lat="37.4266723" lon="-4.65638">
<ele>2902</ele>
<time>2015-05-27T15:49:04Z</time>
</trkpt>
<trkpt lat="37.4274496" lon="-4.6573782">
<ele>2903</ele>
<time>2015-05-27T15:49:19Z</time>
</trkpt>
<trkpt lat="37.426331" lon="-4.6579859">
<ele>2928</ele>
<time>2015-05-27T15:49:34Z</time>
</trkpt>
<trkpt lat="37.4267199" lon="-4.6583242">
<ele>2944</ele>
<time>2015-05-27T15:49:50Z</time>
</trkpt>
<trkpt lat="37.4259015" lon="-4.657083">
<ele>2964</ele>
<time>2015-05-27T15:50:05Z</time>
</trkpt>
<trkpt lat="37.4266908" lon="-4.6569178">
<ele>2975</ele>
<time>2015-05-27T15:50:21Z</time>
</trkpt>
<trkpt lat="37.4257125" lon="-4.6557479">
<ele>2968</ele>
<time>2015-05-27T15:50:39Z</time>
</trkpt>
<trkpt lat="37.4260412" lon="-4.6564832">
<ele>2976</ele>
<time>2015-05-27T15:50:56Z</time>
</trkpt>
<trkpt lat="37.4261336" lon="-4.6549108">
<ele>2958</ele>
<time>2015-05-27T15:51:08Z</time>
</trkpt>
<trkpt lat="37.4261314" lon="-4.6532823">
<ele>2946</ele>
<time>2015-05-27T15:51:21Z</time>
</trkpt>
<trkpt lat="37.4262067" lon="-4.6515671">
<ele>2931</ele>
<time>2015-05-27T15:51:34Z</time>
</trkpt>
<trkpt lat="37.4263705" lon="-4.6497701">
<ele>2918</ele>
<time>2015-05-27T15:51:47Z</time>
</trkpt>
<trkpt lat="37.4258198" lon="-4.6500642">
<ele>2900</ele>
<time>2015-05-27T15:52:03Z</time>
</trkpt>
<trkpt lat="37.4267498" lon="-4.6483878">
<ele>2883</ele>
<time>2015-05-27T15:52:18Z</time>
</trkpt>
<trkpt lat="37.4269493" lon="-4.6466328">
<ele>2881</ele>
<time>2015-05-27T15:52:32Z</time>
</trkpt>
<trkpt lat="37.4270381" lon="-4.6450488">
<ele>2878</ele>
<time>2015-05-27T15:52:45Z</time>
</trkpt>
<trkpt lat="37.4278862" lon="-4.6430462">
<ele>2870</ele>
<time>2015-05-27T15:53:01Z</time>
</trkpt>
<trkpt lat="37.4287844" lon="-4.6409048">
<ele>2867</ele>
<time>2015-05-27T15:53:17Z</time>
</trkpt>
<trkpt lat="37.4294921" lon="-4.6386424">
<ele>2835</ele>
<time>2015-05-27T15:53:31Z</time>
</trkpt>
<trkpt lat="37.4298319" lon="-4.6372677">
<ele>2816</ele>
<time>2015-05-27T15:53:39Z</time>
</trkpt>
<trkpt lat="37.4299583" lon="-4.6358896">
<ele>2799</ele>
<time>2015-05-27T15:53:47Z</time>
</trkpt>
<trkpt lat="37.4300299" lon="-4.6341806">
<ele>2779</ele>
<time>2015-05-27T15:53:58Z</time>
</trkpt>
<trkpt lat="37.4301842" lon="-4.6324687">
<ele>2747</ele>
<time>2015-05-27T15:54:09Z</time>
</trkpt>
<trkpt lat="37.4303117" lon="-4.6304586">
<ele>2717</ele>
<time>2015-05-27T15:54:22Z</time>
</trkpt>
<trkpt lat="37.4299293" lon="-4.6282004">
<ele>2676</ele>
<time>2015-05-27T15:54:36Z</time>
</trkpt>
<trkpt lat="37.429082" lon="-4.6256833">
<ele>2624</ele>
<time>2015-05-27T15:54:52Z</time>
</trkpt>
<trkpt lat="37.4287001" lon="-4.6231903">
<ele>2580</ele>
<time>2015-05-27T15:55:10Z</time>
</trkpt>
<trkpt lat="37.4294289" lon="-4.6209409">
<ele>2544</ele>
<time>2015-05-27T15:55:26Z</time>
</trkpt>
<trkpt lat="37.4301027" lon="-4.6187047">
<ele>2513</ele>
<time>2015-05-27T15:55:42Z</time>
</trkpt>
<trkpt lat="37.4309003" lon="-4.6166615">
<ele>2498</ele>
<time>2015-05-27T15:55:58Z</time>
</trkpt>
<trkpt lat="37.4318399" lon="-4.614598">
<ele>2481</ele>
<time>2015-05-27T15:56:14Z</time>
</trkpt>
<trkpt lat="37.4326211" lon="-4.6127648">
<ele>2484</ele>
<time>2015-05-27T15:56:30Z</time>
</trkpt>
<trkpt lat="37.4329227" lon="-4.6109782">
<ele>2466</ele>
<time>2015-05-27T15:56:44Z</time>
</trkpt>
<trkpt lat="37.4338117" lon="-4.6090756">
<ele>2437</ele>
<time>2015-05-27T15:56:57Z</time>
</trkpt>
<trkpt lat="37.4346622" lon="-4.6075262">
<ele>2413</ele>
<time>2015-05-27T15:57:07Z</time>
</trkpt>
<trkpt lat="37.435429" lon="-4.6051722">
<ele>2385</ele>
<time>2015-05-27T15:57:23Z</time>
</trkpt>
<trkpt lat="37.4359527" lon="-4.6030752">
<ele>2361</ele>
<time>2015-05-27T15:57:38Z</time>
</trkpt>
<trkpt lat="37.4364051" lon="-4.6013249">
<ele>2347</ele>
<time>2015-05-27T15:57:50Z</time>
</trkpt>
<trkpt lat="37.436956" lon="-4.599468">
<ele>2321</ele>
<time>2015-05-27T15:58:03Z</time>
</trkpt>
<trkpt lat="37.437753" lon="-4.597297">
<ele>2294</ele>
<time>2015-05-27T15:58:19Z</time>
</trkpt>
<trkpt lat="37.4382462" lon="-4.595173">
<ele>2280</ele>
<time>2015-05-27T15:58:33Z</time>
</trkpt>
<trkpt lat="37.4383239" lon="-4.5939291">
<ele>2272</ele>
<time>2015-05-27T15:58:41Z</time>
</trkpt>
<trkpt lat="37.4390657" lon="-4.5914458">
<ele>2239</ele>
<time>2015-05-27T15:58:57Z</time>
</trkpt>
<trkpt lat="37.4397425" lon="-4.5889455">
<ele>2211</ele>
<time>2015-05-27T15:59:13Z</time>
</trkpt>
<trkpt lat="37.4401925" lon="-4.5864058">
<ele>2189</ele>
<time>2015-05-27T15:59:29Z</time>
</trkpt>
<trkpt lat="37.4403052" lon="-4.5844998">
<ele>2172</ele>
<time>2015-05-27T15:59:41Z</time>
</trkpt>
<trkpt lat="37.4403506" lon="-4.5832406">
<ele>2164</ele>
<time>2015-05-27T15:59:49Z</time>
</trkpt>
<trkpt lat="37.4404426" lon="-4.5819651">
<ele>2156</ele>
<time>2015-05-27T15:59:57Z</time>
</trkpt>
<trkpt lat="37.4405972" lon="-4.5802728">
<ele>2136</ele>
<time>2015-05-27T16:00:08Z</time>
</trkpt>
<trkpt lat="37.441316" lon="-4.5777696">
<ele>2092</ele>
<time>2015-05-27T16:00:24Z</time>
</trkpt>
<trkpt lat="37.4418298" lon="-4.5755359">
<ele>2069</ele>
<time>2015-05-27T16:00:38Z</time>
</trkpt>
<trkpt lat="37.4424744" lon="-4.5733571">
<ele>2032</ele>
<time>2015-05-27T16:00:53Z</time>
</trkpt>
<trkpt lat="37.443068" lon="-4.5715658">
<ele>2007</ele>
<time>2015-05-27T16:01:05Z</time>
</trkpt>
<trkpt lat="37.4436083" lon="-4.5697879">
<ele>1990</ele>
<time>2015-05-27T16:01:16Z</time>
</trkpt>
<trkpt lat="37.4438161" lon="-4.5683896">
<ele>1979</ele>
<time>2015-05-27T16:01:25Z</time>
</trkpt>
<trkpt lat="37.4441362" lon="-4.5671526">
<ele>1963</ele>
<time>2015-05-27T16:01:33Z</time>
</trkpt>
<trkpt lat="37.4448096" lon="-4.5646987">
<ele>1927</ele>
<time>2015-05-27T16:01:49Z</time>
</trkpt>
<trkpt lat="37.4454122" lon="-4.5622619">
<ele>1888</ele>
<time>2015-05-27T16:02:05Z</time>
</trkpt>
<trkpt lat="37.4463072" lon="-4.5601926">
<ele>1844</ele>
<time>2015-05-27T16:02:21Z</time>
</trkpt>
<trkpt lat="37.4470086" lon="-4.5582309">
<ele>1799</ele>
<time>2015-05-27T16:02:38Z</time>
</trkpt>
<trkpt lat="37.4478461" lon="-4.5560585">
<ele>1738</ele>
<time>2015-05-27T16:02:54Z</time>
</trkpt>
<trkpt lat="37.4487024" lon="-4.5539947">
<ele>1679</ele>
<time>2015-05-27T16:03:08Z</time>
</trkpt>
<trkpt lat="37.4495052" lon="-4.5517244">
<ele>1632</ele>
<time>2015-05-27T16:03:24Z</time>
</trkpt>
<trkpt lat="37.4504325" lon="-4.5495504">
<ele>1581</ele>
<time>2015-05-27T16:03:41Z</time>
</trkpt>
<trkpt lat="37.4504677" lon="-4.5476375">
<ele>1574</ele>
<time>2015-05-27T16:03:58Z</time>
</trkpt>
<trkpt lat="37.4500718" lon="-4.5458074">
<ele>1555</ele>
<time>2015-05-27T16:04:15Z</time>
</trkpt>
<trkpt lat="37.4504351" lon="-4.5436559">
<ele>1534</ele>
<time>2015-05-27T16:04:32Z</time>
</trkpt>
<trkpt lat="37.4509889" lon="-4.5415157">
<ele>1497</ele>
<time>2015-05-27T16:04:48Z</time>
</trkpt>
<trkpt lat="37.4517226" lon="-4.5393364">
<ele>1475</ele>
<time>2015-05-27T16:05:05Z</time>
</trkpt>
<trkpt lat="37.451152" lon="-4.5381943">
<ele>1483</ele>
<time>2015-05-27T16:05:21Z</time>
</trkpt>
<trkpt lat="37.4515109" lon="-4.5392822">
<ele>1476</ele>
<time>2015-05-27T16:05:37Z</time>
</trkpt>
<trkpt lat="37.4527224" lon="-4.5391175">
<ele>1446</ele>
<time>2015-05-27T16:05:52Z</time>
</trkpt>
<trkpt lat="37.4535319" lon="-4.5368346">
<ele>1426</ele>
<time>2015-05-27T16:06:08Z</time>
</trkpt>
<trkpt lat="37.453687" lon="-4.5347991">
<ele>1427</ele>
<time>2015-05-27T16:06:22Z</time>
</trkpt>
<trkpt lat="37.4538475" lon="-4.5335512">
<ele>1425</ele>
<time>2015-05-27T16:06:30Z</time>
</trkpt>
<trkpt lat="37.4539987" lon="-4.5321675">
<ele>1409</ele>
<time>2015-05-27T16:06:39Z</time>
</trkpt>
<trkpt lat="37.4538924" lon="-4.5303247">
<ele>1411</ele>
<time>2015-05-27T16:06:53Z</time>
</trkpt>
<trkpt lat="37.4530233" lon="-4.5288272">
<ele>1416</ele>
<time>2015-05-27T16:07:09Z</time>
</trkpt>
<trkpt lat="37.4525262" lon="-4.5284081">
<ele>1414</ele>
<time>2015-05-27T16:07:27Z</time>
</trkpt>
<trkpt lat="37.4537247" lon="-4.5266908">
<ele>1412</ele>
<time>2015-05-27T16:07:42Z</time>
</trkpt>
<trkpt lat="37.4544451" lon="-4.5253603">
<ele>1413</ele>
<time>2015-05-27T16:07:53Z</time>
</trkpt>
<trkpt lat="37.455432" lon="-4.52453">
<ele>1412</ele>
<time>2015-05-27T16:08:06Z</time>
</trkpt>
<trkpt lat="37.4548179" lon="-4.5242012">
<ele>1415</ele>
<time>2015-05-27T16:08:25Z</time>
</trkpt>
<trkpt lat="37.4545535" lon="-4.5219205">
<ele>1413</ele>
<time>2015-05-27T16:08:41Z</time>
</trkpt>
<trkpt lat="37.4546601" lon="-4.5207611">
<ele>1415</ele>
<time>2015-05-27T16:08:49Z</time>
</trkpt>
<trkpt lat="37.4544369" lon="-4.519467">
<ele>1435</ele>
<time>2015-05-27T16:09:00Z</time>
</trkpt>
<trkpt lat="37.4552161" lon="-4.5188846">
<ele>1457</ele>
<time>2015-05-27T16:09:19Z</time>
</trkpt>
<trkpt lat="37.4553757" lon="-4.5186004">
<ele>1487</ele>
<time>2015-05-27T16:09:38Z</time>
</trkpt>
<trkpt lat="37.4563045" lon="-4.5168606">
<ele>1501</ele>
<time>2015-05-27T16:09:54Z</time>
</trkpt>
<trkpt lat="37.4562129" lon="-4.5163102">
<ele>1525</ele>
<time>2015-05-27T16:10:13Z</time>
</trkpt>
<trkpt lat="37.4554012" lon="-4.5154064">
<ele>1544</ele>
<time>2015-05-27T16:10:31Z</time>
</trkpt>
<trkpt lat="37.4564695" lon="-4.5151831">
<ele>1553</ele>
<time>2015-05-27T16:10:44Z</time>
</trkpt>
<trkpt lat="37.4571388" lon="-4.514081">
<ele>1570</ele>
<time>2015-05-27T16:10:54Z</time>
</trkpt>
<trkpt lat="37.4564708" lon="-4.5124284">
<ele>1598</ele>
<time>2015-05-27T16:11:10Z</time>
</trkpt>
<trkpt lat="37.4570687" lon="-4.5128209">
<ele>1625</ele>
<time>2015-05-27T16:11:30Z</time>
</trkpt>
<trkpt lat="37.4580598" lon="-4.5114923">
<ele>1638</ele>
<time>2015-05-27T16:11:43Z</time>
</trkpt>
<trkpt lat="37.457912" lon="-4.5101003">
<ele>1650</ele>
<time>2015-05-27T16:11:52Z</time>
</trkpt>
<trkpt lat="37.4568337" lon="-4.5091402">
<ele>1682</ele>
<time>2015-05-27T16:12:09Z</time>
</trkpt>
<trkpt lat="37.4573102" lon="-4.5075379">
<ele>1715</ele>
<time>2015-05-27T16:12:28Z</time>
</trkpt>
<trkpt lat="37.4579247" lon="-4.5068577">
<ele>1757</ele>
<time>2015-05-27T16:12:47Z</time>
</trkpt>
<trkpt lat="37.4572094" lon="-4.5054629">
<ele>1786</ele>
<time>2015-05-27T16:12:59Z</time>
</trkpt>
<trkpt lat="37.4578317" lon="-4.5047841">
<ele>1830</ele>
<time>2015-05-27T16:13:15Z</time>
</trkpt>
<trkpt lat="37.4575341" lon="-4.504516">
<ele>1879</ele>
<time>2015-05-27T16:13:32Z</time>
</trkpt>
<trkpt lat="37.458296" lon="-4.5032592">
<ele>1903</ele>
<time>2015-05-27T16:13:43Z</time>
</trkpt>
<trkpt lat="37.4579431" lon="-4.5017436">
<ele>1925</ele>
<time>2015-05-27T16:13:53Z</time>
</trkpt>
<trkpt lat="37.4580041" lon="-4.5012141">
<ele>1977</ele>
<time>2015-05-27T16:14:16Z</time>
</trkpt>
<trkpt lat="37.4577111" lon="-4.500013">
<ele>2016</ele>
<time>2015-05-27T16:14:36Z</time>
</trkpt>
<trkpt lat="37.4574984" lon="-4.4991256">
<ele>2058</ele>
<time>2015-05-27T16:14:59Z</time>
</trkpt>
<trkpt lat="37.4576619" lon="-4.4981667">
<ele>2084</ele>
<time>2015-05-27T16:15:20Z</time>
</trkpt>
<trkpt lat="37.4577176" lon="-4.4964359">
<ele>2101</ele>
<time>2015-05-27T16:15:35Z</time>
</trkpt>
<trkpt lat="37.4584251" lon="-4.4960116">
<ele>2127</ele>
<time>2015-05-27T16:15:55Z</time>
</trkpt>
<trkpt lat="37.458109" lon="-4.4944851">
<ele>2134</ele>
<time>2015-05-27T16:16:06Z</time>
</trkpt>
<trkpt lat="37.4581099" lon="-4.4945167">
<ele>2151</ele>
<time>2015-05-27T16:16:25Z</time>
</trkpt>
<trkpt lat="37.4573336" lon="-4.4930351">
<ele>2159</ele>
<time>2015-05-27T16:16:41Z</time>
</trkpt>
<trkpt lat="37.4576369" lon="-4.4939508">
<ele>2175</ele>
<time>2015-05-27T16:16:59Z</time>
</trkpt>
<trkpt lat="37.4587071" lon="-4.4924305">
<ele>2206</ele>
<time>2015-05-27T16:17:14Z</time>
</trkpt>
<trkpt lat="37.4576229" lon="-4.491116">
<ele>2220</ele>
<time>2015-05-27T16:17:30Z</time>
</trkpt>
<trkpt lat="37.4580481" lon="-4.4917184">
<ele>2251</ele>
<time>2015-05-27T16:17:50Z</time>
</trkpt>
<trkpt lat="37.4591131" lon="-4.4910033">
<ele>2274</ele>
<time>2015-05-27T16:18:01Z</time>
</trkpt>
<trkpt lat="37.4596922" lon="-4.4898752">
<ele>2288</ele>
<time>2015-05-27T16:18:09Z</time>
</trkpt>
<trkpt lat="37.4592289" lon="-4.488513">
<ele>2290</ele>
<time>2015-05-27T16:18:18Z</time>
</trkpt>
<trkpt lat="37.4589793" lon="-4.4894519">
<ele>2312</ele>
<time>2015-05-27T16:18:35Z</time>
</trkpt>
<trkpt lat="37.460253" lon="-4.4891313">
<ele>2338</ele>
<time>2015-05-27T16:18:51Z</time>
</trkpt>
<trkpt lat="37.4605028" lon="-4.4877822">
<ele>2355</ele>
<time>2015-05-27T16:19:00Z</time>
</trkpt>
<trkpt lat="37.4600736" lon="-4.4879061">
<ele>2374</ele>
<time>2015-05-27T16:19:18Z</time>
</trkpt>
<trkpt lat="37.4611285" lon="-4.4875872">
<ele>2387</ele>
<time>2015-05-27T16:19:31Z</time>
</trkpt>
<trkpt lat="37.4613288" lon="-4.4862442">
<ele>2400</ele>
<time>2015-05-27T16:19:40Z</time>
</trkpt>
<trkpt lat="37.4601227" lon="-4.4858954">
<ele>2421</ele>
<time>2015-05-27T16:19:58Z</time>
</trkpt>
<trkpt lat="37.4613607" lon="-4.4852035">
<ele>2431</ele>
<time>2015-05-27T16:20:14Z</time>
</trkpt>
<trkpt lat="37.4605978" lon="-4.4835708">
<ele>2456</ele>
<time>2015-05-27T16:20:30Z</time>
</trkpt>
<trkpt lat="37.4616194" lon="-4.4835197">
<ele>2465</ele>
<time>2015-05-27T16:20:46Z</time>
</trkpt>
<trkpt lat="37.4622379" lon="-4.4826482">
<ele>2476</ele>
<time>2015-05-27T16:20:54Z</time>
</trkpt>
<trkpt lat="37.4624886" lon="-4.481478">
<ele>2489</ele>
<time>2015-05-27T16:21:03Z</time>
</trkpt>
<trkpt lat="37.4622589" lon="-4.4816587">
<ele>2509</ele>
<time>2015-05-27T16:21:22Z</time>
</trkpt>
<trkpt lat="37.4630576" lon="-4.4803434">
<ele>2522</ele>
<time>2015-05-27T16:21:33Z</time>
</trkpt>
<trkpt lat="37.4625553" lon="-4.4794986">
<ele>2545</ele>
<time>2015-05-27T16:21:46Z</time>
</trkpt>
<trkpt lat="37.463145" lon="-4.4785891">
<ele>2567</ele>
<time>2015-05-27T16:21:58Z</time>
</trkpt>
<trkpt lat="37.4635512" lon="-4.4777365">
<ele>2599</ele>
<time>2015-05-27T16:22:15Z</time>
</trkpt>
<trkpt lat="37.4638253" lon="-4.4773061">
<ele>2615</ele>
<time>2015-05-27T16:22:32Z</time>
</trkpt>
<trkpt lat="37.4644718" lon="-4.4763126">
<ele>2631</ele>
<time>2015-05-27T16:22:40Z</time>
</trkpt>
<trkpt lat="37.4643859" lon="-4.4750224">
<ele>2632</ele>
<time>2015-05-27T16:22:48Z</time>
</trkpt>
<trkpt lat="37.4639119" lon="-4.474598">
<ele>2636</ele>
<time>2015-05-27T16:23:03Z</time>
</trkpt>
<trkpt lat="37.4648293" lon="-4.4732928">
<ele>2647</ele>
<time>2015-05-27T16:23:15Z</time>
</trkpt>
<trkpt lat="37.4648588" lon="-4.4719674">
<ele>2636</ele>
<time>2015-05-27T16:23:23Z</time>
</trkpt>
<trkpt lat="37.4647326" lon="-4.4705851">
<ele>2630</ele>
<time>2015-05-27T16:23:31Z</time>
</trkpt>
<trkpt lat="37.4647473" lon="-4.4691475">
<ele>2628</ele>
<time>2015-05-27T16:23:39Z</time>
</trkpt>
<trkpt lat="37.4646067" lon="-4.4678511">
<ele>2623</ele>
<time>2015-05-27T16:23:47Z</time>
</trkpt>
<trkpt lat="37.4644641" lon="-4.4661429">
<ele>2613</ele>
<time>2015-05-27T16:23:57Z</time>
</trkpt>
<trkpt lat="37.4644183" lon="-4.4648076">
<ele>2612</ele>
<time>2015-05-27T16:24:05Z</time>
</trkpt>
<trkpt lat="37.4646239" lon="-4.4635453">
<ele>2620</ele>
<time>2015-05-27T16:24:13Z</time>
</trkpt>
<trkpt lat="37.464947" lon="-4.4621516">
<ele>2612</ele>
<time>2015-05-27T16:24:21Z</time>
</trkpt>
<trkpt lat="37.4652959" lon="-4.460808">
<ele>2599</ele>
<time>2015-05-27T16:24:29Z</time>
</trkpt>
<trkpt lat="37.4654763" lon="-4.4593955">
<ele>2589</ele>
<time>2015-05-27T16:24:37Z</time>
</trkpt>
<trkpt lat="37.4655096" lon="-4.457987">
<ele>2579</ele>
<time>2015-05-27T16:24:45Z</time>
</trkpt>
<trkpt lat="37.4653612" lon="-4.4564348">
<ele>2565</ele>
<time>2015-05-27T16:24:54Z</time>
</trkpt>
<trkpt lat="37.4651424" lon="-4.4549762">
<ele>2553</ele>
<time>2015-05-27T16:25:02Z</time>
</trkpt>
<trkpt lat="37.4645924" lon="-4.4536226">
<ele>2558</ele>
<time>2015-05-27T16:25:12Z</time>
</trkpt>
<trkpt lat="37.4646137" lon="-4.453046">
<ele>2565</ele>
<time>2015-05-27T16:25:32Z</time>
</trkpt>
<trkpt lat="37.464632" lon="-4.4515014">
<ele>2564</ele>
<time>2015-05-27T16:25:41Z</time>
</trkpt>
<trkpt lat="37.4645645" lon="-4.4498836">
<ele>2567</ele>
<time>2015-05-27T16:25:50Z</time>
</trkpt>
<trkpt lat="37.4644791" lon="-4.4482606">
<ele>2587</ele>
<time>2015-05-27T16:25:59Z</time>
</trkpt>
<trkpt lat="37.4642513" lon="-4.4468073">
<ele>2596</ele>
<time>2015-05-27T16:26:07Z</time>
</trkpt>
<trkpt lat="37.4633716" lon="-4.4459556">
<ele>2612</ele>
<time>2015-05-27T16:26:19Z</time>
</trkpt>
<trkpt lat="37.4641307" lon="-4.4460147">
<ele>2639</ele>
<time>2015-05-27T16:26:38Z</time>
</trkpt>
<trkpt lat="37.4648433" lon="-4.4448719">
<ele>2654</ele>
<time>2015-05-27T16:26:48Z</time>
</trkpt>
<trkpt lat="37.4646138" lon="-4.4435563">
<ele>2651</ele>
<time>2015-05-27T16:26:56Z</time>
</trkpt>
<trkpt lat="37.4634453" lon="-4.4421663">
<ele>2651</ele>
<time>2015-05-27T16:27:11Z</time>
</trkpt>
<trkpt lat="37.4626036" lon="-4.4408371">
<ele>2640</ele>
<time>2015-05-27T16:27:21Z</time>
</trkpt>
<trkpt lat="37.4620807" lon="-4.4396344">
<ele>2629</ele>
<time>2015-05-27T16:27:29Z</time>
</trkpt>
<trkpt lat="37.4617572" lon="-4.4383406">
<ele>2619</ele>
<time>2015-05-27T16:27:37Z</time>
</trkpt>
<trkpt lat="37.4617448" lon="-4.4370053">
<ele>2610</ele>
<time>2015-05-27T16:27:45Z</time>
</trkpt>
<trkpt lat="37.4614587" lon="-4.4355943">
<ele>2604</ele>
<time>2015-05-27T16:27:53Z</time>
</trkpt>
<trkpt lat="37.4610761" lon="-4.4342276">
<ele>2603</ele>
<time>2015-05-27T16:28:01Z</time>
</trkpt>
<trkpt lat="37.4603772" lon="-4.4333539">
<ele>2602</ele>
<time>2015-05-27T16:28:09Z</time>
</trkpt>
<trkpt lat="37.4596131" lon="-4.4336078">
<ele>2601</ele>
<time>2015-05-27T16:28:22Z</time>
</trkpt>
<trkpt lat="37.460201" lon="-4.4321427">
<ele>2595</ele>
<time>2015-05-27T16:28:36Z</time>
</trkpt>
<trkpt lat="37.4604112" lon="-4.4306341">
<ele>2578</ele>
<time>2015-05-27T16:28:45Z</time>
</trkpt>
<trkpt lat="37.4605551" lon="-4.429311">
<ele>2560</ele>
<time>2015-05-27T16:28:53Z</time>
</trkpt>
<trkpt lat="37.4601223" lon="-4.427762">
<ele>2547</ele>
<time>2015-05-27T16:29:02Z</time>
</trkpt>
<trkpt lat="37.4600355" lon="-4.4263295">
<ele>2538</ele>
<time>2015-05-27T16:29:10Z</time>
</trkpt>
<trkpt lat="37.4599697" lon="-4.4248883">
<ele>2540</ele>
<time>2015-05-27T16:29:18Z</time>
</trkpt>
<trkpt lat="37.4600294" lon="-4.4235614">
<ele>2540</ele>
<time>2015-05-27T16:29:26Z</time>
</trkpt>
<trkpt lat="37.4603506" lon="-4.4222024">
<ele>2542</ele>
<time>2015-05-27T16:29:34Z</time>
</trkpt>
<trkpt lat="37.4607823" lon="-4.4207699">
<ele>2527</ele>
<time>2015-05-27T16:29:42Z</time>
</trkpt>
<trkpt lat="37.4612543" lon="-4.419256">
<ele>2512</ele>
<time>2015-05-27T16:29:50Z</time>
</trkpt>
<trkpt lat="37.4615339" lon="-4.417781">
<ele>2507</ele>
<time>2015-05-27T16:29:58Z</time>
</trkpt>
<trkpt lat="37.4619784" lon="-4.4164921">
<ele>2501</ele>
<time>2015-05-27T16:30:06Z</time>
</trkpt>
<trkpt lat="37.4625929" lon="-4.4153766">
<ele>2492</ele>
<time>2015-05-27T16:30:14Z</time>
</trkpt>
<trkpt lat="37.4631454" lon="-4.4141637">
<ele>2488</ele>
<time>2015-05-27T16:30:22Z</time>
</trkpt>
<trkpt lat="37.4636232" lon="-4.4126876">
<ele>2482</ele>
<time>2015-05-27T16:30:32Z</time>
</trkpt>
<trkpt lat="37.4641115" lon="-4.4111083">
<ele>2478</ele>
<time>2015-05-27T16:30:42Z</time>
</trkpt>
<trkpt lat="37.4644473" lon="-4.4098219">
<ele>2473</ele>
<time>2015-05-27T16:30:50Z</time>
</trkpt>
<trkpt lat="37.464846" lon="-4.4085269">
<ele>2461</ele>
<time>2015-05-27T16:30:58Z</time>
</trkpt>
<trkpt lat="37.4651864" lon="-4.4072794">
<ele>2454</ele>
<time>2015-05-27T16:31:06Z</time>
</trkpt>
<trkpt lat="37.4655378" lon="-4.4060253">
<ele>2447</ele>
<time>2015-05-27T16:31:14Z</time>
</trkpt>
<trkpt lat="37.4657423" lon="-4.4040739">
<ele>2431</ele>
<time>2015-05-27T16:31:26Z</time>
</trkpt>
<trkpt lat="37.4658978" lon="-4.4027878">
<ele>2421</ele>
<time>2015-05-27T16:31:34Z</time>
</trkpt>
<trkpt lat="37.4662378" lon="-4.4014999">
<ele>2412</ele>
<time>2015-05-27T16:31:43Z</time>
</trkpt>
<trkpt lat="37.4668394" lon="-4.3998036">
<ele>2406</ele>
<time>2015-05-27T16:31:56Z</time>
</trkpt>
<trkpt lat="37.467576" lon="-4.3980379">
<ele>2395</ele>
<time>2015-05-27T16:32:12Z</time>
</trkpt>
<trkpt lat="37.468587" lon="-4.3963145">
<ele>2387</ele>
<time>2015-05-27T16:32:28Z</time>
</trkpt>
<trkpt lat="37.4688094" lon="-4.3949235">
<ele>2392</ele>
<time>2015-05-27T16:32:41Z</time>
</trkpt>
<trkpt lat="37.4681117" lon="-4.394123">
<ele>2401</ele>
<time>2015-05-27T16:32:49Z</time>
</trkpt>
<trkpt lat="37.4673183" lon="-4.3944788">
<ele>2400</ele>
<time>2015-05-27T16:33:00Z</time>
</trkpt>
<trkpt lat="37.4675557" lon="-4.3936955">
<ele>2396</ele>
<time>2015-05-27T16:33:15Z</time>
</trkpt>
<trkpt lat="37.466793" lon="-4.3929621">
<ele>2399</ele>
<time>2015-05-27T16:33:23Z</time>
</trkpt>
<trkpt lat="37.4665486" lon="-4.3933438">
<ele>2396</ele>
<time>2015-05-27T16:33:29Z</time>
</trkpt>
<trkpt lat="37.4674482" lon="-4.3928578">
<ele>2396</ele>
<time>2015-05-27T16:33:47Z</time>
</trkpt>
<trkpt lat="37.4679717" lon="-4.3912021">
<ele>2388</ele>
<time>2015-05-27T16:34:01Z</time>
</trkpt>
<trkpt lat="37.4681483" lon="-4.3900603">
<ele>2376</ele>
<time>2015-05-27T16:34:09Z</time>
</trkpt>
<trkpt lat="37.4680732" lon="-4.3883676">
<ele>2353</ele>
<time>2015-05-27T16:34:20Z</time>
</trkpt>
<trkpt lat="37.467901" lon="-4.3867916">
<ele>2323</ele>
<time>2015-05-27T16:34:31Z</time>
</trkpt>
<trkpt lat="37.4679309" lon="-4.3854707">
<ele>2295</ele>
<time>2015-05-27T16:34:40Z</time>
</trkpt>
<trkpt lat="37.4679518" lon="-4.3842289">
<ele>2269</ele>
<time>2015-05-27T16:34:48Z</time>
</trkpt>
<trkpt lat="37.4676643" lon="-4.3829785">
<ele>2249</ele>
<time>2015-05-27T16:34:56Z</time>
</trkpt>
<trkpt lat="37.4671995" lon="-4.3816908">
<ele>2224</ele>
<time>2015-05-27T16:35:04Z</time>
</trkpt>
<trkpt lat="37.4665286" lon="-4.3805093">
<ele>2208</ele>
<time>2015-05-27T16:35:12Z</time>
</trkpt>
<trkpt lat="37.4658641" lon="-4.3793491">
<ele>2194</ele>
<time>2015-05-27T16:35:20Z</time>
</trkpt>
<trkpt lat="37.4651964" lon="-4.3780798">
<ele>2178</ele>
<time>2015-05-27T16:35:28Z</time>
</trkpt>
<trkpt lat="37.4646219" lon="-4.3767904">
<ele>2163</ele>
<time>2015-05-27T16:35:36Z</time>
</trkpt>
<trkpt lat="37.4640218" lon="-4.3755041">
<ele>2138</ele>
<time>2015-05-27T16:35:44Z</time>
</trkpt>
<trkpt lat="37.4632921" lon="-4.374318">
<ele>2122</ele>
<time>2015-05-27T16:35:52Z</time>
</trkpt>
<trkpt lat="37.462455" lon="-4.3731606">
<ele>2106</ele>
<time>2015-05-27T16:36:00Z</time>
</trkpt>
<trkpt lat="37.4615624" lon="-4.3720602">
<ele>2086</ele>
<time>2015-05-27T16:36:08Z</time>
</trkpt>
<trkpt lat="37.4609432" lon="-4.3707298">
<ele>2084</ele>
<time>2015-05-27T16:36:16Z</time>
</trkpt>
<trkpt lat="37.4605001" lon="-4.3693854">
<ele>2079</ele>
<time>2015-05-27T16:36:24Z</time>
</trkpt>
<trkpt lat="37.4600474" lon="-4.3679852">
<ele>2068</ele>
<time>2015-05-27T16:36:32Z</time>
</trkpt>
<trkpt lat="37.4596386" lon="-4.3666084">
<ele>2052</ele>
<time>2015-05-27T16:36:40Z</time>
</trkpt>
<trkpt lat="37.4593466" lon="-4.3651454">
<ele>2039</ele>
<time>2015-05-27T16:36:48Z</time>
</trkpt>
<trkpt lat="37.4591916" lon="-4.3637551">
<ele>2047</ele>
<time>2015-05-27T16:36:57Z</time>
</trkpt>
<trkpt lat="37.458654" lon="-4.3627189">
<ele>2049</ele>
<time>2015-05-27T16:37:05Z</time>
</trkpt>
<trkpt lat="37.4580162" lon="-4.3616142">
<ele>2044</ele>
<time>2015-05-27T16:37:13Z</time>
</trkpt>
<trkpt lat="37.4575784" lon="-4.360408">
<ele>2040</ele>
<time>2015-05-27T16:37:21Z</time>
</trkpt>
<trkpt lat="37.4571635" lon="-4.3591209">
<ele>2040</ele>
<time>2015-05-27T16:37:29Z</time>
</trkpt>
<trkpt lat="37.456654" lon="-4.3577551">
<ele>2038</ele>
<time>2015-05-27T16:37:37Z</time>
</trkpt>
<trkpt lat="37.4563617" lon="-4.3562688">
<ele>2033</ele>
<time>2015-05-27T16:37:45Z</time>
</trkpt>
<trkpt lat="37.4561467" lon="-4.3548545">
<ele>2036</ele>
<time>2015-05-27T16:37:53Z</time>
</trkpt>
<trkpt lat="37.4558181" lon="-4.3533957">
<ele>2029</ele>
<time>2015-05-27T16:38:01Z</time>
</trkpt>
<trkpt lat="37.4554945" lon="-4.3519521">
<ele>2021</ele>
<time>2015-05-27T16:38:09Z</time>
</trkpt>
<trkpt lat="37.4551181" lon="-4.3503495">
<ele>2000</ele>
<time>2015-05-27T16:38:18Z</time>
</trkpt>
<trkpt lat="37.4548169" lon="-4.3488069">
<ele>1974</ele>
<time>2015-05-27T16:38:27Z</time>
</trkpt>
<trkpt lat="37.4545094" lon="-4.3475112">
<ele>1959</ele>
<time>2015-05-27T16:38:35Z</time>
</trkpt>
<trkpt lat="37.4542094" lon="-4.3462498">
<ele>1941</ele>
<time>2015-05-27T16:38:43Z</time>
</trkpt>
<trkpt lat="37.453872" lon="-4.3450188">
<ele>1922</ele>
<time>2015-05-27T16:38:51Z</time>
</trkpt>
<trkpt lat="37.4534652" lon="-4.3438107">
<ele>1910</ele>
<time>2015-05-27T16:38:59Z</time>
</trkpt>
<trkpt lat="37.4530343" lon="-4.342578">
<ele>1906</ele>
<time>2015-05-27T16:39:07Z</time>
</trkpt>
<trkpt lat="37.4526378" lon="-4.3414167">
<ele>1909</ele>
<time>2015-05-27T16:39:15Z</time>
</trkpt>
<trkpt lat="37.4522658" lon="-4.3401502">
<ele>1905</ele>
<time>2015-05-27T16:39:23Z</time>
</trkpt>
<trkpt lat="37.4519996" lon="-4.3387657">
<ele>1903</ele>
<time>2015-05-27T16:39:31Z</time>
</trkpt>
<trkpt lat="37.4517346" lon="-4.3374703">
<ele>1906</ele>
<time>2015-05-27T16:39:39Z</time>
</trkpt>
<trkpt lat="37.4513687" lon="-4.3361861">
<ele>1899</ele>
<time>2015-05-27T16:39:47Z</time>
</trkpt>
<trkpt lat="37.4511148" lon="-4.3347827">
<ele>1892</ele>
<time>2015-05-27T16:39:55Z</time>
</trkpt>
<trkpt lat="37.450902" lon="-4.3333267">
<ele>1887</ele>
<time>2015-05-27T16:40:03Z</time>
</trkpt>
<trkpt lat="37.4508981" lon="-4.3318824">
<ele>1888</ele>
<time>2015-05-27T16:40:11Z</time>
</trkpt>
<trkpt lat="37.4509693" lon="-4.3302568">
<ele>1882</ele>
<time>2015-05-27T16:40:19Z</time>
</trkpt>
<trkpt lat="37.4508124" lon="-4.3286913">
<ele>1875</ele>
<time>2015-05-27T16:40:27Z</time>
</trkpt>
<trkpt lat="37.4505973" lon="-4.3272304">
<ele>1872</ele>
<time>2015-05-27T16:40:35Z</time>
</trkpt>
<trkpt lat="37.4504174" lon="-4.3256494">
<ele>1863</ele>
<time>2015-05-27T16:40:43Z</time>
</trkpt>
<trkpt lat="37.4503585" lon="-4.3240978">
<ele>1860</ele>
<time>2015-05-27T16:40:51Z</time>
</trkpt>
<trkpt lat="37.4502765" lon="-4.3226734">
<ele>1858</ele>
<time>2015-05-27T16:40:59Z</time>
</trkpt>
<trkpt lat="37.4500891" lon="-4.3210844">
<ele>1847</ele>
<time>2015-05-27T16:41:08Z</time>
</trkpt>
<trkpt lat="37.4500271" lon="-4.319459">
<ele>1819</ele>
<time>2015-05-27T16:41:17Z</time>
</trkpt>
<trkpt lat="37.4500392" lon="-4.3179982">
<ele>1801</ele>
<time>2015-05-27T16:41:24Z</time>
</trkpt>
<trkpt lat="37.4501082" lon="-4.3165798">
<ele>1802</ele>
<time>2015-05-27T16:41:32Z</time>
</trkpt>
<trkpt lat="37.4501503" lon="-4.3150239">
<ele>1789</ele>
<time>2015-05-27T16:41:40Z</time>
</trkpt>
<trkpt lat="37.450116" lon="-4.3133641">
<ele>1779</ele>
<time>2015-05-27T16:41:49Z</time>
</trkpt>
<trkpt lat="37.4501325" lon="-4.3118409">
<ele>1762</ele>
<time>2015-05-27T16:41:57Z</time>
</trkpt>
<trkpt lat="37.450016" lon="-4.3103466">
<ele>1752</ele>
<time>2015-05-27T16:42:05Z</time>
</trkpt>
<trkpt lat="37.4498973" lon="-4.3089114">
<ele>1736</ele>
<time>2015-05-27T16:42:13Z</time>
</trkpt>
<trkpt lat="37.4500062" lon="-4.3074679">
<ele>1711</ele>
<time>2015-05-27T16:42:21Z</time>
</trkpt>
<trkpt lat="37.4500136" lon="-4.3059779">
<ele>1695</ele>
<time>2015-05-27T16:42:29Z</time>
</trkpt>
<trkpt lat="37.4500345" lon="-4.3045248">
<ele>1681</ele>
<time>2015-05-27T16:42:37Z</time>
</trkpt>
<trkpt lat="37.4500558" lon="-4.3031055">
<ele>1671</ele>
<time>2015-05-27T16:42:45Z</time>
</trkpt>
<trkpt lat="37.4500003" lon="-4.3016567">
<ele>1660</ele>
<time>2015-05-27T16:42:53Z</time>
</trkpt>
<trkpt lat="37.4498808" lon="-4.2999997">
<ele>1646</ele>
<time>2015-05-27T16:43:02Z</time>
</trkpt>
<trkpt lat="37.4498231" lon="-4.298409">
<ele>1627</ele>
<time>2015-05-27T16:43:10Z</time>
</trkpt>
<trkpt lat="37.4496775" lon="-4.2968877">
<ele>1612</ele>
<time>2015-05-27T16:43:18Z</time>
</trkpt>
<trkpt lat="37.4494891" lon="-4.2953984">
<ele>1598</ele>
<time>2015-05-27T16:43:26Z</time>
</trkpt>
<trkpt lat="37.4493702" lon="-4.2940008">
<ele>1584</ele>
<time>2015-05-27T16:43:34Z</time>
</trkpt>
<trkpt lat="37.4494135" lon="-4.292608">
<ele>1570</ele>
<time>2015-05-27T16:43:42Z</time>
</trkpt>
<trkpt lat="37.449629" lon="-4.2912227">
<ele>1555</ele>
<time>2015-05-27T16:43:50Z</time>
</trkpt>
<trkpt lat="37.4498682" lon="-4.2898117">
<ele>1547</ele>
<time>2015-05-27T16:43:58Z</time>
</trkpt>
<trkpt lat="37.450172" lon="-4.2884344">
<ele>1533</ele>
<time>2015-05-27T16:44:06Z</time>
</trkpt>
<trkpt lat="37.4504977" lon="-4.2871181">
<ele>1520</ele>
<time>2015-05-27T16:44:14Z</time>
</trkpt>
<trkpt lat="37.4507347" lon="-4.2857591">
<ele>1504</ele>
<time>2015-05-27T16:44:22Z</time>
</trkpt>
<trkpt lat="37.4510681" lon="-4.2844471">
<ele>1490</ele>
<time>2015-05-27T16:44:30Z</time>
</trkpt>
<trkpt lat="37.4513166" lon="-4.2830337">
<ele>1483</ele>
<time>2015-05-27T16:44:38Z</time>
</trkpt>
<trkpt lat="37.4514671" lon="-4.2815957">
<ele>1476</ele>
<time>2015-05-27T16:44:46Z</time>
</trkpt>
<trkpt lat="37.4516137" lon="-4.2802365">
<ele>1462</ele>
<time>2015-05-27T16:44:54Z</time>
</trkpt>
<trkpt lat="37.4518743" lon="-4.2788707">
<ele>1451</ele>
<time>2015-05-27T16:45:02Z</time>
</trkpt>
<trkpt lat="37.4519974" lon="-4.2774506">
<ele>1439</ele>
<time>2015-05-27T16:45:10Z</time>
</trkpt>
<trkpt lat="37.4520859" lon="-4.2761811">
<ele>1429</ele>
<time>2015-05-27T16:45:18Z</time>
</trkpt>
<trkpt lat="37.4522646" lon="-4.2747708">
<ele>1418</ele>
<time>2015-05-27T16:45:26Z</time>
</trkpt>
<trkpt lat="37.4526017" lon="-4.2734375">
<ele>1403</ele>
<time>2015-05-27T16:45:34Z</time>
</trkpt>
<trkpt lat="37.4530906" lon="-4.2722427">
<ele>1385</ele>
<time>2015-05-27T16:45:42Z</time>
</trkpt>
<trkpt lat="37.4534264" lon="-4.2708771">
<ele>1368</ele>
<time>2015-05-27T16:45:50Z</time>
</trkpt>
<trkpt lat="37.4537437" lon="-4.2693152">
<ele>1347</ele>
<time>2015-05-27T16:45:59Z</time>
</trkpt>
<trkpt lat="37.4540258" lon="-4.267809">
<ele>1328</ele>
<time>2015-05-27T16:46:08Z</time>
</trkpt>
<trkpt lat="37.4544596" lon="-4.2661231">
<ele>1304</ele>
<time>2015-05-27T16:46:18Z</time>
</trkpt>
<trkpt lat="37.4548528" lon="-4.2648033">
<ele>1290</ele>
<time>2015-05-27T16:46:26Z</time>
</trkpt>
<trkpt lat="37.4551154" lon="-4.2634352">
<ele>1275</ele>
<time>2015-05-27T16:46:34Z</time>
</trkpt>
<trkpt lat="37.4554825" lon="-4.2618281">
<ele>1261</ele>
<time>2015-05-27T16:46:43Z</time>
</trkpt>
<trkpt lat="37.4559978" lon="-4.2600531">
<ele>1248</ele>
<time>2015-05-27T16:46:53Z</time>
</trkpt>
<trkpt lat="37.4564471" lon="-4.258384">
<ele>1237</ele>
<time>2015-05-27T16:47:03Z</time>
</trkpt>
<trkpt lat="37.4568058" lon="-4.2570171">
<ele>1230</ele>
<time>2015-05-27T16:47:11Z</time>
</trkpt>
<trkpt lat="37.4572602" lon="-4.2555678">
<ele>1223</ele>
<time>2015-05-27T16:47:19Z</time>
</trkpt>
<trkpt lat="37.4577433" lon="-4.2540278">
<ele>1217</ele>
<time>2015-05-27T16:47:28Z</time>
</trkpt>
<trkpt lat="37.4574975" lon="-4.2524966">
<ele>1225</ele>
<time>2015-05-27T16:47:37Z</time>
</trkpt>
<trkpt lat="37.4570543" lon="-4.2522256">
<ele>1251</ele>
<time>2015-05-27T16:47:51Z</time>
</trkpt>
<trkpt lat="37.4576172" lon="-4.2510221">
<ele>1260</ele>
<time>2015-05-27T16:48:00Z</time>
</trkpt>
<trkpt lat="37.4566838" lon="-4.2501944">
<ele>1278</ele>
<time>2015-05-27T16:48:14Z</time>
</trkpt>
<trkpt lat="37.45717" lon="-4.2496593">
<ele>1301</ele>
<time>2015-05-27T16:48:32Z</time>
</trkpt>
<trkpt lat="37.4569334" lon="-4.2483671">
<ele>1314</ele>
<time>2015-05-27T16:48:40Z</time>
</trkpt>
<trkpt lat="37.4570676" lon="-4.2480304">
<ele>1338</ele>
<time>2015-05-27T16:48:56Z</time>
</trkpt>
<trkpt lat="37.4574685" lon="-4.2467753">
<ele>1349</ele>
<time>2015-05-27T16:49:04Z</time>
</trkpt>
<trkpt lat="37.4571053" lon="-4.2459725">
<ele>1376</ele>
<time>2015-05-27T16:49:22Z</time>
</trkpt>
<trkpt lat="37.4571052" lon="-4.2444301">
<ele>1395</ele>
<time>2015-05-27T16:49:35Z</time>
</trkpt>
<trkpt lat="37.4575144" lon="-4.2435996">
<ele>1417</ele>
<time>2015-05-27T16:49:51Z</time>
</trkpt>
<trkpt lat="37.4574075" lon="-4.2421631">
<ele>1419</ele>
<time>2015-05-27T16:50:00Z</time>
</trkpt>
<trkpt lat="37.4564438" lon="-4.2424108">
<ele>1425</ele>
<time>2015-05-27T16:50:17Z</time>
</trkpt>
<trkpt lat="37.4573899" lon="-4.2417426">
<ele>1441</ele>
<time>2015-05-27T16:50:31Z</time>
</trkpt>
<trkpt lat="37.4569637" lon="-4.2405683">
<ele>1456</ele>
<time>2015-05-27T16:50:41Z</time>
</trkpt>
<trkpt lat="37.4573461" lon="-4.2394061">
<ele>1479</ele>
<time>2015-05-27T16:50:57Z</time>
</trkpt>
<trkpt lat="37.4572375" lon="-4.238701">
<ele>1491</ele>
<time>2015-05-27T16:51:14Z</time>
</trkpt>
<trkpt lat="37.4577398" lon="-4.2375472">
<ele>1506</ele>
<time>2015-05-27T16:51:22Z</time>
</trkpt>
<trkpt lat="37.4570672" lon="-4.236905">
<ele>1510</ele>
<time>2015-05-27T16:51:40Z</time>
</trkpt>
<trkpt lat="37.4578489" lon="-4.2362106">
<ele>1525</ele>
<time>2015-05-27T16:51:51Z</time>
</trkpt>
<trkpt lat="37.4573971" lon="-4.2349538">
<ele>1529</ele>
<time>2015-05-27T16:52:02Z</time>
</trkpt>
<trkpt lat="37.4576967" lon="-4.2351396">
<ele>1541</ele>
<time>2015-05-27T16:52:19Z</time>
</trkpt>
<trkpt lat="37.4574338" lon="-4.2338284">
<ele>1556</ele>
<time>2015-05-27T16:52:28Z</time>
</trkpt>
<trkpt lat="37.4574173" lon="-4.2339659">
<ele>1573</ele>
<time>2015-05-27T16:52:45Z</time>
</trkpt>
<trkpt lat="37.4577174" lon="-4.2327882">
<ele>1580</ele>
<time>2015-05-27T16:52:53Z</time>
</trkpt>
<trkpt lat="37.4570495" lon="-4.2320767">
<ele>1591</ele>
<time>2015-05-27T16:53:05Z</time>
</trkpt>
<trkpt lat="37.4579563" lon="-4.2315921">
<ele>1602</ele>
<time>2015-05-27T16:53:18Z</time>
</trkpt>
<trkpt lat="37.4581518" lon="-4.2302997">
<ele>1612</ele>
<time>2015-05-27T16:53:26Z</time>
</trkpt>
<trkpt lat="37.4572681" lon="-4.2291578">
<ele>1627</ele>
<time>2015-05-27T16:53:39Z</time>
</trkpt>
<trkpt lat="37.4576079" lon="-4.2285932">
<ele>1649</ele>
<time>2015-05-27T16:53:55Z</time>
</trkpt>
<trkpt lat="37.4571958" lon="-4.2275074">
<ele>1662</ele>
<time>2015-05-27T16:54:04Z</time>
</trkpt>
<trkpt lat="37.4575975" lon="-4.2271803">
<ele>1688</ele>
<time>2015-05-27T16:54:19Z</time>
</trkpt>
<trkpt lat="37.4575742" lon="-4.2259221">
<ele>1701</ele>
<time>2015-05-27T16:54:27Z</time>
</trkpt>
<trkpt lat="37.45781" lon="-4.2253228">
<ele>1722</ele>
<time>2015-05-27T16:54:44Z</time>
</trkpt>
<trkpt lat="37.4582057" lon="-4.2239873">
<ele>1727</ele>
<time>2015-05-27T16:54:52Z</time>
</trkpt>
<trkpt lat="37.4577086" lon="-4.2226981">
<ele>1723</ele>
<time>2015-05-27T16:55:01Z</time>
</trkpt>
<trkpt lat="37.457974" lon="-4.2233618">
<ele>1712</ele>
<time>2015-05-27T16:55:18Z</time>
</trkpt>
<trkpt lat="37.4580338" lon="-4.2233698">
<ele>1735</ele>
<time>2015-05-27T16:55:36Z</time>
</trkpt>
<trkpt lat="37.4584097" lon="-4.2221838">
<ele>1744</ele>
<time>2015-05-27T16:55:46Z</time>
</trkpt>
<trkpt lat="37.4582887" lon="-4.2222398">
<ele>1769</ele>
<time>2015-05-27T16:56:03Z</time>
</trkpt>
<trkpt lat="37.4583311" lon="-4.2209987">
<ele>1779</ele>
<time>2015-05-27T16:56:11Z</time>
</trkpt>
<trkpt lat="37.459507" lon="-4.2208007">
<ele>1796</ele>
<time>2015-05-27T16:56:26Z</time>
</trkpt>
<trkpt lat="37.458734" lon="-4.2206262">
<ele>1813</ele>
<time>2015-05-27T16:56:39Z</time>
</trkpt>
<trkpt lat="37.4582899" lon="-4.2196274">
<ele>1822</ele>
<time>2015-05-27T16:56:47Z</time>
</trkpt>
<trkpt lat="37.4587486" lon="-4.2185465">
<ele>1824</ele>
<time>2015-05-27T16:56:55Z</time>
</trkpt>
<trkpt lat="37.4592375" lon="-4.2190296">
<ele>1840</ele>
<time>2015-05-27T16:57:11Z</time>
</trkpt>
<trkpt lat="37.4589186" lon="-4.2178053">
<ele>1846</ele>
<time>2015-05-27T16:57:24Z</time>
</trkpt>
<trkpt lat="37.4593622" lon="-4.2183267">
<ele>1854</ele>
<time>2015-05-27T16:57:41Z</time>
</trkpt>
<trkpt lat="37.4587298" lon="-4.2191165">
<ele>1860</ele>
<time>2015-05-27T16:57:58Z</time>
</trkpt>
<trkpt lat="37.4580932" lon="-4.2199462">
<ele>1889</ele>
<time>2015-05-27T16:58:22Z</time>
</trkpt>
<trkpt lat="37.4585722" lon="-4.2200214">
<ele>1902</ele>
<time>2015-05-27T16:58:35Z</time>
</trkpt>
<trkpt lat="37.4586993" lon="-4.2188041">
<ele>1920</ele>
<time>2015-05-27T16:58:43Z</time>
</trkpt>
<trkpt lat="37.4578898" lon="-4.2185064">
<ele>1942</ele>
<time>2015-05-27T16:58:57Z</time>
</trkpt>
<trkpt lat="37.4587541" lon="-4.2185398">
<ele>1979</ele>
<time>2015-05-27T16:59:13Z</time>
</trkpt>
<trkpt lat="37.459116" lon="-4.2172506">
<ele>1999</ele>
<time>2015-05-27T16:59:23Z</time>
</trkpt>
<trkpt lat="37.4580665" lon="-4.2165115">
<ele>2023</ele>
<time>2015-05-27T16:59:35Z</time>
</trkpt>
<trkpt lat="37.4580197" lon="-4.2170903">
<ele>2051</ele>
<time>2015-05-27T16:59:53Z</time>
</trkpt>
<trkpt lat="37.4581667" lon="-4.2160013">
<ele>2060</ele>
<time>2015-05-27T17:00:01Z</time>
</trkpt>
<trkpt lat="37.4572542" lon="-4.2161127">
<ele>2085</ele>
<time>2015-05-27T17:00:15Z</time>
</trkpt>
<trkpt lat="37.4571423" lon="-4.2172038">
<ele>2087</ele>
<time>2015-05-27T17:00:31Z</time>
</trkpt>
<trkpt lat="37.4565299" lon="-4.2184129">
<ele>2069</ele>
<time>2015-05-27T17:00:47Z</time>
</trkpt>
<trkpt lat="37.4560437" lon="-4.219674">
<ele>2056</ele>
<time>2015-05-27T17:01:04Z</time>
</trkpt>
<trkpt lat="37.4555595" lon="-4.2210246">
<ele>2029</ele>
<time>2015-05-27T17:01:18Z</time>
</trkpt>
<trkpt lat="37.4547478" lon="-4.222223">
<ele>2005</ele>
<time>2015-05-27T17:01:30Z</time>
</trkpt>
<trkpt lat="37.4539605" lon="-4.2230868">
<ele>1989</ele>
<time>2015-05-27T17:01:41Z</time>
</trkpt>
<trkpt lat="37.4531966" lon="-4.2239892">
<ele>1967</ele>
<time>2015-05-27T17:01:52Z</time>
</trkpt>
<trkpt lat="37.4525265" lon="-4.2253365">
<ele>1947</ele>
<time>2015-05-27T17:02:05Z</time>
</trkpt>
<trkpt lat="37.4520506" lon="-4.2264718">
<ele>1965</ele>
<time>2015-05-27T17:02:23Z</time>
</trkpt>
<trkpt lat="37.4514323" lon="-4.2274955">
<ele>1985</ele>
<time>2015-05-27T17:02:39Z</time>
</trkpt>
<trkpt lat="37.4510053" lon="-4.2281317">
<ele>1993</ele>
<time>2015-05-27T17:02:48Z</time>
</trkpt>
<trkpt lat="37.4504958" lon="-4.2289833">
<ele>1992</ele>
<time>2015-05-27T17:03:01Z</time>
</trkpt>
<trkpt lat="37.4499002" lon="-4.2298357">
<ele>1980</ele>
<time>2015-05-27T17:03:13Z</time>
</trkpt>
<trkpt lat="37.4494936" lon="-4.2306969">
<ele>1962</ele>
<time>2015-05-27T17:03:21Z</time>
</trkpt>
<trkpt lat="37.4486477" lon="-4.2319332">
<ele>1946</ele>
<time>2015-05-27T17:03:32Z</time>
</trkpt>
<trkpt lat="37.4479901" lon="-4.2330505">
<ele>1931</ele>
<time>2015-05-27T17:03:40Z</time>
</trkpt>
<trkpt lat="37.4474" lon="-4.2341522">
<ele>1914</ele>
<time>2015-05-27T17:03:48Z</time>
</trkpt>
<trkpt lat="37.4466582" lon="-4.235094">
<ele>1897</ele>
<time>2015-05-27T17:03:56Z</time>
</trkpt>
<trkpt lat="37.445818" lon="-4.2359882">
<ele>1876</ele>
<time>2015-05-27T17:04:04Z</time>
</trkpt>
<trkpt lat="37.4451368" lon="-4.2369286">
<ele>1857</ele>
<time>2015-05-27T17:04:12Z</time>
</trkpt>
<trkpt lat="37.4444721" lon="-4.237943">
<ele>1845</ele>
<time>2015-05-27T17:04:20Z</time>
</trkpt>
<trkpt lat="37.4440597" lon="-4.2389737">
<ele>1822</ele>
<time>2015-05-27T17:04:28Z</time>
</trkpt>
<trkpt lat="37.4437628" lon="-4.2403601">
<ele>1808</ele>
<time>2015-05-27T17:04:39Z</time>
</trkpt>
<trkpt lat="37.4431106" lon="-4.2420018">
<ele>1790</ele>
<time>2015-05-27T17:04:53Z</time>
</trkpt>
<trkpt lat="37.4425173" lon="-4.2429719">
<ele>1780</ele>
<time>2015-05-27T17:05:01Z</time>
</trkpt>
<trkpt lat="37.4418658" lon="-4.2439371">
<ele>1759</ele>
<time>2015-05-27T17:05:10Z</time>
</trkpt>
<trkpt lat="37.4411532" lon="-4.2447834">
<ele>1733</ele>
<time>2015-05-27T17:05:18Z</time>
</trkpt>
<trkpt lat="37.4404957" lon="-4.2455473">
<ele>1705</ele>
<time>2015-05-27T17:05:27Z</time>
</trkpt>
<trkpt lat="37.439843" lon="-4.2463537">
<ele>1674</ele>
<time>2015-05-27T17:05:37Z</time>
</trkpt>
<trkpt lat="37.4392935" lon="-4.2470396">
<ele>1659</ele>
<time>2015-05-27T17:05:45Z</time>
</trkpt>
<trkpt lat="37.4388034" lon="-4.2478612">
<ele>1662</ele>
<time>2015-05-27T17:05:57Z</time>
</trkpt>
<trkpt lat="37.4385062" lon="-4.2488803">
<ele>1677</ele>
<time>2015-05-27T17:06:12Z</time>
</trkpt>
<trkpt lat="37.4382153" lon="-4.2496719">
<ele>1688</ele>
<time>2015-05-27T17:06:30Z</time>
</trkpt>
<trkpt lat="37.4376044" lon="-4.2507279">
<ele>1672</ele>
<time>2015-05-27T17:06:53Z</time>
</trkpt>
<trkpt lat="37.4372025" lon="-4.2513094">
<ele>1682</ele>
<time>2015-05-27T17:07:08Z</time>
</trkpt>
<trkpt lat="37.4377092" lon="-4.2503755">
<ele>1689</ele>
<time>2015-05-27T17:07:19Z</time>
</trkpt>
<trkpt lat="37.4367847" lon="-4.2502219">
<ele>1706</ele>
<time>2015-05-27T17:07:34Z</time>
</trkpt>
<trkpt lat="37.4372301" lon="-4.2495024">
<ele>1709</ele>
<time>2015-05-27T17:07:48Z</time>
</trkpt>
<trkpt lat="37.4362617" lon="-4.2497578">
<ele>1703</ele>
<time>2015-05-27T17:08:03Z</time>
</trkpt>
<trkpt lat="37.4355927" lon="-4.2506974">
<ele>1664</ele>
<time>2015-05-27T17:08:21Z</time>
</trkpt>
<trkpt lat="37.4347536" lon="-4.25154">
<ele>1654</ele>
<time>2015-05-27T17:08:39Z</time>
</trkpt>
<trkpt lat="37.4339309" lon="-4.2520668">
<ele>1633</ele>
<time>2015-05-27T17:08:54Z</time>
</trkpt>
<trkpt lat="37.4331181" lon="-4.2525197">
<ele>1624</ele>
<time>2015-05-27T17:09:07Z</time>
</trkpt>
<trkpt lat="37.4322738" lon="-4.2529729">
<ele>1616</ele>
<time>2015-05-27T17:09:23Z</time>
</trkpt>
<trkpt lat="37.4312152" lon="-4.2534409">
<ele>1602</ele>
<time>2015-05-27T17:09:43Z</time>
</trkpt>
<trkpt lat="37.430169" lon="-4.2539874">
<ele>1592</ele>
<time>2015-05-27T17:09:59Z</time>
</trkpt>
<trkpt lat="37.4291373" lon="-4.2544886">
<ele>1592</ele>
<time>2015-05-27T17:10:20Z</time>
</trkpt>
<trkpt lat="37.4284691" lon="-4.255129">
<ele>1594</ele>
<time>2015-05-27T17:10:38Z</time>
</trkpt>
<trkpt lat="37.4289595" lon="-4.2558618">
<ele>1602</ele>
<time>2015-05-27T17:10:58Z</time>
</trkpt>
<trkpt lat="37.4284056" lon="-4.256674">
<ele>1601</ele>
<time>2015-05-27T17:11:16Z</time>
</trkpt>
<trkpt lat="37.4275871" lon="-4.2571727">
<ele>1596</ele>
<time>2015-05-27T17:11:33Z</time>
</trkpt>
<trkpt lat="37.4267583" lon="-4.2574853">
<ele>1597</ele>
<time>2015-05-27T17:11:50Z</time>
</trkpt>
<trkpt lat="37.4260004" lon="-4.257586">
<ele>1589</ele>
<time>2015-05-27T17:12:01Z</time>
</trkpt>
<trkpt lat="37.4250841" lon="-4.2580154">
<ele>1576</ele>
<time>2015-05-27T17:12:17Z</time>
</trkpt>
<trkpt lat="37.4243896" lon="-4.258687">
<ele>1566</ele>
<time>2015-05-27T17:12:32Z</time>
</trkpt>
<trkpt lat="37.4237492" lon="-4.2594973">
<ele>1547</ele>
<time>2015-05-27T17:12:48Z</time>
</trkpt>
<trkpt lat="37.422989" lon="-4.2600548">
<ele>1527</ele>
<time>2015-05-27T17:13:06Z</time>
</trkpt>
<trkpt lat="37.4224784" lon="-4.2608767">
<ele>1519</ele>
<time>2015-05-27T17:13:24Z</time>
</trkpt>
<trkpt lat="37.4217247" lon="-4.2619022">
<ele>1483</ele>
<time>2015-05-27T17:13:38Z</time>
</trkpt>
<trkpt lat="37.4207724" lon="-4.2627606">
<ele>1454</ele>
<time>2015-05-27T17:13:51Z</time>
</trkpt>
<trkpt lat="37.4202545" lon="-4.2636088">
<ele>1430</ele>
<time>2015-05-27T17:14:01Z</time>
</trkpt>
<trkpt lat="37.4196304" lon="-4.2650012">
<ele>1381</ele>
<time>2015-05-27T17:14:15Z</time>
</trkpt>
<trkpt lat="37.4189291" lon="-4.2660219">
<ele>1340</ele>
<time>2015-05-27T17:14:33Z</time>
</trkpt>
<trkpt lat="37.4184617" lon="-4.2673541">
<ele>1286</ele>
<time>2015-05-27T17:14:49Z</time>
</trkpt>
<trkpt lat="37.4181107" lon="-4.2687498">
<ele>1240</ele>
<time>2015-05-27T17:15:04Z</time>
</trkpt>
<trkpt lat="37.4175155" lon="-4.269849">
<ele>1209</ele>
<time>2015-05-27T17:15:17Z</time>
</trkpt>
<trkpt lat="37.4169923" lon="-4.270919">
<ele>1185</ele>
<time>2015-05-27T17:15:42Z</time>
</trkpt>
<trkpt lat="37.4162867" lon="-4.2715436">
<ele>1174</ele>
<time>2015-05-27T17:15:58Z</time>
</trkpt>
<trkpt lat="37.4155823" lon="-4.2722208">
<ele>1153</ele>
<time>2015-05-27T17:16:13Z</time>
</trkpt>
<trkpt lat="37.4148587" lon="-4.2732527">
<ele>1130</ele>
<time>2015-05-27T17:16:27Z</time>
</trkpt>
<trkpt lat="37.4143201" lon="-4.2743675">
<ele>1121</ele>
<time>2015-05-27T17:16:42Z</time>
</trkpt>
<trkpt lat="37.4133654" lon="-4.2752809">
<ele>1110</ele>
<time>2015-05-27T17:16:59Z</time>
</trkpt>
<trkpt lat="37.4125337" lon="-4.2765941">
<ele>1106</ele>
<time>2015-05-27T17:17:29Z</time>
</trkpt>
<trkpt lat="37.4119507" lon="-4.278081">
<ele>1092</ele>
<time>2015-05-27T17:18:00Z</time>
</trkpt>
<trkpt lat="37.4108994" lon="-4.2788553">
<ele>1064</ele>
<time>2015-05-27T17:18:26Z</time>
</trkpt>
<trkpt lat="37.4102082" lon="-4.2798716">
<ele>1038</ele>
<time>2015-05-27T17:18:47Z</time>
</trkpt>
<trkpt lat="37.4094144" lon="-4.280879">
<ele>1032</ele>
<time>2015-05-27T17:19:08Z</time>
</trkpt>
<trkpt lat="37.4089865" lon="-4.2818904">
<ele>1013</ele>
<time>2015-05-27T17:19:40Z</time>
</trkpt>
<trkpt lat="" lon="">
<ele></ele>
<time>2015-05-27TZ</time>
</trkpt>
</trkseg>
</trk>
<wpt lat="" lon="">
	<name></name>
	<desc></desc>
	<cmt></cmt>
	<photoid></photoid>
	<type></type>
</wpt>
</gpx>
